[[{"header":{"parameterUnit":"m.s-1","parameterCategory":1,"la1":30.6,"la2":29.2853,"lo1":-89.7004,"lo2":-87.6739,"dy":0.0162,"dx":0.0183,"nx":112,"ny":82,"refTime":"2026-05-02T00:00:00:Z","depth":0,"parameterNumber":2,"parameterNumberName":"U-component_of_WINDS"},"data":[0.0,0.0,0.0,0.0,0.0,0.0,0.0,0.0,0.0,0.0,0.0,0.0,0.0,0.0,0.0,0.0,0.0,0.0,0.0,0.0,0.0,0.0,0.0,0.0,0.0,0.0,0.0,0.0,0.0,0.0,0.0,0.0,0.0,0.0,0.0,0.0,0.0,0.0,0.0,0.0,0.0,0.0,0.0,0.0,0.0,0.0,0.0,0.0,0.0,0.0,0.0,0.0,0.0,0.0,0.0,0.0,0.0,0.0,0.0,0.0,0.0,0.0,0.0,0.0,0.0,0.0,0.0,0.0,0.0,0.0,0.0,0.0,0.0,0.0,0.0,0.0,0.0,0.0,0.0,0.0,0.0,0.0,0.0,0.0,0.0,0.0,0.0,0.0,0.0,0.0,-5.7734,-5.8887,-6.039,-6.1367,-6.1484,-6.0586,-5.9043,-5.6738,0.0,0.0,0.0,0.0,0.0,0.0,0.0,0.0,0.0,0.0,0.0,0.0,0.0,0.0,0.0,0.0,0.0,0.0,0.0,0.0,0.0,0.0,0.0,0.0,0.0,0.0,0.0,0.0,0.0,0.0,0.0,0.0,0.0,0.0,0.0,0.0,0.0,0.0,0.0,0.0,0.0,0.0,0.0,0.0,0.0,0.0,0.0,0.0,0.0,0.0,0.0,0.0,0.0,0.0,0.0,0.0,0.0,0.0,0.0,0.0,0.0,0.0,0.0,0.0,0.0,0.0,0.0,0.0,0.0,0.0,0.0,0.0,0.0,0.0,0.0,0.0,0.0,0.0,0.0,0.0,0.0,0.0,0.0,0.0,0.0,0.0,0.0,0.0,0.0,0.0,0.0,0.0,0.0,0.0,0.0,0.0,0.0,0.0,0.0,0.0,0.0,0.0,0.0,0.0,-5.5488,-5.7851,-5.8984,-5.9863,-6.0547,-5.918,-5.7793,-5.668,0.0,0.0,0.0,0.0,0.0,0.0,0.0,0.0,0.0,0.0,0.0,0.0,0.0,0.0,0.0,0.0,0.0,0.0,0.0,0.0,0.0,0.0,0.0,0.0,0.0,0.0,0.0,0.0,0.0,0.0,0.0,0.0,0.0,0.0,0.0,0.0,0.0,0.0,0.0,0.0,0.0,0.0,0.0,0.0,0.0,0.0,0.0,0.0,0.0,0.0,0.0,0.0,0.0,0.0,0.0,0.0,0.0,0.0,0.0,0.0,0.0,0.0,0.0,0.0,0.0,0.0,0.0,0.0,0.0,0.0,0.0,0.0,0.0,0.0,0.0,0.0,0.0,0.0,0.0,0.0,0.0,0.0,0.0,0.0,0.0,0.0,0.0,0.0,0.0,0.0,0.0,0.0,0.0,0.0,0.0,0.0,0.0,0.0,0.0,0.0,0.0,0.0,0.0,-5.5703,-5.623,-5.8379,-5.8965,-5.9531,-6.0332,-5.8867,-5.7539,-5.666,-5.5332,0.0,0.0,0.0,0.0,0.0,0.0,0.0,0.0,0.0,0.0,0.0,0.0,0.0,0.0,0.0,0.0,0.0,0.0,0.0,0.0,0.0,0.0,0.0,0.0,0.0,0.0,0.0,0.0,0.0,0.0,0.0,0.0,0.0,0.0,0.0,0.0,0.0,0.0,0.0,0.0,0.0,0.0,0.0,0.0,0.0,0.0,0.0,0.0,0.0,0.0,0.0,0.0,0.0,0.0,0.0,0.0,0.0,0.0,0.0,0.0,0.0,0.0,0.0,0.0,0.0,0.0,0.0,0.0,0.0,0.0,0.0,0.0,0.0,0.0,0.0,0.0,0.0,0.0,0.0,0.0,0.0,0.0,0.0,0.0,0.0,0.0,0.0,0.0,0.0,0.0,0.0,0.0,0.0,0.0,0.0,0.0,0.0,0.0,0.0,0.0,0.0,0.0,-5.6758,-5.7109,-5.8437,-5.8594,-5.8926,-5.9746,-5.8262,-5.6992,-5.6348,-5.4668,0.0,0.0,0.0,0.0,0.0,0.0,0.0,0.0,0.0,0.0,0.0,0.0,0.0,0.0,0.0,0.0,0.0,0.0,0.0,0.0,0.0,0.0,0.0,0.0,0.0,0.0,0.0,0.0,0.0,0.0,0.0,0.0,0.0,0.0,0.0,0.0,0.0,0.0,0.0,0.0,0.0,0.0,0.0,0.0,0.0,0.0,0.0,0.0,0.0,0.0,0.0,0.0,0.0,0.0,0.0,0.0,0.0,0.0,0.0,0.0,0.0,0.0,0.0,0.0,0.0,0.0,0.0,0.0,0.0,0.0,0.0,0.0,0.0,0.0,0.0,0.0,0.0,0.0,0.0,0.0,0.0,0.0,0.0,0.0,0.0,0.0,0.0,0.0,0.0,0.0,0.0,0.0,0.0,0.0,0.0,0.0,0.0,0.0,0.0,0.0,0.0,0.0,-5.5644,-5.664,-5.6777,-5.6777,-5.7129,-5.8008,-5.6484,-5.5469,-5.539,-5.3769,0.0,0.0,0.0,0.0,0.0,0.0,0.0,0.0,0.0,0.0,0.0,0.0,0.0,0.0,0.0,0.0,0.0,0.0,0.0,0.0,0.0,0.0,0.0,0.0,0.0,0.0,0.0,0.0,0.0,0.0,0.0,0.0,0.0,0.0,0.0,0.0,0.0,0.0,0.0,0.0,0.0,0.0,0.0,0.0,0.0,0.0,0.0,0.0,0.0,0.0,0.0,0.0,0.0,0.0,0.0,0.0,0.0,0.0,0.0,0.0,0.0,0.0,0.0,0.0,0.0,0.0,0.0,0.0,0.0,0.0,0.0,0.0,0.0,0.0,0.0,0.0,0.0,0.0,0.0,0.0,0.0,0.0,0.0,0.0,0.0,0.0,0.0,0.0,0.0,0.0,0.0,0.0,0.0,0.0,0.0,0.0,0.0,0.0,0.0,0.0,0.0,0.0,-5.5017,-5.5996,-5.6543,-5.6601,-5.6953,-5.7832,-5.6308,-5.5293,-5.5293,0.0,0.0,0.0,0.0,0.0,0.0,0.0,0.0,0.0,0.0,0.0,0.0,0.0,0.0,0.0,0.0,0.0,0.0,0.0,0.0,0.0,0.0,0.0,0.0,0.0,0.0,0.0,0.0,0.0,0.0,0.0,0.0,0.0,0.0,0.0,0.0,0.0,0.0,0.0,0.0,0.0,0.0,0.0,0.0,0.0,0.0,0.0,0.0,0.0,0.0,0.0,0.0,0.0,0.0,0.0,0.0,0.0,0.0,0.0,0.0,0.0,0.0,0.0,0.0,0.0,0.0,0.0,0.0,0.0,0.0,0.0,0.0,0.0,0.0,0.0,0.0,0.0,0.0,0.0,0.0,0.0,0.0,0.0,0.0,0.0,0.0,0.0,0.0,0.0,0.0,0.0,0.0,0.0,0.0,0.0,0.0,0.0,0.0,0.0,0.0,0.0,0.0,-5.3384,-5.4515,-5.57,-5.6832,-5.6992,-5.7246,-5.7851,-5.6562,-5.5351,-5.4531,0.0,0.0,0.0,0.0,0.0,0.0,0.0,0.0,0.0,0.0,0.0,0.0,0.0,0.0,0.0,0.0,0.0,0.0,0.0,0.0,0.0,0.0,0.0,0.0,0.0,0.0,0.0,0.0,0.0,0.0,0.0,0.0,0.0,0.0,0.0,0.0,0.0,0.0,0.0,0.0,0.0,0.0,0.0,0.0,0.0,0.0,0.0,0.0,0.0,0.0,0.0,0.0,0.0,0.0,0.0,0.0,0.0,0.0,0.0,0.0,0.0,0.0,0.0,0.0,0.0,0.0,0.0,0.0,0.0,0.0,0.0,0.0,0.0,0.0,0.0,0.0,0.0,0.0,0.0,0.0,0.0,0.0,0.0,0.0,0.0,0.0,0.0,0.0,0.0,0.0,0.0,0.0,0.0,0.0,0.0,0.0,0.0,0.0,0.0,0.0,0.0,0.0,-5.2512,-5.41,-5.5849,-5.7504,-5.7807,-5.789,-5.789,-5.707,-5.5469,0.0,0.0,0.0,0.0,0.0,0.0,0.0,0.0,0.0,0.0,0.0,0.0,0.0,0.0,0.0,0.0,0.0,0.0,0.0,0.0,0.0,0.0,0.0,0.0,0.0,0.0,0.0,0.0,0.0,0.0,0.0,0.0,0.0,0.0,0.0,0.0,0.0,0.0,0.0,0.0,0.0,0.0,0.0,0.0,0.0,0.0,0.0,0.0,0.0,0.0,0.0,0.0,0.0,0.0,0.0,0.0,0.0,0.0,0.0,0.0,0.0,0.0,0.0,0.0,0.0,0.0,0.0,0.0,0.0,0.0,0.0,0.0,0.0,0.0,0.0,0.0,0.0,0.0,0.0,0.0,0.0,0.0,0.0,0.0,0.0,0.0,0.0,0.0,0.0,0.0,0.0,0.0,0.0,0.0,0.0,0.0,0.0,0.0,0.0,0.0,0.0,0.0,0.0,-5.3208,-5.4947,-5.6313,-5.6801,-5.6928,-5.6973,-5.6973,-5.5625,-5.418,-5.2793,0.0,0.0,0.0,0.0,0.0,0.0,0.0,0.0,0.0,0.0,0.0,0.0,0.0,0.0,0.0,0.0,0.0,0.0,0.0,0.0,0.0,0.0,0.0,0.0,0.0,0.0,0.0,0.0,0.0,0.0,0.0,0.0,0.0,0.0,0.0,0.0,0.0,0.0,0.0,0.0,0.0,0.0,0.0,0.0,0.0,0.0,0.0,0.0,0.0,0.0,0.0,0.0,0.0,0.0,0.0,0.0,0.0,0.0,0.0,0.0,0.0,0.0,0.0,0.0,0.0,0.0,0.0,0.0,0.0,0.0,0.0,0.0,0.0,0.0,0.0,0.0,0.0,0.0,0.0,0.0,0.0,0.0,0.0,0.0,0.0,0.0,0.0,0.0,0.0,0.0,0.0,0.0,0.0,0.0,0.0,0.0,0.0,0.0,0.0,0.0,0.0,0.0,-5.2938,-5.4689,-5.6122,-5.6823,-5.6979,-5.7045,-5.7045,-5.5819,-5.4219,-5.2305,0.0,0.0,0.0,0.0,0.0,0.0,0.0,0.0,0.0,0.0,0.0,0.0,0.0,0.0,0.0,0.0,0.0,0.0,0.0,0.0,0.0,0.0,0.0,0.0,0.0,0.0,0.0,0.0,0.0,0.0,0.0,0.0,0.0,0.0,0.0,0.0,0.0,0.0,0.0,0.0,0.0,0.0,0.0,0.0,0.0,0.0,0.0,0.0,0.0,0.0,0.0,0.0,0.0,0.0,0.0,0.0,0.0,0.0,0.0,0.0,0.0,0.0,0.0,0.0,0.0,0.0,0.0,0.0,0.0,0.0,0.0,0.0,0.0,0.0,0.0,0.0,0.0,0.0,0.0,0.0,0.0,0.0,0.0,0.0,0.0,0.0,0.0,0.0,0.0,0.0,0.0,0.0,0.0,0.0,0.0,0.0,0.0,0.0,0.0,0.0,0.0,0.0,-5.2113,-5.3843,-5.5637,-5.7217,-5.7482,-5.7575,-5.7575,-5.6807,-5.496,-5.1718,0.0,0.0,0.0,0.0,0.0,0.0,0.0,0.0,0.0,0.0,0.0,0.0,0.0,0.0,0.0,0.0,0.0,0.0,0.0,0.0,0.0,0.0,0.0,0.0,0.0,0.0,0.0,0.0,0.0,0.0,0.0,0.0,0.0,0.0,0.0,0.0,0.0,0.0,0.0,0.0,0.0,0.0,0.0,0.0,0.0,0.0,0.0,0.0,0.0,0.0,0.0,0.0,0.0,0.0,0.0,0.0,0.0,0.0,0.0,0.0,-5.9839,-5.8453,0.0,0.0,0.0,0.0,0.0,0.0,0.0,0.0,0.0,0.0,0.0,0.0,0.0,0.0,0.0,0.0,0.0,0.0,0.0,0.0,0.0,0.0,0.0,0.0,0.0,0.0,0.0,0.0,0.0,0.0,0.0,0.0,0.0,0.0,0.0,0.0,0.0,0.0,0.0,0.0,-5.219,-5.4386,-5.6058,-5.6434,-5.6544,-5.659,-5.659,-5.5239,-5.3805,-5.2435,-5.0252,0.0,0.0,0.0,0.0,0.0,0.0,0.0,0.0,0.0,0.0,0.0,0.0,0.0,0.0,0.0,0.0,0.0,0.0,0.0,0.0,0.0,0.0,0.0,0.0,0.0,0.0,0.0,0.0,0.0,0.0,0.0,0.0,0.0,0.0,0.0,0.0,0.0,0.0,0.0,0.0,0.0,0.0,0.0,0.0,0.0,0.0,0.0,0.0,0.0,0.0,0.0,0.0,0.0,0.0,0.0,0.0,0.0,0.0,0.0,-6.129,-5.9853,0.0,0.0,0.0,0.0,0.0,0.0,0.0,0.0,0.0,0.0,0.0,0.0,0.0,0.0,0.0,0.0,0.0,0.0,0.0,0.0,0.0,0.0,0.0,0.0,0.0,0.0,0.0,0.0,0.0,0.0,0.0,0.0,0.0,0.0,0.0,0.0,0.0,0.0,0.0,0.0,-5.2094,-5.4138,-5.5683,-5.6063,-5.5811,-5.5638,-5.5638,-5.4119,-5.2816,-5.1976,-4.946,0.0,0.0,0.0,0.0,0.0,0.0,0.0,0.0,0.0,0.0,0.0,0.0,0.0,0.0,0.0,0.0,0.0,0.0,0.0,0.0,0.0,0.0,0.0,0.0,0.0,0.0,0.0,0.0,0.0,0.0,0.0,0.0,0.0,0.0,0.0,0.0,0.0,0.0,0.0,0.0,0.0,0.0,0.0,0.0,0.0,0.0,0.0,0.0,0.0,0.0,0.0,0.0,0.0,-6.3416,-6.3909,-6.4569,-6.4616,-6.4616,-6.4472,-6.2902,-6.1616,-6.0546,-5.976,0.0,0.0,0.0,0.0,0.0,0.0,0.0,0.0,0.0,0.0,0.0,0.0,0.0,0.0,0.0,0.0,0.0,0.0,0.0,0.0,0.0,0.0,-5.52,-5.4175,-5.5664,-5.668,-5.4426,0.0,0.0,0.0,0.0,0.0,0.0,0.0,0.0,0.0,0.0,0.0,-5.2016,-5.3594,-5.489,-5.5702,-5.5113,-5.4654,-5.4654,-5.3305,-5.2158,-5.1432,-4.9091,-4.7439,0.0,0.0,0.0,0.0,0.0,0.0,0.0,0.0,0.0,0.0,0.0,0.0,0.0,0.0,0.0,0.0,0.0,0.0,0.0,0.0,0.0,0.0,0.0,0.0,0.0,0.0,0.0,0.0,0.0,0.0,0.0,0.0,-5.8992,-5.8069,0.0,0.0,0.0,0.0,0.0,0.0,0.0,0.0,0.0,0.0,0.0,0.0,0.0,-6.1766,-6.177,-6.408,-6.5324,-6.5476,-6.7031,-6.785,-6.7947,-6.7957,-6.7957,-6.7878,-6.6796,0.0,-6.2199,-6.2069,0.0,0.0,0.0,0.0,0.0,0.0,0.0,0.0,0.0,0.0,0.0,0.0,0.0,0.0,0.0,0.0,0.0,0.0,0.0,0.0,0.0,0.0,-5.7695,-5.607,-5.6487,-5.699,-5.5915,-5.5122,-5.3884,-5.1381,-5.0898,-5.0376,0.0,0.0,0.0,0.0,0.0,0.0,-5.2171,-5.3053,-5.4,-5.4871,-5.4199,-5.3673,-5.3673,-5.2798,-5.2212,-5.2152,-5.0476,-4.9449,-4.9399,-4.7159,0.0,0.0,0.0,0.0,0.0,0.0,0.0,0.0,0.0,0.0,0.0,0.0,0.0,0.0,0.0,0.0,0.0,0.0,0.0,0.0,0.0,0.0,0.0,0.0,0.0,0.0,0.0,0.0,0.0,-5.9415,-5.9569,-5.778,-5.9569,-5.9723,0.0,0.0,0.0,0.0,0.0,0.0,0.0,0.0,0.0,-6.0954,-6.2608,-6.3955,-6.491,-6.6494,-6.7552,-6.8052,-6.884,-6.9449,-6.9873,-6.941,-6.9218,-6.914,-6.7718,-6.6328,-6.4984,-6.3574,-6.2364,-6.1318,0.0,0.0,0.0,0.0,-5.8199,-5.7677,-5.8572,-5.8335,-5.7734,-5.8454,0.0,0.0,0.0,0.0,0.0,0.0,0.0,-5.3533,-5.4615,-5.6014,-5.7076,-5.6796,-5.7404,-5.7791,-5.6912,-5.6448,-5.5586,-5.3498,-5.2298,-5.1409,-5.0654,-5.0074,0.0,0.0,0.0,-5.0964,-5.1409,-5.2221,-5.3091,-5.3981,-5.3285,-5.2763,-5.2763,-5.197,-5.1478,-5.1506,-5.0401,-4.977,-4.9794,-4.7775,-4.6668,0.0,0.0,0.0,0.0,0.0,0.0,0.0,0.0,0.0,0.0,0.0,0.0,0.0,0.0,0.0,0.0,0.0,0.0,0.0,0.0,0.0,0.0,0.0,0.0,0.0,0.0,0.0,0.0,-6.0108,-6.0569,-5.8253,-6.0793,-6.1223,0.0,0.0,0.0,0.0,0.0,0.0,-6.0473,-6.1704,-6.2704,-6.3371,-6.5013,-6.6494,-6.7744,-6.8609,-6.9379,-7.0014,-7.0014,-7.0321,-7.0879,-7.0071,-6.9706,-6.961,-6.7859,-6.709,-6.693,-6.4658,-6.3445,-6.2917,-6.1696,-6.0875,-6.0334,-5.9831,-5.9292,-5.898,-6.0208,-6.0248,-5.9822,-6.0209,-5.9608,-5.8306,-5.5962,0.0,0.0,0.0,0.0,-5.3191,-5.5141,-5.5969,-5.6422,-5.6838,-5.761,-5.8005,-5.7146,-5.6807,-5.6302,-5.5045,-5.3749,-5.2647,-5.197,-5.1022,0.0,-4.9765,-4.9881,-5.0306,-5.1138,-5.1602,-5.2202,-5.3072,-5.2395,-5.1873,-5.1873,-5.1273,-5.0898,-5.0898,-5.0337,-5.0016,-5.0016,-4.8566,-4.756,-4.7115,0.0,0.0,0.0,0.0,0.0,0.0,0.0,0.0,0.0,0.0,0.0,0.0,0.0,0.0,0.0,0.0,0.0,0.0,0.0,0.0,0.0,0.0,0.0,0.0,0.0,0.0,0.0,0.0,0.0,-6.08,-6.2897,0.0,0.0,0.0,0.0,-6.0608,-6.2185,-6.3108,-6.3108,-6.5436,-6.6801,-6.684,-6.8532,-6.9475,-6.9571,-7.0379,-7.0802,-7.0841,-7.0841,-7.086,-7.0879,-7.0071,-6.9706,-6.961,-6.7859,-6.709,-6.6974,-6.5243,-6.4525,-6.4338,-6.269,-6.2013,-6.1789,-6.0123,-5.9571,-5.9647,-5.9661,-5.965,-5.9873,-6.1546,-6.0978,-5.9298,-5.7512,-5.5798,0.0,0.0,-5.387,-5.4496,-5.4651,-5.5895,-5.6937,-5.6155,-5.6647,-5.7051,-5.6231,-5.5474,-5.4909,-5.4813,-5.4735,-5.3884,-5.1381,0.0,-5.1525,-4.9939,-5.0337,-5.1157,-5.2008,-5.1447,-5.1312,-5.2171,-5.1486,-5.0975,-5.0975,-5.0937,-5.0898,-5.0898,-5.0859,-5.084,-5.084,-5.0016,-4.8798,-4.7134,-4.6235,0.0,0.0,0.0,0.0,0.0,0.0,0.0,0.0,0.0,0.0,0.0,0.0,0.0,0.0,0.0,0.0,0.0,0.0,0.0,0.0,0.0,0.0,0.0,0.0,0.0,0.0,0.0,0.0,-6.1839,-6.4839,0.0,-6.1993,-6.232,-6.2916,-6.3224,-6.432,-6.5436,-6.6519,-6.7436,-6.8186,-6.8763,-6.9379,-6.9956,-7.0475,-7.0764,-7.0898,-7.0898,-7.0898,-7.0629,-7.0129,-6.984,-6.909,-6.7994,-6.7359,-6.6801,-6.6282,-6.5686,-6.5436,-6.5378,-6.4782,-6.3851,-6.2805,-6.2166,-6.1651,-6.1243,-6.1231,-6.1201,-6.122,-6.1293,-6.0522,-5.9241,-5.7555,-5.6227,-5.5246,-5.4928,-5.4708,-5.4795,-5.5923,-5.6299,-5.629,-5.5972,-5.6146,-5.6281,-5.6001,-5.5711,-5.5334,-5.4783,-5.4295,-5.3672,-5.2724,-5.2821,-5.2453,-5.0724,-5.1196,-5.1641,-5.1409,-5.1095,-5.1021,-5.133,-5.1054,-5.0844,-5.0844,-5.0844,-5.0844,-5.0844,-5.0844,-5.0844,-5.0844,-5.0025,-4.9272,-4.8654,-4.7827,-4.6294,0.0,0.0,0.0,0.0,0.0,0.0,0.0,0.0,0.0,0.0,0.0,0.0,0.0,0.0,0.0,0.0,0.0,0.0,0.0,0.0,0.0,0.0,0.0,0.0,0.0,-6.2551,-6.4512,-6.3108,-6.6167,-6.7186,-6.4102,-6.4782,-6.557,-6.5859,-6.6686,-6.7667,-6.8783,-6.9109,-6.9513,-7.009,-7.011,-7.036,-7.0898,-7.0898,-7.0764,-7.0494,-7.0494,-7.0052,-6.9244,-6.8956,-6.8186,-6.7071,-6.6801,-6.6378,-6.5897,-6.5897,-6.5897,-6.5859,-6.557,-6.4589,-6.3281,-6.2993,-6.2377,-6.1658,-6.1658,-6.1658,-6.1581,-6.0993,-6.0416,-5.9627,-5.7953,-5.703,-5.6453,-5.5876,-5.5331,-5.5169,-5.6333,-5.623,-5.5749,-5.5479,-5.5653,-5.5798,-5.549,-5.5673,-5.5654,-5.4776,-5.4204,-5.3696,-5.3125,-5.302,-5.2536,-5.1111,-5.1365,-5.1531,-5.0979,-5.0888,-5.0863,-5.0863,-5.0838,-5.0801,-5.0801,-5.0531,-5.0493,-5.0782,-5.0531,-5.0358,-5.0358,-4.9809,-4.923,-4.8671,-4.7554,-4.613,-4.4437,0.0,0.0,0.0,0.0,0.0,0.0,0.0,0.0,0.0,0.0,0.0,0.0,0.0,0.0,0.0,0.0,0.0,0.0,0.0,0.0,0.0,0.0,0.0,-6.0877,-6.3801,-6.5628,-6.482,-6.6936,-6.8148,-6.7263,-6.7167,-6.7532,-6.8379,-6.9225,-6.9706,-6.9744,-7.0475,-7.0898,-7.0898,-7.0898,-7.0898,-7.0898,-7.0898,-7.0494,-6.9706,-6.9706,-6.9225,-6.834,-6.7494,-6.709,-6.7013,-6.6244,-6.5897,-6.5897,-6.5897,-6.5878,-6.5782,-6.4936,-6.407,-6.3192,-6.2397,-6.155,-6.08,-6.08,-6.08,-6.08,-6.0762,-6.0781,-6.0473,-5.8781,-5.828,-5.7934,-5.6184,-5.5703,-5.5703,-5.5703,-5.5703,-5.5491,-5.4684,-5.5149,-5.5555,-5.4689,-5.521,-5.5606,-5.4728,-5.4535,-5.3994,-5.2378,-5.2121,-5.187,-5.1017,-5.0852,0.0,-5.0891,-5.0846,-5.0801,-5.0763,-5.0754,-5.0754,-5.0754,-4.9982,-4.9867,-5.0696,-4.9963,-4.95,-4.95,-4.95,-4.8728,-4.7108,-4.5332,-4.4405,-4.4335,0.0,0.0,0.0,0.0,0.0,0.0,0.0,0.0,0.0,0.0,0.0,0.0,0.0,0.0,0.0,0.0,0.0,0.0,0.0,0.0,0.0,-6.1639,-6.3265,-6.2692,-6.5013,-6.6917,-6.7321,-6.9052,-6.9898,-6.9071,-6.8994,-6.909,-6.9321,-6.9571,-6.9956,-7.0533,-7.0783,-7.0898,-7.0898,-7.0898,-7.0898,-7.0898,-7.0898,-7.0494,-6.9706,-6.9706,-6.8917,-6.7455,-6.7205,-6.6782,-6.6224,-6.5994,-6.5897,-6.5897,-6.5897,-6.5532,-6.4936,-6.4686,-6.407,-6.3192,-6.2397,-6.155,-6.08,-6.08,-6.08,-6.0704,-6.0069,-6.0281,-6.0358,-5.805,-5.78,-5.7934,-5.6184,-5.5703,-5.5703,-5.5703,-5.5703,-5.5491,-5.4684,-5.5117,-5.5504,-5.4666,-5.4696,-5.4629,-5.3743,-5.307,-5.2522,-5.2152,-5.2624,-5.2547,-5.1039,-5.1359,-5.1515,-5.0915,-5.0775,-5.0488,-4.991,-4.9806,-4.9787,-4.9787,-4.9576,-4.9537,-4.9768,-4.9556,-4.9441,-4.9441,-4.9441,-4.921,-4.8748,-4.6467,-4.5257,0.0,0.0,0.0,0.0,0.0,0.0,0.0,0.0,0.0,0.0,0.0,0.0,0.0,0.0,0.0,0.0,0.0,0.0,0.0,0.0,0.0,0.0,-6.3476,-6.5276,-6.5885,-6.7263,-6.8379,-6.8879,-7.011,-7.0725,-7.0244,-7.0206,-7.0206,-7.0206,-7.0206,-7.0417,-7.0879,-7.0898,-7.0898,-7.0898,-7.0898,-7.0744,-7.0398,-7.0398,-6.9802,-6.8609,-6.8609,-6.7898,-6.659,-6.659,-6.634,-6.5897,-6.5897,-6.5897,-6.5859,-6.5513,-6.5051,-6.4609,0.0,0.0,0.0,0.0,-6.1223,-6.08,-6.08,-6.055,-6.0165,-5.9665,-5.9608,-5.9415,-5.7561,-5.7349,-5.7473,-5.6088,-5.5703,-5.5703,-5.5703,-5.5703,-5.5491,-5.4684,-5.5107,-5.5472,-5.4664,-5.4491,-5.4241,-5.3376,-5.25,0.0,-5.1558,-5.1934,-5.1933,-5.0947,-5.1209,-5.1326,-5.0824,-5.072,-5.0519,-5.0057,-4.9971,-4.9933,-4.9933,-4.9606,0.0,0.0,0.0,-4.8702,-4.8375,-4.799,0.0,0.0,0.0,0.0,0.0,0.0,0.0,0.0,-4.4355,-4.4239,0.0,0.0,0.0,0.0,0.0,0.0,0.0,0.0,0.0,0.0,0.0,0.0,0.0,0.0,0.0,0.0,-6.5467,-6.7044,-6.9352,-6.9783,-6.984,-6.984,-7.0475,-7.0898,-7.0898,-7.0898,-7.0898,-7.0898,-7.0898,-7.0898,-7.0898,-7.0898,0.0,0.0,0.0,-7.0417,-6.9706,-6.961,-6.8725,-6.709,-6.709,-6.6667,-6.5897,-6.5897,-6.5897,-6.5897,-6.5897,-6.5897,-6.582,-6.4955,-6.4493,-6.432,-6.432,-6.3339,-6.187,-6.1089,-6.08,-6.08,-6.08,0.0,0.0,-5.9396,-5.8877,-5.8127,-5.7157,-5.6926,-5.683,-5.5953,-5.5703,-5.5703,-5.5703,-5.5703,-5.5491,-5.4684,-5.5107,-5.5472,-5.4664,-5.4414,-5.4126,-5.3356,-5.2423,-5.1548,-5.0827,-5.0712,-5.0721,-5.0775,-5.075,-5.0702,-5.0702,-5.0693,-5.0654,-5.0558,-5.0558,0.0,-5.0558,-4.9837,-4.9683,-5.0366,-4.8875,-4.7644,-4.6923,-4.6163,-4.5748,-4.5748,-4.5652,-4.5594,-4.5594,-4.5594,-4.5594,-4.5556,-4.4066,-4.3816,0.0,0.0,0.0,0.0,0.0,0.0,0.0,0.0,0.0,0.0,0.0,0.0,0.0,0.0,0.0,-6.4235,-6.6839,-6.8962,-6.9475,-7.0184,-7.0667,-7.0667,-7.0802,-7.0898,-7.0898,-7.0898,-7.0898,-7.0898,-7.0898,-7.0898,-7.0898,-7.0898,-7.0898,-7.0898,-7.0264,-6.986,-6.9706,-6.9013,-6.8129,-6.709,-6.709,0.0,-6.5897,-6.5897,-6.5897,-6.5897,-6.5897,-6.5897,-6.582,-6.4955,-6.3801,-6.257,-6.257,-6.1966,-6.1031,-6.0858,-6.08,-6.08,-6.08,-6.0223,-5.9396,-5.8742,-5.8434,-5.8011,-5.6434,-5.6445,0.0,-5.5953,-5.5703,-5.5703,-5.5703,-5.5703,-5.5491,-5.4684,-5.5107,-5.5472,-5.4664,-5.3953,-5.3395,-5.3241,-5.1972,-5.0875,-5.0731,-5.0712,-5.0693,-5.0721,-5.0702,-5.0693,-5.0702,-5.0693,-5.0442,-4.9721,-4.9644,-4.9644,-4.9644,-4.949,-4.9163,-4.8644,-4.7682,-4.7058,-4.6904,-4.674,-4.6644,-4.6644,-4.5951,-4.5594,-4.5594,-4.5594,-4.5594,-4.5594,-4.5267,-4.5586,0.0,0.0,0.0,0.0,0.0,0.0,0.0,0.0,0.0,0.0,0.0,-6.1282,-6.2185,0.0,-6.5336,-6.6643,-6.8354,-6.9653,-7.0095,-7.0588,-7.0898,-7.0898,-7.0898,-7.0898,-7.0898,-7.0898,-7.0898,-7.0898,-7.0898,-7.0898,-7.0898,-7.0898,-7.0898,-7.0898,-7.0129,-6.9494,-6.9052,-6.8186,-6.7321,-6.6494,-6.6494,-6.6282,-6.5897,-6.5897,-6.5897,-6.5897,-6.5897,-6.5647,-6.5147,-6.3858,-6.2589,-6.1447,-6.1447,-6.1166,-6.08,-6.08,-6.08,-6.08,-6.08,-5.9973,-5.8838,-5.8434,-5.7703,-5.6838,-5.5953,-5.5992,-5.6272,-5.5818,-5.5703,-5.5703,-5.5703,-5.5703,-5.5588,-5.5203,-5.5415,-5.5588,-5.5184,-5.4107,-5.3203,-5.3203,-5.1856,-5.0712,-5.0712,-5.0712,-5.0712,-5.0712,-5.0712,-5.0712,-5.0712,-5.0712,-5.0539,-5.0087,-5.0048,-5.0048,-5.0048,-5.0048,-4.949,-4.8182,-4.7721,-4.7124,-4.6278,-4.624,-4.624,-4.624,-4.5825,-4.5594,-4.5594,-4.5594,-4.5594,-4.5594,-4.5594,-4.6067,0.0,0.0,0.0,0.0,0.0,0.0,0.0,-6.0637,-6.0981,-6.1287,-6.2013,-6.3078,-6.4685,-6.5671,-6.694,-6.9049,-6.9596,-6.9999,-7.069,-7.0857,-7.0898,-7.0898,-7.0898,-7.0898,-7.0898,-7.0898,-7.0898,-7.0898,-7.0898,-7.0898,-7.0898,-7.0898,-7.0821,-7.0667,-6.9879,-6.9033,-6.8167,-6.7301,-6.6532,-6.5897,-6.5897,-6.5897,-6.5897,-6.5897,-6.5897,-6.5878,-6.5724,-6.5147,-6.4224,-6.2724,-6.1601,-6.08,-6.08,-6.08,-6.08,-6.08,-6.08,-6.0781,-6.0608,-5.955,-5.828,-5.8107,-5.6973,-5.5703,-5.5703,-5.5703,-5.5703,-5.5703,-5.5588,-5.5472,-5.5472,-5.5338,-5.5261,-5.5434,-5.5472,-5.5511,-5.5665,-5.4376,-5.3203,-5.3203,-5.1856,-5.0712,-5.0712,-5.0712,-5.0712,-5.0712,-5.0712,-5.0712,-5.0712,-5.0712,-5.0712,-5.0712,-5.0712,-5.0712,-5.0712,-5.0539,-4.9779,-4.8202,-4.7952,-4.7182,-4.5671,-4.5594,-4.5594,-4.5594,-4.5594,-4.5594,-4.5594,-4.5594,-4.5594,-4.5594,-4.5594,-4.6067,-5.5992,-5.5762,-5.6185,-5.6635,-5.7867,-5.9224,0.0,-6.1554,-6.3045,-6.4535,-6.5528,-6.6407,-6.732,-6.8243,-6.8958,-6.9261,-7.0085,-7.069,-7.0787,-7.0857,-7.0898,-7.0898,-7.0898,-7.0898,-7.0898,-7.0898,-7.0898,-7.0898,-7.0898,-7.0898,-7.0898,-7.0898,-7.0571,-6.986,-6.9013,-6.8129,-6.7244,-6.6436,-6.5994,-6.5897,-6.5897,-6.5897,-6.5897,-6.5897,-6.5897,-6.5859,-6.507,-6.4262,-6.3378,-6.2474,-6.1601,-6.08,-6.08,-6.08,-6.08,-6.08,-6.08,-6.0685,-5.9915,-5.905,-5.8165,-5.7396,-5.6503,-5.5703,-5.5703,-5.5703,-5.5703,-5.5703,-5.5184,-5.4626,-5.4626,-5.4068,-5.3664,-5.4453,-5.4626,-5.4818,-5.5549,-5.4376,-5.3203,-5.3203,-5.1856,-5.0712,-5.0712,-5.0712,-5.0712,-5.0712,-5.0712,-5.0712,-5.0712,-5.0712,-5.0712,-5.0712,-5.0712,-5.0712,-5.0712,-4.999,-4.9125,-4.8163,-4.7432,-4.6605,-4.5633,-4.5594,-4.5594,-4.5594,-4.5594,-4.5594,-4.5594,-4.5594,-4.5594,-4.5594,-4.5594,-4.6067,-5.6857,-5.6482,-5.6777,-5.8413,-5.9338,-6.0332,-6.2199,-6.314,-6.4133,-6.5815,-6.6827,-6.7664,-6.8552,-6.9444,-7.0065,-7.0111,-7.0503,-7.0787,-7.0787,-7.0857,-7.0898,-7.0898,-7.0898,-7.0898,-7.0898,-7.0898,-7.0898,-7.0898,-7.0898,-7.0898,-7.0898,-7.0898,-7.0533,-6.9725,-6.8859,-6.7975,-6.7109,-6.6301,-6.5897,-6.5897,-6.5897,-6.5897,-6.5897,-6.5897,-6.5609,-6.5089,-6.4224,-6.3378,-6.2531,-6.1685,-6.1127,-6.08,-6.08,-6.08,-6.08,-6.08,-6.08,-6.0685,-5.98,-5.8973,-5.8165,-5.728,-5.6753,-5.6368,-5.5838,-5.6049,-5.6349,-5.5838,-5.5126,-5.4491,-5.4491,-5.4222,-5.4049,-5.4414,-5.4857,-5.528,-5.5626,-5.4376,-5.3049,-5.2538,-5.1491,-5.0539,-5.0029,-5.0366,-5.0712,-5.0712,-5.0712,-5.0712,-5.0712,-5.0712,-5.0712,-5.0712,-5.0712,-5.0712,-5.0712,-4.9894,-4.9029,-4.8163,-4.7327,-4.6509,-4.5633,-4.5594,-4.5594,-4.5594,-4.5594,-4.5594,-4.5594,-4.5594,-4.5594,-4.5594,-4.5594,-4.6067,-5.6981,-5.7009,-5.7676,-5.9859,-6.0752,-6.1631,-6.3728,-6.4378,-6.5027,-6.6724,-6.7546,-6.8304,-6.9471,-7.021,-7.0678,-7.0718,-7.0772,-7.0815,-7.0815,-7.0679,-7.0571,-7.0571,-7.036,-7.0302,-7.0552,-7.0764,-7.0898,-7.0898,-7.0898,-7.0898,-7.0898,-7.0898,-7.0417,-6.9379,-6.8744,-6.7878,-6.6782,-6.6186,-6.5897,-6.5897,-6.5897,-6.5897,-6.5878,-6.5647,-6.5205,-6.4551,-6.3435,-6.2647,-6.2043,-6.1146,-6.08,-6.08,-6.08,-6.08,-6.08,-6.08,-6.0646,-6.0319,-5.9454,-5.8627,-5.78,-5.6926,-5.6637,-5.6522,-5.5876,-5.6126,-5.6464,-5.5607,-5.478,-5.4087,-5.3857,-5.378,-5.378,-5.378,-5.4607,-5.5376,-5.5376,-5.4049,-5.2654,-5.2019,-5.0856,-4.9856,-4.9471,-4.9913,-5.0423,-5.0654,-5.0712,-5.0712,-5.0712,-5.0712,-5.0712,-5.0712,-5.0712,-5.0712,-5.0712,-4.9894,-4.9029,-4.8163,-4.7327,-4.6509,-4.5633,-4.5594,-4.5594,-4.5594,-4.5594,-4.5594,-4.5594,-4.5594,-4.5594,-4.5594,-4.5594,-4.6067,-5.5833,-5.7111,-5.8855,-6.0103,-6.1612,-6.3064,-6.3981,-6.4802,-6.5883,-6.768,-6.8078,-6.8625,-7.0328,-7.0729,-7.0787,-7.0806,-7.0843,-7.0898,-7.0898,-7.0225,-6.9744,-6.9744,-6.8994,-6.8821,-6.9648,-7.0437,-7.0898,-7.0898,-7.0898,-7.0898,-7.0898,-7.0898,-7.0148,-6.8494,-6.8417,-6.7609,-6.5955,-6.5897,-6.5897,-6.5897,-6.5897,-6.5897,-6.5859,-6.5013,-6.4628,-6.4512,-6.2839,-6.212,-6.2043,-6.1146,-6.08,-6.08,-6.08,-6.08,-6.08,-6.08,-6.0262,-5.9415,-5.8627,-5.7761,-5.6907,-5.6011,-5.5742,-5.5722,-5.5703,-5.5722,-5.5568,-5.4761,-5.3914,-5.3049,-5.2192,-5.1981,-5.1981,-5.1981,-5.3299,-5.453,-5.453,-5.3164,-5.1923,-5.1904,-4.9885,-4.8432,-4.926,-4.9413,-4.9721,-5.0577,-5.0712,-5.0712,-5.0712,-5.0712,-5.0712,-5.0712,-5.0712,-5.0712,-5.0712,-4.9894,-4.9029,-4.8163,-4.7327,-4.6509,-4.5633,-4.5594,-4.5594,-4.5594,-4.5594,-4.5594,-4.5594,-4.5594,-4.5594,-4.5594,-4.5594,-4.6067,-5.7491,-5.8411,-5.9423,-6.0952,-6.2205,-6.3264,-6.4139,-6.492,-6.5824,-6.7046,-6.6776,-6.6861,-6.8699,-6.905,-6.927,-6.9903,-7.0511,-7.0898,-7.0898,-7.0667,-7.0302,-6.9763,-6.9436,-6.9379,-6.9667,-6.9937,-7.0321,-7.086,-7.0898,-7.0898,-7.0898,-7.0398,-6.959,-6.8442,-6.784,-6.7013,-6.5897,-6.5897,-6.5897,-6.5897,-6.5897,-6.5897,-6.5859,-6.4993,-6.4282,-6.3685,-6.257,-6.1774,-6.1204,-6.0916,-6.08,-6.08,-6.08,-6.08,-6.0723,-6.0146,-5.9415,-5.8665,-5.8396,-5.7723,-5.6868,-5.5972,-5.6088,-5.6445,-5.5876,-5.6088,-5.6387,-5.553,-5.428,-5.3126,-5.2837,-5.2327,-5.1904,-5.1904,-5.3241,-5.4491,-5.4491,-5.3126,-5.1731,-5.1202,-4.949,-4.8202,-4.849,-4.9029,-4.9702,-5.0577,-5.0712,-5.0712,-5.0712,-5.0712,-5.0712,-5.0712,-5.0712,-5.0712,-5.0712,-4.9375,-4.8413,-4.8125,-4.6797,-4.5913,-4.5614,-4.5594,-4.5594,-4.5594,-4.5594,-4.5594,-4.5594,-4.5594,-4.5594,-4.5614,-4.6182,-4.6913,-5.8916,-5.9519,-6.0163,-6.185,-6.2694,-6.3403,-6.4553,-6.5202,-6.5801,-6.6748,-6.6145,-6.5949,-6.7496,-6.7543,-6.7735,-6.8901,-6.9599,-7.0212,-7.078,-7.0635,-7.0283,-6.9763,-6.9436,-6.936,-6.9667,-6.9417,-6.959,-7.0417,-7.0744,-7.0648,-7.0033,-6.9821,-6.9167,-6.7975,-6.7378,-6.6705,-6.5897,-6.5897,-6.5897,-6.5897,-6.5897,-6.5743,-6.5416,-6.4532,-6.3666,-6.2839,-6.1993,-6.132,-6.08,-6.08,-6.08,-6.08,-6.08,-6.08,-6.0685,-5.9819,-5.8992,-5.8261,-5.7934,-5.7261,-5.6445,-5.5876,-5.6069,-5.6426,-5.5857,-5.6088,-5.6291,-5.5126,-5.426,-5.3453,-5.2549,-5.2337,-5.2212,-5.1606,-5.3029,-5.4414,-5.4107,-5.2914,-5.1654,-5.0866,-4.9067,-4.7759,-4.8048,-4.9086,-5.0048,-5.0616,-5.0712,-5.0712,-5.0712,-5.0712,-5.0712,-5.0712,-5.0712,-5.0712,-5.0712,-4.9106,-4.8105,-4.8105,-4.6528,-4.5594,-4.5594,-4.5594,-4.5594,-4.5594,-4.5594,-4.5594,-4.5594,-4.5594,-4.5768,-4.6086,-4.6644,-4.7509,-5.9994,-6.0453,-6.1058,-6.2598,-6.3039,-6.3518,-6.5109,-6.555,-6.5852,-6.674,-6.6143,-6.577,-6.674,-6.6293,-6.6318,-6.7937,-6.8381,-6.9064,-7.0589,-7.0203,-6.9744,-6.9706,-6.8975,-6.8802,-6.9629,-6.8956,-6.8821,-6.9648,-7.0379,-7.011,-6.8552,-6.9167,-6.8802,-6.7148,-6.7051,-6.6667,-6.5897,-6.5897,-6.5897,-6.5897,-6.584,-6.5397,-6.457,-6.3647,-6.282,-6.2062,-6.1166,-6.08,-6.08,-6.08,-6.08,-6.08,-6.08,-6.0762,-6.0627,-5.9762,-5.8934,-5.8107,-5.7253,-5.6387,-5.5703,-5.5703,-5.5703,-5.5703,-5.5703,-5.5703,-5.5357,-5.3741,-5.3837,-5.3876,-5.1404,-5.1914,-5.2664,-5.1077,-5.2606,-5.4184,-5.3318,-5.2481,-5.1654,-5.0866,-4.8702,-4.7259,-4.799,-4.9548,-5.0712,-5.0712,-5.0712,-5.0712,-5.0712,-5.0712,-5.0712,-5.0712,-5.0712,-5.0673,-5.0635,-4.9086,-4.8086,-4.8048,-4.649,-4.5594,-4.5594,-4.5594,-4.5594,-4.5594,-4.5594,-4.5594,-4.5594,-4.5594,-4.6047,-4.6904,-4.6942,-4.7836,-6.0756,-6.1158,-6.1656,-6.1445,-6.2329,-6.3354,-6.3796,-6.4852,-6.5824,-6.6062,-6.4797,-6.412,-6.5609,-6.58,-6.6282,-6.7923,-6.936,-7.0404,-7.0813,-7.0712,-7.0379,-6.9763,-6.9494,-6.9456,-6.9687,-6.9494,-6.9456,-6.9687,-6.9302,-6.9129,-6.936,-6.834,-6.7552,-6.7109,-6.6513,-6.6109,-6.5897,-6.5897,-6.5897,-6.5878,-6.5243,-6.482,-6.4551,-6.307,-6.2281,-6.2062,-6.1166,-6.08,-6.08,-6.08,-6.08,-6.08,-6.08,-6.0396,-5.9723,-5.8915,-5.8069,-5.7214,-5.6319,-5.5876,-5.5703,-5.5703,-5.5703,-5.5703,-5.5703,-5.5703,-5.5491,-5.4453,-5.3857,-5.3241,-5.1933,-5.1471,-5.1221,-5.0808,-5.2145,-5.3299,-5.2423,-5.2058,-5.1654,-5.0866,-4.9644,-4.8625,-4.8182,-4.9548,-5.0712,-5.0712,-5.0712,-5.0712,-5.0712,-5.0712,-5.0712,-5.0712,-5.0712,-5.0442,-4.9779,-4.874,-4.7836,-4.7231,-4.6201,-4.5594,-4.5594,-4.5594,-4.5594,-4.5594,-4.5594,-4.5594,-4.5594,-4.5594,-4.6047,-4.6904,-4.7509,-4.8375,-6.2031,-6.1993,-6.1985,-6.1493,-6.207,-6.2762,-6.2762,-6.3507,-6.4065,-6.3655,-6.2701,-6.2339,-6.3632,-6.4244,-6.5224,-6.7252,-6.8828,-7.0058,-7.0761,-7.0885,-7.0725,-7.0283,-7.0225,-7.0225,-7.0225,-6.9917,-6.986,-7.0206,-6.9456,-6.8859,-6.8571,-6.7628,-6.6936,-6.6571,-6.6128,-6.5897,-6.5897,-6.5897,-6.5897,-6.5878,-6.5013,-6.4397,-6.3993,-6.2685,-6.2101,-6.2062,-6.1166,-6.1012,-6.1351,-6.0954,-6.08,-6.08,-6.08,-6.0262,-5.9396,-5.8607,-5.7742,-5.6887,-5.5992,-5.5703,-5.5703,-5.5703,-5.5703,-5.5703,-5.5703,-5.5703,-5.5453,-5.426,-5.3857,-5.3395,-5.1798,-5.1298,-5.1144,-5.0789,-5.1683,-5.25,-5.2,-5.1904,-5.1538,-5.0356,-4.9433,-4.8798,-4.8682,-4.9163,-4.9817,-5.0577,-5.0366,-5.0269,-5.0654,-5.0712,-5.0712,-5.0712,-5.0712,-5.0346,-4.9471,-4.8606,-4.7759,-4.6942,-4.6086,-4.5594,-4.5594,-4.5594,-4.5594,-4.5594,-4.5594,-4.5787,-4.6163,-4.5787,-4.6432,-4.8009,-4.8067,-4.8779,-6.3346,-6.2878,-6.2409,-6.2293,-6.2274,-6.2235,-6.212,-6.2101,-6.1827,-6.0902,-6.0559,-6.0731,-6.177,-6.2577,-6.3932,-6.6557,-6.7864,-6.9088,-7.0604,-7.0857,-7.0898,-7.0898,-7.0898,-7.0898,-7.0898,-7.0264,-7.011,-7.0706,-6.9994,-6.8879,-6.734,-6.7051,-6.6609,-6.5917,-6.5897,-6.5897,-6.5897,-6.5897,-6.584,-6.5724,-6.4839,-6.3974,-6.3108,-6.23,-6.1928,-6.1889,-6.1127,-6.1223,-6.187,-6.1108,-6.08,-6.08,-6.08,-6.0204,-5.9261,-5.8569,-5.7684,-5.6714,-5.5953,-5.5703,-5.5703,-5.5703,-5.5703,-5.5703,-5.5703,-5.5703,-5.5338,-5.3664,-5.3741,-5.376,-5.1327,-5.1221,-5.1568,-5.0866,-5.1395,-5.2,-5.1788,-5.1731,-5.1279,-4.9702,-4.8798,-4.8509,-4.926,-4.8779,-4.8817,-5.0462,-5.0048,-4.9856,-5.0596,-5.0712,-5.0712,-5.0712,-5.0596,-5.0231,-4.9452,-4.8509,-4.7644,-4.6942,-4.6086,-4.5594,-4.5594,-4.5594,-4.5594,-4.5594,-4.5594,-4.6028,-4.6904,-4.6028,-4.6922,-4.9375,-4.8509,-4.9029,-6.3685,-6.3724,-6.3993,-6.3281,-6.3089,-6.2916,-6.2255,-6.2101,-6.1827,-6.0889,-6.0079,-6.0176,-6.2393,-6.2924,-6.4101,-6.7434,-6.8766,-6.9753,-7.0736,-7.0885,-7.0898,-7.0898,-7.0898,-7.0898,-7.0898,-7.0764,-7.0475,-6.9956,-6.9109,-6.8494,-6.8186,-6.6859,-6.6032,-6.5897,-6.5897,-6.5897,-6.5897,-6.5897,-6.5532,-6.4801,-6.3935,-6.3108,-6.2281,-6.1416,-6.1031,-6.1012,-6.0858,-6.0877,-6.1012,-6.0858,-6.08,-6.08,-6.08,-5.9858,-5.8492,-5.8357,-5.728,-5.5895,-5.5742,-5.5703,-5.5703,-5.5703,-5.5703,-5.5703,-5.5703,-5.5703,-5.5338,-5.3664,-5.3318,-5.301,-5.1174,-5.0808,-5.0856,-5.0731,-5.1856,-5.2587,-5.1202,-5.0914,-5.0606,-4.9606,-4.9279,-4.9221,-4.9375,-4.926,-4.951,-5.0558,-5.0577,-5.0539,-5.0673,-5.0712,-5.0712,-5.0712,-5.0048,-4.9548,-4.9413,-4.799,-4.7038,-4.6904,-4.6086,-4.5594,-4.5594,-4.5594,-4.5594,-4.5594,-4.5594,-4.6028,-4.6904,-4.6028,-4.6922,-4.9375,-4.8509,-4.9029,-6.4339,-6.4282,-6.4397,-6.3531,-6.3288,-6.2858,-6.1146,-6.0742,-6.0365,-5.9007,-5.8357,-5.8673,-6.0705,-6.146,-6.263,-6.5183,-6.6402,-6.7608,-6.9346,-6.961,-6.9917,-7.0802,-7.0898,-7.0898,-7.0898,-7.0898,-7.0571,-6.9763,-6.8898,-6.8205,-6.7744,-6.6551,-6.5897,-6.5897,-6.5897,-6.5897,-6.5897,-6.5455,-6.5013,-6.4589,-6.3281,-6.2474,-6.2082,-6.1204,-6.105,-6.1447,-6.0993,-6.105,-6.1435,-6.0993,-6.08,-6.0742,-6.03,-5.9377,-5.8261,-5.778,-5.6799,-5.5703,-5.5703,-5.5703,-5.5703,-5.5703,-5.5703,-5.5703,-5.5703,-5.5703,-5.5338,-5.3664,-5.3203,-5.2818,-5.1135,-5.0712,-5.0712,-5.0712,-5.1298,-5.1683,-5.0866,-5.0712,-5.0577,-5.0164,-4.9336,-4.9009,-4.9913,-4.8971,-4.8548,-4.9817,-4.9644,-4.951,-4.9971,-5.001,-5.0212,-5.0654,-5.0327,-4.9894,-4.9433,-4.8259,-4.7355,-4.6923,-4.6086,-4.5594,-4.5594,-4.5594,-4.5806,-4.6278,-4.6278,-4.6913,-4.8202,-4.7336,-4.7914,-4.9799,-4.9096,-4.9375,-6.5013,-6.4878,-6.4705,-6.4032,-6.3724,-6.2916,-6.0358,-5.9627,-5.9019,-5.7282,-5.6913,-5.7397,-5.9006,-5.9906,-6.1018,-6.2894,-6.3828,-6.5269,-6.8,-6.8385,-6.9033,-7.0706,-7.0898,-7.0898,-7.0898,-7.0898,-7.0494,-6.9494,-6.8456,-6.7571,-6.6878,-6.6244,-6.5897,-6.5897,-6.5897,-6.5897,-6.5897,-6.5032,-6.4512,-6.4301,-6.2801,-6.2005,-6.1812,-6.1108,-6.1166,-6.1793,-6.1089,-6.1185,-6.1774,-6.1069,-6.0685,-6.0454,-5.9762,-5.8896,-5.7934,-5.7253,-5.6445,-5.5703,-5.5703,-5.5703,-5.5703,-5.5703,-5.5703,-5.5703,-5.5703,-5.5703,-5.5338,-5.3664,-5.3203,-5.2818,-5.1135,-5.0712,-5.075,-5.0914,-5.0827,-5.075,-5.0914,-5.0827,-5.0712,-5.0712,-4.9298,-4.8586,-5.0144,-4.8452,-4.7413,-4.8894,-4.8548,-4.8355,-4.9029,-4.9279,-4.9663,-5.0346,-5.0423,-5.0231,-4.9721,-4.8702,-4.7913,-4.7471,-4.6451,-4.596,-4.6133,-4.597,-4.6278,-4.7135,-4.7154,-4.7894,-4.9394,-4.8529,-4.8815,-5.0187,-4.9661,-4.9658,-6.559,-6.5782,-6.5763,-6.5686,-6.507,-6.382,-6.1262,-6.0069,-5.9011,-5.7338,-5.6947,-5.7401,-5.9086,-5.9414,-6.0265,-6.2785,-6.3271,-6.4526,-6.7923,-6.8385,-6.9033,-7.0706,-7.0898,-7.0898,-7.0898,-7.0898,-7.0244,-6.8648,-6.7032,-6.609,-6.6013,-6.5936,-6.5897,-6.5897,-6.5897,-6.5897,-6.5897,-6.5032,-6.4205,-6.3404,-6.2512,-6.1697,-6.0916,-6.0839,-6.0839,-6.0916,-6.0819,-6.0839,-6.0916,-6.0819,-6.0319,-5.9608,-5.9531,-5.8511,-5.7118,-5.7041,-5.6445,-5.5703,-5.5703,-5.5703,-5.5703,-5.5703,-5.5703,-5.5703,-5.5703,-5.5703,-5.5338,-5.3664,-5.3203,-5.2818,-5.1135,-5.0712,-5.0875,-5.1625,-5.1221,-5.0894,-5.1615,-5.1221,-5.0712,-5.0712,-4.9298,-4.8394,-4.9356,-4.8067,-4.7192,-4.8086,-4.8144,-4.8125,-4.8221,-4.8913,-4.9433,-4.951,-4.951,-4.9798,-5.0519,-4.9067,-4.8413,-4.9125,-4.7663,-4.7105,-4.7836,-4.7182,-4.7163,-4.7971,-4.799,-4.8471,-4.9394,-4.8529,-4.8815,-5.0187,-4.9661,-4.9554,-6.5513,-6.5897,-6.5897,-6.5897,-6.5628,-6.457,-6.1493,-6.0531,-5.9665,-5.7445,-5.6981,-5.7324,-5.8523,-5.8711,-5.9211,-6.0714,-6.0976,-6.2168,-6.5615,-6.6109,-6.7128,-6.986,-7.0187,-7.0379,-7.0841,-7.0456,-6.9475,-6.7744,-6.6551,-6.5897,-6.5897,-6.5897,-6.5897,-6.5897,-6.5897,-6.5647,-6.5128,-6.4262,-6.3397,-6.257,-6.1723,-6.1127,-6.08,-6.08,-6.1089,-6.155,-6.1031,-6.1089,-6.1543,-6.1012,-6.0281,-5.9454,-5.8973,-5.805,-5.6945,-5.6406,-5.5992,-5.5703,-5.5703,-5.5703,-5.5703,-5.5703,-5.5703,-5.5703,-5.5703,-5.5357,-5.4722,-5.3549,-5.2818,-5.2145,-5.0991,-5.0712,-5.0789,-5.1106,-5.0933,-5.0789,-5.1106,-5.051,-4.9913,-4.9913,-4.8548,-4.7644,-4.8471,-4.7663,-4.7,-4.7336,-4.7394,-4.7394,-4.7394,-4.8105,-4.8817,-4.9336,-4.9875,-5.0327,-5.0673,-4.9586,-4.9029,-4.9375,-4.8279,-4.7778,-4.8086,-4.7798,-4.8029,-4.8875,-4.8875,-4.9317,-5.0183,-4.963,-4.9568,-4.9955,-4.9732,-4.96,-6.5359,-6.5897,-6.5955,-6.6205,-6.5686,-6.4436,-6.1781,-6.0589,-5.9473,-5.7426,-5.7214,-5.7569,-5.8184,-5.83,-5.8492,-5.905,-5.9338,-6.0531,-6.3455,-6.4282,-6.559,-6.8263,-6.8783,-6.9148,-6.9725,-6.9263,-6.8417,-6.7186,-6.634,-6.5897,-6.5897,-6.5897,-6.5897,-6.5897,-6.5647,-6.5224,-6.4609,-6.3493,-6.2666,-6.2101,-6.1235,-6.08,-6.08,-6.1069,-6.1524,-6.2082,-6.1447,-6.1389,-6.1658,-6.0762,-5.9762,-5.8704,-5.8146,-5.7376,-5.6541,-5.5934,-5.5703,-5.5703,-5.5703,-5.5703,-5.5703,-5.5703,-5.5703,-5.5665,-5.5415,-5.4953,-5.4318,-5.3453,-5.2395,-5.1414,-5.0846,-5.0712,-5.0712,-5.0712,-5.0712,-5.0712,-5.0712,-5.001,-4.9394,-4.9394,-4.8048,-4.7077,-4.7663,-4.7067,-4.6528,-4.6528,-4.6528,-4.6528,-4.6528,-4.724,-4.799,-4.8606,-4.9413,-5.0144,-5.0654,-5.0144,-4.9779,-4.9779,-4.8971,-4.8606,-4.8856,-4.8625,-4.8894,-4.976,-4.9779,-5.0038,-5.0554,-5.0325,-5.0006,-4.9679,-4.9762,-4.9655,-6.5205,-6.5897,-6.609,-6.6878,-6.5186,-6.3108,-6.2293,-6.0146,-5.8069,-5.7176,-5.7684,-5.83,-5.83,-5.83,-5.83,-5.8319,-5.8973,-6.0108,-6.1889,-6.3551,-6.4936,-6.582,-6.6628,-6.7128,-6.7128,-6.7128,-6.7109,-6.709,-6.634,-6.5897,-6.5897,-6.5897,-6.5897,-6.5897,-6.5051,-6.4609,-6.4609,-6.2935,-6.212,-6.2101,-6.1235,-6.08,-6.0819,-6.1697,-6.2101,-6.2101,-6.2101,-6.1601,-6.0742,-5.9877,-5.8531,-5.7041,-5.7022,-5.6483,-5.5703,-5.5703,-5.5703,-5.5703,-5.5703,-5.5703,-5.5703,-5.5703,-5.5703,-5.5549,-5.4741,-5.4511,-5.4318,-5.3453,-5.1991,-5.0712,-5.0712,-5.0712,-5.0712,-5.0712,-5.0712,-5.0712,-5.0712,-5.001,-4.9394,-4.9394,-4.8048,-4.6904,-4.6904,-4.6182,-4.5614,-4.5614,-4.5614,-4.5614,-4.5614,-4.6374,-4.6923,-4.6923,-4.7663,-4.8836,-5.0558,-5.0693,-5.0693,-5.0693,-4.9875,-4.976,-5.0635,-4.9837,-4.9798,-5.0673,-5.0693,-5.0525,-5.0206,-5.0206,-4.9936,-4.9396,-4.9684,-4.9655,-6.2043,-6.2839,-6.3217,-6.2878,-6.2185,-6.1223,-5.9819,-5.8877,-5.7877,-5.6415,-5.728,-5.83,-5.83,-5.9242,-6.0204,-6.08,-6.1108,-6.1647,-6.2762,-6.3897,-6.4916,-6.5801,-6.7148,-6.7744,-6.7148,-6.709,-6.6859,-6.632,-6.6032,-6.5897,-6.5897,-6.5897,-6.5897,-6.5897,-6.5051,-6.432,-6.3724,-6.2627,-6.1812,-6.1235,-6.1543,-6.1697,-6.1716,-6.2531,-6.2916,-6.2858,-6.1704,-6.105,-6.0685,-5.9281,-5.8011,-5.7003,-5.7003,-5.6483,-5.5761,-5.6368,-5.6599,-5.6599,-5.6599,-5.6599,-5.6503,-5.5876,-5.5703,-5.5549,-5.4741,-5.4087,-5.3318,-5.1895,-5.1116,-5.0712,-5.0712,-5.0712,-5.0712,-5.0712,-5.1125,-5.1375,-5.0827,-5.001,-4.9221,-4.8625,-4.7163,-4.6009,-4.6009,-4.5787,-4.5594,-4.5594,-4.5594,-4.5594,-4.5594,-4.6355,-4.6904,-4.6904,-4.7625,-4.8567,-4.9702,-4.9798,-5.0067,-5.0654,-5.0442,-5.0423,-5.0693,-5.0442,-5.0423,-5.0693,-5.0712,-5.0544,-5.0195,-5.0025,-4.9637,-4.9061,-4.9158,-4.9141,-6.0419,-6.1204,-6.1562,-6.1351,-6.0569,-5.9665,-5.8915,-5.8261,-5.7492,-5.6395,-5.755,-5.8665,-5.8357,-5.9396,-6.0281,-6.0196,-6.0985,-6.155,-6.1435,-6.2704,-6.3974,-6.482,-6.584,-6.6532,-6.6628,-6.6647,-6.6436,-6.5936,-6.5897,-6.5897,-6.5897,-6.5897,-6.5897,-6.5897,-6.5051,-6.4339,-6.3801,-6.2974,-6.2281,-6.1743,-6.2281,-6.2551,-6.257,-6.307,-6.3128,-6.2762,-6.1396,-6.0435,0.0,-5.8377,-5.73,-5.6522,-5.6522,-5.6387,-5.6272,-5.681,-5.7214,-5.7492,-5.7492,-5.7291,-5.6907,-5.6368,-5.553,-5.4607,-5.378,-5.3145,-5.2433,-5.1068,-5.0712,-5.0712,-5.0712,-5.0712,-5.0712,-5.0712,-5.1318,-5.1673,-5.0856,-5.001,-4.9144,-4.8279,-4.674,-4.5594,-4.5594,-4.5594,-4.5594,-4.5594,-4.5594,-4.5594,-4.5594,-4.6067,-4.6413,-4.6413,-4.6855,-4.7509,-4.8375,-4.9048,-4.9625,-5.0192,-5.0519,-5.0712,-5.0712,-5.0712,-5.0634,-5.0504,-5.0504,-5.0302,-4.9897,-4.9589,-4.9265,-4.8909,-4.8909,-4.8909,0.0,-6.0531,-6.0704,-6.1466,-5.9915,-5.8396,-5.9146,-5.8165,0.0,-5.7099,-5.8319,-5.9184,-5.8434,-5.8915,-5.8915,-5.7426,-5.9223,-6.0223,-5.8607,-6.0531,-6.2435,-6.3378,-6.3481,-6.4128,-6.5743,-6.5897,-6.5897,-6.5897,-6.5897,-6.5897,-6.5897,-6.5897,-6.5897,-6.5897,-6.5109,-6.4666,-6.4609,-6.3743,-6.3288,-6.3288,-6.3346,-6.3339,-6.3224,-6.3281,-6.2801,-6.187,-6.0993,-5.9704,-5.8146,-5.7261,-5.6426,-5.5703,-5.5761,-5.6291,-5.7003,-5.7137,-5.7684,-5.8377,-5.8319,-5.7761,-5.706,-5.6887,-5.5145,-5.2972,-5.2154,-5.1865,-5.1654,-5.0914,-5.0712,-5.0712,-5.0712,-5.0712,-5.0712,-5.0712,-5.1356,-5.1731,-5.0798,-5.001,-4.9202,-4.8221,-4.6701,-4.5594,-4.5594,-4.5594,-4.5594,-4.5594,-4.5594,-4.5594,-4.5594,-4.5594,-4.5594,-4.5594,-4.5594,-4.5932,-4.674,-4.8298,-4.926,-4.9394,-5.0164,-5.0625,-5.0663,-5.0663,-5.0504,-5.0183,-5.0159,-4.9897,-4.9399,-4.9061,-4.8909,-4.8909,-4.8909,-4.8909,-5.7645,0.0,-5.7791,-5.7319,-5.7272,-5.7368,0.0,-5.78,-5.7992,-5.7992,-5.8319,-5.8531,-5.8338,-5.8454,-5.8646,-5.8877,-5.9973,-6.0435,-5.9377,-6.0877,-6.289,-6.5032,-6.5282,-6.5455,-6.5859,-6.5897,-6.5897,-6.5897,-6.5897,-6.5897,-6.5897,-6.5897,-6.5897,-6.5897,-6.5705,-6.5263,-6.4609,-6.3743,-6.3288,-6.3308,-6.3974,-6.3628,-6.2397,-6.3031,-6.2127,-6.0069,-5.9242,-5.828,-5.7253,-5.6357,-5.5876,-5.5761,-5.6426,-5.683,-5.7157,-5.8434,-5.9031,-5.9127,-5.8511,-5.8165,-5.7665,-5.5722,-5.378,-5.2173,-5.1962,-5.1471,-5.0933,-5.075,-5.0712,-5.0712,-5.0712,-5.0712,-5.0712,-5.0712,-5.1818,-5.2318,-5.0164,-5.0067,-4.976,-4.7605,-4.6336,-4.5594,-4.5594,-4.5594,-4.5594,-4.5594,-4.5594,-4.5594,-4.5594,-4.5594,-4.5594,-4.5594,-4.5594,-4.5691,-4.5893,-4.6874,-4.8029,-4.9317,-4.9586,-4.9902,-5.0298,-5.0325,-5.0171,-4.9891,-4.9698,-4.9514,-4.9399,-4.9061,-4.8909,-4.8909,-4.8909,-4.8909,-5.7032,-5.7076,-5.6983,-5.6915,-5.7242,-5.7492,-5.7099,-5.7665,-5.8184,-5.778,-5.803,-5.8184,-5.778,-5.803,-5.8184,-5.7819,-5.8819,-5.9762,-6.005,-6.1243,-6.2909,-6.5051,-6.5301,-6.5455,-6.5859,-6.5897,-6.5897,-6.5897,-6.5897,-6.5897,-6.5897,-6.5897,-6.5897,-6.5897,-6.5897,-6.5667,-6.5205,-6.4724,-6.4493,-6.4493,-6.4166,-6.3531,-6.2627,-6.1897,-6.0608,-5.8896,-5.8069,-5.7203,-5.6406,-5.6329,-5.631,-5.6387,-5.7261,-5.7819,-5.8261,-5.9165,-5.9742,-5.9973,-5.9146,-5.8088,-5.6684,-5.4145,-5.2673,-5.1827,-5.1471,-5.1048,-5.0712,-5.0712,-5.0712,-5.0712,-5.0712,-5.0712,-5.0712,-5.0712,-5.1395,-5.1683,-5.0279,-4.974,-4.9106,-4.7721,-4.6451,-4.5594,-4.5594,-4.5594,-4.5594,-4.5594,-4.5932,-4.6047,-4.5652,-4.5951,-4.6028,-4.5633,-4.5594,-4.5559,-4.5429,-4.586,-4.6897,-4.8692,-4.9066,-4.9507,-5.0168,-5.0068,-4.9897,-4.9627,-4.9315,-4.9176,-4.9176,-4.8976,-4.8909,-4.8909,-4.8909,-4.8909,-5.7525,-5.7503,-5.7525,-5.7992,-5.8204,-5.8069,-5.7214,-5.7665,-5.8088,-5.7349,-5.7684,-5.7877,-5.7137,-5.7492,-5.7511,-5.628,-5.755,-5.9319,-6.1127,-6.1897,-6.2897,-6.4609,-6.4801,-6.5089,-6.582,-6.5897,-6.5897,-6.5897,-6.5897,-6.5897,-6.5897,-6.5897,-6.5897,-6.5897,-6.5763,-6.5628,-6.5493,-6.5493,-6.5436,-6.5301,-6.3685,-6.2781,-6.2462,-6.03,-5.88,-5.7877,-5.7261,-5.6579,-5.5972,-5.6849,-5.7214,-5.7291,-5.8146,-5.8896,-5.9511,-5.9646,-6.0089,-6.0435,-5.9319,-5.7338,-5.4934,-5.2654,-5.1808,-5.1587,-5.0914,-5.0663,-5.0624,-5.0683,-5.0712,-5.0683,-5.0653,-5.0663,-5.0712,-5.0727,-5.0757,-5.0739,-5.0563,-4.9286,-4.8125,-4.8049,-4.6743,-4.5716,-4.5887,-4.5792,-4.5658,-4.5714,-4.6252,-4.6396,-4.5682,-4.6213,-4.6367,-4.5627,-4.5495,-4.5362,-4.5129,-4.5107,-4.5861,-4.7635,-4.8264,-4.896,-4.9839,-4.9754,-4.9569,-4.9337,-4.9044,-4.8909,-4.8909,-4.8909,-4.8909,-4.8909,-4.8909,-4.8909,-5.9003,-5.9349,-5.895,-5.7544,-5.7742,-5.8069,-5.7214,-5.7665,-5.8261,-5.8127,-5.7607,-5.7157,-5.7022,-5.6522,-5.6492,-5.7703,-5.9319,-6.1262,-6.3685,-6.3493,-6.3762,-6.5493,-6.5705,-6.5743,-6.5878,-6.5897,-6.5897,-6.5897,-6.5897,-6.5897,-6.5897,-6.5897,-6.5897,-6.5897,-6.5186,-6.4455,-6.3724,-6.3705,-6.3358,-6.2678,-6.1647,-6.0435,-5.905,-5.8665,-5.7607,-5.6126,-5.6753,-5.6926,-5.6868,-5.7742,-5.8107,-5.8184,-5.8992,-5.9396,-5.9588,-6.0319,-6.0223,-5.9377,-5.7069,-5.5107,-5.3395,-5.2269,-5.1433,-5.0856,-5.075,-5.0504,-5.0347,-5.0614,-5.0712,-5.0624,-5.0347,-5.0493,-5.0736,-5.0842,-5.104,-5.0944,-4.9971,-4.9015,-4.8238,-4.7837,-4.6778,-4.6259,-4.7218,-4.6576,-4.6031,-4.6233,-4.5816,-4.5495,-4.5587,-4.5525,-4.5406,-4.5272,-4.5007,-4.4812,-4.4776,-4.4726,-4.5105,-4.6089,-4.6392,-4.7124,-4.8376,-4.883,-4.9027,-4.8995,-4.8926,-4.8909,-4.8909,-4.8909,-4.8909,-4.8909,-4.8909,-4.8909,-5.82,-5.8723,-5.8953,-5.8511,-5.9056,-5.9229,-5.7407,-5.7665,-5.803,-5.7088,-5.6569,-5.631,-5.631,-5.6742,-5.7665,-5.9377,-6.0685,-6.205,-6.3666,-6.3955,-6.4474,-6.5743,-6.5897,-6.5897,-6.5897,-6.5897,-6.5897,-6.5897,-6.5897,-6.5686,-6.5224,-6.5205,-6.4974,-6.4512,-6.3685,-6.282,-6.1954,-6.1493,-6.13,-6.1377,-6.0069,-5.905,-5.828,-5.7319,-5.6453,-5.5742,-5.6618,-5.7003,-5.7099,-5.8415,-5.8954,-5.8992,-5.9358,-5.9492,-5.9492,-5.9454,-5.8607,-5.7223,-5.5607,-5.3933,-5.2346,-5.1529,-5.0991,-5.0712,-5.0712,-5.0472,-5.023,-5.0399,-5.0432,-5.038,-5.023,-5.0306,-5.0512,-5.0832,-5.0288,-4.9838,-5.0208,-4.8928,-4.7653,-4.7516,-4.7062,-4.6714,-4.6775,-4.636,-4.6045,-4.6166,-4.5898,-4.5555,-4.5216,-4.5464,-4.5479,-4.4976,-4.4788,-4.4643,-4.4443,-4.4402,-4.4726,-4.5533,-4.6107,-4.664,-4.7101,-4.7811,-4.8208,-4.8208,-4.8616,-4.8857,-4.8857,-4.8857,-4.8856,-4.8909,-4.8909,-4.8909,-5.7501,-5.8017,-5.8655,-5.9181,-5.9824,-5.9868,-5.8264,-5.8088,-5.7973,-5.6819,-5.628,-5.5992,-5.5992,-5.7588,-5.9319,-6.0589,-6.2043,-6.3205,-6.382,-6.4474,-6.5147,-6.582,-6.5897,-6.5897,-6.5897,-6.5897,-6.582,-6.5609,-6.559,-6.5224,-6.4339,-6.4301,-6.3897,-6.3051,-6.2416,-6.1581,-6.0512,-5.9838,-5.9742,-6.0204,-5.8704,-5.7992,-5.7953,-5.6607,-5.5992,-5.6049,-5.7137,-5.7599,-5.7715,-5.9184,-5.98,-5.9781,-5.9588,-5.9377,-5.9127,-5.83,-5.7011,-5.5549,-5.4549,-5.3203,-5.1769,-5.0952,-5.0712,-5.0721,-5.0854,-5.0519,-5.0149,-5.034,-5.0215,-5.0012,-5.0012,-5.0062,-5.0247,-5.0817,-4.9872,-4.928,-5.088,-4.9401,-4.7791,-4.8026,-4.7852,-4.7414,-4.6628,-4.6286,-4.6083,-4.5942,-4.5792,-4.5477,-4.4883,-4.5306,-4.5394,-4.4687,-4.4506,-4.4327,-4.4057,-4.4045,-4.4305,-4.492,-4.5988,-4.6501,-4.6288,-4.7138,-4.7583,-4.7565,-4.8379,-4.8694,-4.8473,-4.8658,-4.8804,-4.8874,-4.8874,-4.8891,-5.8299,-5.8546,-5.8576,-5.851,-5.8496,-5.8847,-6.0196,-5.9377,-5.8492,-5.9108,-5.7992,-5.6907,-5.6907,-5.8934,-6.0666,-6.0781,-6.3512,-6.5647,-6.5705,-6.5763,-6.582,-6.5878,-6.5897,-6.5897,-6.5897,-6.5897,-6.5551,-6.4743,-6.4686,-6.432,-6.3455,-6.3397,-6.3012,-6.2216,-6.2139,-6.1281,-5.9608,-5.9531,-5.9165,-5.8473,-5.753,-5.7099,-5.7099,-5.6964,-5.6907,-5.7003,-5.8627,-5.9319,-5.9396,-6.0319,-6.0704,-6.0627,-5.9819,-5.905,-5.828,-5.7407,-5.6503,-5.5472,-5.3857,-5.2673,-5.1769,-5.0952,-5.0712,-5.0788,-5.1289,-5.0685,-4.9982,-5.0727,-5.0226,-4.9457,-4.9457,-4.9641,-5.0048,-5.0896,-5.0615,-5.0547,-5.1899,-5.0823,-4.9766,-5.0255,-4.9513,-4.8613,-4.8052,-4.7118,-4.628,-4.5721,-4.5007,-4.4595,-4.4782,-4.4576,-4.4388,-4.4351,-4.3934,-4.3631,-4.3565,-4.3548,-4.3584,-4.3621,-4.5267,-4.6221,-4.6222,-4.7104,-4.7548,-4.7423,-4.8325,-4.8362,-4.7497,-4.8254,-4.8678,-4.8804,-4.8804,-4.884,-5.6919,-5.6979,-5.7348,-5.8896,-5.8848,-5.8701,-5.9757,-6.0339,-6.0435,-5.9665,-5.8992,-5.855,-5.855,-5.9338,-6.0339,-6.1416,-6.3108,-6.4282,-6.4282,-6.4282,-6.4282,-6.4282,-6.4282,-6.4282,-6.4282,-6.4282,-6.4147,-6.382,-6.3801,-6.3435,-6.2589,-6.2551,-6.2166,-6.132,-6.0762,-6.0165,-5.9511,-5.9492,-5.9358,-5.905,-5.8204,-5.7819,-5.7819,-5.7819,-5.7819,-5.7877,-5.9011,-5.9492,-5.9531,-5.9858,-5.9992,-5.9858,-5.8473,-5.7434,-5.6588,-5.5742,-5.4895,-5.3972,-5.2788,-5.1856,-5.1106,-5.0808,-5.0554,-5.0416,-5.0619,-5.0163,-4.9615,-4.992,-4.9559,-4.9144,-4.9352,-4.9849,-5.0441,-5.1027,-5.0972,-5.1084,-5.2137,-5.1432,-5.0565,-5.0387,-4.9537,-4.8614,-4.7913,-4.6603,-4.5551,-4.5326,-4.5025,-4.4867,-4.4954,-4.527,-4.5479,-4.5412,-4.4733,-4.4285,-4.425,-4.3791,-4.3699,-4.4213,-4.4412,-4.4757,-4.5325,-4.6223,-4.6924,-4.7334,-4.8236,-4.8476,-4.809,-4.8439,-4.8642,-4.8678,-4.8769,-4.8768,-5.6112,-5.6035,-5.6478,-5.8472,-5.8945,-5.9109,-5.9813,-6.0885,-6.1439,-6.0523,-5.9877,-5.9415,-5.9165,-5.955,-6.03,-6.1493,-6.2608,-6.3288,-6.3288,-6.3288,-6.3288,-6.3288,-6.3288,-6.3288,-6.3288,-6.3288,-6.3185,-6.2935,-6.2916,-6.2551,-6.1723,-6.1697,-6.1281,-6.0416,-6.0089,-5.9781,-5.9492,-5.9762,-5.9915,-5.9896,-5.9358,-5.8954,-5.8684,-5.8684,-5.8684,-5.8723,-5.955,-5.9915,-5.9896,-5.9608,-5.9184,-5.8588,-5.7445,-5.6483,-5.5588,-5.4799,-5.3953,-5.3087,-5.2192,-5.1375,-5.0731,-5.091,-5.0599,-5.0267,-5.0596,-5.0081,-4.9421,-4.9573,-4.9469,-4.9332,-4.955,-5.0027,-5.0619,-5.1417,-5.1526,-5.1747,-5.2619,-5.2341,-5.173,-5.1083,-5.0193,-4.9213,-4.8157,-4.6788,-4.5736,-4.5495,-4.5458,-4.5458,-4.5458,-4.5872,-4.6136,-4.6047,-4.546,-4.4984,-4.4709,-4.4195,-4.4103,-4.4654,-4.4176,-4.4377,-4.5496,-4.5934,-4.6504,-4.7224,-4.8108,-4.8403,-4.807,-4.8347,-4.8532,-4.8569,-4.8661,-4.866,-5.6212,-5.6102,-5.6188,-5.7013,-5.8501,-5.9997,-6.0815,-6.0974,-6.115,-6.1939,-6.0704,-5.9261,-5.8473,-5.9665,-6.0781,-6.0781,-6.2185,-6.3269,-6.3269,-6.3269,-6.3269,-6.3269,-6.3269,-6.3269,-6.3269,-6.3269,-6.2954,-6.2159,-6.2101,-6.1716,-6.0839,-6.08,-6.0396,-5.955,-6.0339,-6.0396,-5.9511,-6.0358,-6.08,-6.08,-6.08,-6.0339,-5.9511,-5.9511,-5.9511,-5.9569,-6.0435,-6.08,-6.0723,-5.9858,-5.8492,-5.6983,-5.6983,-5.6464,-5.5588,-5.478,-5.3933,-5.3068,-5.2192,-5.1356,-5.0778,-5.1316,-5.0909,-5.0392,-5.1468,-5.0678,-4.9524,-4.9981,-5.0116,-5.0116,-5.0135,-5.0135,-5.0507,-5.2028,-5.2416,-5.2657,-5.349,-5.3714,-5.3474,-5.2735,-5.1825,-5.0657,-4.9046,-4.7994,-4.711,-4.6317,-4.6188,-4.6207,-4.6207,-4.6173,-4.6065,-4.5938,-4.592,-4.559,-4.4783,-4.4709,-4.4709,-4.4709,-4.4727,-4.5406,-4.7039,-4.6452,-4.6415,-4.7094,-4.8033,-4.8052,-4.7113,-4.7901,-4.8363,-4.8513,-4.8513,-4.8532,-5.6236,-5.6161,-5.6466,-5.7848,-5.8566,-5.9302,-6.0683,-6.1895,-6.2612,-6.219,-6.0719,-5.9435,-5.9184,-5.955,-5.9896,-5.9896,-6.0819,-6.1531,-6.1531,-6.1531,-6.1531,-6.1531,-6.1531,-6.1531,-6.1531,-6.1531,-6.1435,-6.1204,-6.1185,-6.1069,-6.08,-6.08,-6.0685,-6.0416,-6.0666,-6.0685,-6.0416,-6.0666,-6.08,-6.08,-6.08,-6.0666,-6.0416,-6.0416,-6.0416,-6.0435,-6.0685,-6.08,-6.0685,-5.9242,-5.7646,-5.6088,-5.6088,-5.5934,-5.553,-5.4107,-5.3414,-5.2991,-5.1548,-5.0755,-5.0489,-5.1257,-5.1038,-5.0658,-5.1531,-5.1338,-5.0852,-5.0988,-5.1008,-5.1138,-5.1714,-5.1862,-5.1955,-5.2438,-5.2937,-5.3232,-5.2975,-5.3326,-5.3307,-5.2011,-5.0491,-4.9104,-4.7994,-4.6576,-4.5492,-4.5252,-4.6211,-4.715,-4.761,-4.7665,-4.7628,-4.759,-4.7095,-4.6636,-4.6415,-4.5883,-4.5792,-4.6342,-4.5315,-4.5406,-4.7039,-4.7004,-4.7261,-4.7939,-4.8309,-4.8328,-4.7938,-4.8271,-4.8401,-4.8363,-4.8457,-4.8457,-5.6806,-5.6976,-5.7423,-5.8366,-5.8855,-5.9445,-6.0751,-6.1781,-6.2304,-6.1739,-6.0769,-6.0012,-6.0012,-6.0012,-6.0012,-6.0012,-6.0454,-6.08,-6.08,-6.08,-6.08,-6.08,-6.08,-6.08,-6.08,-6.08,-6.08,-6.08,-6.08,-6.08,-6.08,-6.08,-6.08,-6.08,-6.08,-6.08,-6.08,-6.08,-6.0615,-6.0246,-6.0269,-6.0096,-5.9784,-6.0481,-6.08,-6.0781,-6.0435,-5.9915,-5.9184,-5.7838,-5.6261,-5.4703,-5.4703,-5.4703,-5.4549,-5.3183,-5.2673,-5.2549,-5.1529,-5.0971,-5.0897,-5.1948,-5.1745,-5.1225,-5.1918,-5.1764,-5.1398,-5.1398,-5.1639,-5.1992,-5.2475,-5.2605,-5.2679,-5.2995,-5.3161,-5.3142,-5.2698,-5.2697,-5.2512,-5.1565,-4.9917,-4.8494,-4.7959,-4.6413,-4.5239,-4.5239,-4.636,-4.7371,-4.7774,-4.8104,-4.8306,-4.8306,-4.7571,-4.6966,-4.6636,-4.5902,-4.5645,-4.6122,-4.5241,-4.5278,-4.6562,-4.6691,-4.693,-4.7352,-4.8051,-4.8069,-4.7352,-4.8069,-4.8216,-4.7828,-4.8235,-4.8382,-5.7627,-5.8153,-5.8713,-5.874,-5.9376,-6.019,-6.0925,-6.1,-6.0903,-6.0922,-6.0858,-6.0812,-6.08,-6.08,-6.08,-6.08,-6.08,-6.08,-6.08,-6.08,-6.08,-6.08,-6.08,-6.08,-6.08,-6.08,-6.08,-6.08,-6.08,-6.08,-6.08,-6.08,-6.08,-6.08,-6.08,-6.0762,-6.0685,-6.0685,-6.0219,-5.9283,-5.9361,-5.8977,-5.8246,-5.9854,-6.0569,-6.0531,-5.9819,-5.8492,-5.683,-5.603,-5.4703,-5.3203,-5.3203,-5.3203,-5.3087,-5.2212,-5.1904,-5.1885,-5.1788,-5.1628,-5.1643,-5.2859,-5.257,-5.1838,-5.2344,-5.1974,-5.1416,-5.1491,-5.2048,-5.2605,-5.2605,-5.2605,-5.2772,-5.3423,-5.3032,-5.2475,-5.2401,-5.1862,-5.1361,-5.1175,-4.9787,-4.8569,-4.8495,-4.7114,-4.603,-4.6104,-4.6636,-4.7021,-4.7094,-4.7663,-4.8086,-4.8086,-4.7424,-4.6691,-4.5957,-4.5241,-4.4801,-4.4801,-4.4745,-4.5039,-4.5755,-4.5865,-4.5902,-4.5902,-4.7352,-4.737,-4.5902,-4.737,-4.7719,-4.7003,-4.7755,-4.8122,-5.7716,-5.8254,-5.8996,-5.9567,-6.0276,-6.0886,-6.106,-6.1041,-6.0971,-6.0987,-6.0933,-6.0858,-6.0812,-6.08,-6.08,-6.08,-6.08,-6.08,-6.08,-6.08,-6.08,-6.08,-6.08,-6.08,-6.08,-6.08,-6.08,-6.08,-6.08,-6.08,-6.08,-6.08,-6.08,-6.08,-6.08,-6.0473,-5.9781,-5.9781,-5.9323,-5.8457,-5.8535,-5.8439,-5.8208,-5.8631,-5.8838,-5.8858,-5.9319,-5.8165,-5.5972,-5.578,-5.4703,-5.3203,-5.3203,-5.3203,-5.3087,-5.2212,-5.1904,-5.1768,-5.0878,-5.0798,-5.112,-5.1198,-5.1333,-5.1525,-5.162,-5.1546,-5.1528,-5.2159,-5.2475,-5.2605,-5.2605,-5.2605,-5.2475,-5.2029,-5.1788,-5.1491,-5.0841,-5.1082,-5.1008,-4.9619,-4.8955,-4.8366,-4.7702,-4.7169,-4.7058,-4.77,-4.6856,-4.6397,-4.7021,-4.6709,-4.6416,-4.6416,-4.6269,-4.6085,-4.5902,-4.5736,-4.5645,-4.5645,-4.5057,-4.4764,-4.4947,-4.5571,-4.5902,-4.5902,-4.6232,-4.625,-4.5902,-4.625,-4.6324,-4.6159,-4.6342,-4.6746,-5.7612,-5.8616,-5.9732,-6.0443,-6.0851,-6.1099,-6.1099,-6.108,-6.1041,-6.101,-6.0946,-6.088,-6.0846,-6.0823,-6.08,-6.08,-6.08,-6.08,-6.08,-6.08,-6.0734,-6.0572,-6.069,-6.0734,-6.0572,-6.071,-6.08,-6.08,-6.08,-6.08,-6.08,-6.08,-6.0608,-6.0185,-6.0161,-5.9734,-5.8889,-5.8846,-5.8376,-5.7491,-5.7586,-5.7409,-5.7024,-5.7893,-5.83,-5.83,-5.83,-5.73,-5.5645,-5.4838,-5.3741,-5.2538,-5.2145,-5.1991,-5.1952,-5.1491,-5.1337,-5.1288,-5.0948,-5.0901,-5.1022,-5.1177,-5.1288,-5.1398,-5.1398,-5.1398,-5.1491,-5.1918,-5.2029,-5.2029,-5.2029,-5.1714,-5.1305,-5.0878,-5.0785,-5.0655,-5.0246,-5.0155,-4.9766,-4.8471,-4.8087,-4.7702,-4.6874,-4.6287,-4.6085,-4.6507,-4.5865,-4.548,-4.5902,-4.592,-4.5902,-4.5902,-4.5571,-4.5333,-4.5333,-4.4966,-4.4745,-4.4745,-4.436,-4.4121,-4.4121,-4.4525,-4.4745,-4.4745,-4.5498,-4.5516,-4.4745,-4.5516,-4.57,-4.5333,-4.5718,-4.6122,-5.7306,-5.8875,-6.0464,-6.1123,-6.1225,-6.1116,-6.1108,-6.1099,-6.1089,-6.1022,-6.096,-6.0914,-6.0922,-6.0858,-6.0823,-6.0823,-6.0812,-6.08,-6.08,-6.08,-6.0666,-6.0335,-6.0604,-6.0666,-6.0321,-6.0597,-6.08,-6.08,-6.08,-6.0723,-6.0569,-6.0569,-6.0185,-5.9308,-5.9211,-5.8803,-5.7985,-5.7899,-5.7397,-5.648,-5.6613,-5.631,-5.5742,-5.7184,-5.7857,-5.7819,-5.7253,-5.6426,-5.5376,-5.3837,-5.2692,-5.1827,-5.1164,-5.0914,-5.0914,-5.0914,-5.0875,-5.0872,-5.112,-5.1083,-5.0988,-5.1287,-5.1291,-5.1156,-5.1008,-5.0971,-5.1008,-5.1138,-5.1175,-5.1175,-5.1175,-5.0636,-5.006,-4.993,-4.9875,-4.9876,-4.9876,-4.9303,-4.8601,-4.79,-4.7499,-4.7059,-4.6396,-4.5405,-4.4746,-4.4892,-4.4672,-4.4544,-4.4673,-4.5168,-4.548,-4.548,-4.4892,-4.4488,-4.4488,-4.3883,-4.3515,-4.3515,-4.3515,-4.3515,-4.3515,-4.3515,-4.3515,-4.3515,-4.48,-4.4819,-4.3515,-4.4837,-4.5149,-4.4525,-4.5186,-4.5553,-5.6503,-5.8485,-6.0464,-6.1123,-6.1289,-6.1237,-6.1136,-6.1099,-6.1099,-6.1089,-6.1022,-6.0991,-6.0987,-6.0933,-6.09,-6.09,-6.0835,-6.08,-6.08,-6.08,-6.0666,-6.0335,-6.0604,-6.0666,-6.0321,-6.0597,-6.08,-6.08,-6.08,-6.0473,-5.9704,-5.9665,-5.9277,-5.8392,-5.8361,-5.7915,-5.7004,-5.6973,-5.6496,-5.558,-5.5653,-5.5689,-5.5703,-5.5934,-5.6049,-5.6069,-5.6733,-5.6118,-5.4587,-5.3606,-5.2692,-5.1885,-5.1769,-5.1731,-5.1731,-5.1731,-5.1579,-5.1262,-5.0342,-5.0307,-5.0504,-4.9599,-4.9743,-5.0153,-4.9447,-4.9243,-4.9392,-5.0079,-5.0283,-5.0283,-5.0283,-5.019,-4.993,-4.9243,-4.9023,-4.8971,-4.8971,-4.8879,-4.8732,-4.844,-4.7702,-4.7076,-4.6985,-4.5718,-4.4947,-4.5626,-4.4544,-4.3901,-4.4617,-4.4195,-4.3827,-4.3827,-4.3718,-4.3644,-4.3644,-4.3552,-4.3515,-4.3515,-4.3515,-4.3515,-4.3515,-4.3515,-4.3515,-4.3515,-4.3717,-4.3717,-4.3515,-4.3735,-4.3772,-4.3644,-4.3772,-4.4195,-5.6699,-5.878,-6.05,-6.1276,-6.1379,-6.1289,-6.1233,-6.1161,-6.1099,-6.1099,-6.108,-6.1051,-6.101,-6.0978,-6.0944,-6.0911,-6.0888,-6.0835,-6.0812,-6.08,-6.0666,-6.0335,-6.0604,-6.0666,-6.0321,-6.0597,-6.0589,-6.0108,-6.0069,-5.9704,-5.8877,-5.8838,-5.8423,-5.7555,-5.7447,-5.6978,-5.6079,-5.6026,-5.5797,-5.5408,-5.5468,-5.5551,-5.566,-5.5673,-5.5703,-5.5703,-5.5626,-5.5184,-5.4395,-5.3029,-5.225,-5.1865,-5.1395,-5.1221,-5.1279,-5.1731,-5.1719,-5.14,-5.0745,-5.0552,-5.0405,-4.9271,-4.915,-4.9355,-4.902,-4.8909,-4.8964,-4.9336,-4.9429,-4.9429,-4.9429,-4.9429,-4.9355,-4.8983,-4.8839,-4.8787,-4.8715,-4.8661,-4.8587,-4.842,-4.7682,-4.7094,-4.7094,-4.614,-4.5351,-4.5241,-4.4232,-4.3643,-4.3975,-4.3718,-4.3515,-4.3515,-4.3515,-4.3515,-4.3515,-4.3515,-4.3515,-4.3515,-4.3515,-4.3515,-4.3515,-4.3515,-4.3515,-4.3515,-4.3515,-4.3515,-4.3515,-4.3515,-4.3515,-4.3515,-4.3515,-4.3681,-5.6191,-5.81,-5.9568,-6.0395,-6.0824,-6.1024,-6.0974,-6.1058,-6.1143,-6.1108,-6.1099,-6.1089,-6.1032,-6.1021,-6.0978,-6.0927,-6.0924,-6.0891,-6.0835,-6.0823,-6.069,-6.0335,-6.0604,-6.0666,-6.0321,-6.0597,-6.0435,-5.9569,-5.9492,-5.905,-5.8011,-5.7962,-5.7535,-5.6651,-5.6498,-5.612,-5.5476,-5.5415,-5.5403,-5.5432,-5.548,-5.5539,-5.5618,-5.5682,-5.5703,-5.5665,-5.5068,-5.4684,-5.4376,-5.2856,-5.2096,-5.1846,-5.1241,-5.0991,-5.1077,-5.1823,-5.1936,-5.165,-5.1376,-5.1073,-5.0628,-4.9553,-4.9224,-4.9187,-4.8964,-4.8909,-4.8909,-4.8909,-4.8909,-4.8909,-4.8909,-4.8909,-4.8909,-4.8909,-4.8821,-4.8715,-4.8587,-4.8513,-4.8419,-4.8306,-4.7645,-4.7039,-4.6819,-4.614,-4.5314,-4.4525,-4.3883,-4.3515,-4.3515,-4.3515,-4.3515,-4.3515,-4.3515,-4.3515,-4.3515,-4.3515,-4.3515,-4.3515,-4.3515,-4.3515,-4.3515,-4.3515,-4.3515,-4.3515,-4.3515,-4.3515,-4.3515,-4.3515,-4.3515,-4.3515,-4.3515,-4.3515,-5.4141,-5.5469,-5.6971,-5.7727,-5.9139,-6.0295,-6.0112,-6.0694,-6.1252,-6.1136,-6.1099,-6.1099,-6.1089,-6.1032,-6.1002,-6.0992,-6.099,-6.0965,-6.0891,-6.088,-6.0757,-6.0335,-6.0604,-6.0666,-6.0321,-6.0597,-6.0435,-5.9569,-5.9492,-5.8781,-5.7157,-5.7005,-5.6545,-5.5612,-5.5502,-5.546,-5.5416,-5.5403,-5.5428,-5.5492,-5.5504,-5.5562,-5.5684,-5.5703,-5.5703,-5.5703,-5.5665,-5.5203,-5.4434,-5.351,-5.2654,-5.1904,-5.1846,-5.1846,-5.1903,-5.246,-5.2488,-5.2215,-5.1873,-5.1585,-5.1212,-5.032,-5.0079,-4.9986,-4.915,-4.8909,-4.8909,-4.8909,-4.8909,-4.8909,-4.8909,-4.8909,-4.8909,-4.8909,-4.875,-4.8587,-4.8513,-4.8401,-4.8306,-4.8306,-4.7645,-4.6856,-4.6085,-4.5296,-4.4488,-4.3681,-4.3533,-4.3515,-4.3515,-4.3515,-4.3515,-4.3515,-4.3515,-4.3515,-4.3515,-4.3515,-4.3515,-4.3515,-4.3515,-4.3515,-4.3515,-4.3515,-4.3515,-4.3515,-4.3515,-4.3515,-4.3515,-4.3515,-4.3515,-4.3515,-4.3515,-4.3515,-5.3848,-5.4863,-5.5957,-5.6793,-5.7814,-5.8761,-5.9256,-5.9976,-6.0655,-6.1135,-6.124,-6.1209,-6.1117,-6.108,-6.1041,-6.1012,-6.1001,-6.099,-6.0976,-6.0933,-6.0846,-6.0702,-6.0757,-6.0746,-6.0641,-6.0533,-6.013,-5.9236,-5.8649,-5.7845,-5.6747,-5.6287,-5.5911,-5.5562,-5.5456,-5.5409,-5.5403,-5.514,-5.5157,-5.5432,-5.525,-5.5338,-5.5629,-5.5692,-5.5703,-5.5703,-5.5703,-5.5241,-5.4395,-5.2972,-5.2173,-5.1904,-5.1904,-5.1587,-5.1326,-5.2946,-5.2976,-5.2271,-5.2551,-5.2445,-5.1936,-5.0562,-5.0116,-4.9986,-4.915,-4.8909,-4.8909,-4.8909,-4.8909,-4.8909,-4.8909,-4.8909,-4.8874,-4.875,-4.8641,-4.8569,-4.8382,-4.8325,-4.8306,-4.8306,-4.8086,-4.7608,-4.6801,-4.6415,-4.5792,-4.447,-4.4268,-4.4085,-4.357,-4.3956,-4.4066,-4.357,-4.3956,-4.4066,-4.3551,-4.3515,-4.3515,-4.3515,-4.3515,-4.3515,-4.3515,-4.3515,-4.3515,-4.3515,-4.3515,-4.3515,-4.3515,-4.3515,-4.3515,-4.3515,-4.3515,-4.3515,-5.3047,-5.3769,-5.4648,-5.5508,-5.6324,-5.7265,-5.8677,-5.9385,-6.0034,-6.1072,-6.131,-6.1259,-6.1116,-6.1099,-6.1089,-6.1032,-6.1032,-6.1031,-6.099,-6.0948,-6.0927,-6.0944,-6.0869,-6.0835,-6.0835,-6.052,-5.9931,-5.9076,-5.8368,-5.7478,-5.6406,-5.5891,-5.553,-5.5332,-5.5243,-5.5255,-5.5403,-5.499,-5.5009,-5.5432,-5.5126,-5.5218,-5.5649,-5.5692,-5.5703,-5.5703,-5.5703,-5.5241,-5.4414,-5.326,-5.2596,-5.2327,-5.2327,-5.201,-5.173,-5.327,-5.3313,-5.271,-5.3172,-5.3197,-5.2735,-5.1082,-5.0543,-5.0339,-4.9243,-4.8909,-4.8909,-4.8909,-4.8909,-4.8909,-4.8909,-4.8909,-4.8838,-4.8624,-4.8569,-4.8532,-4.8344,-4.8306,-4.8306,-4.8306,-4.8306,-4.8049,-4.7241,-4.7094,-4.6654,-4.5314,-4.5112,-4.4819,-4.4011,-4.4378,-4.4397,-4.3589,-4.4213,-4.4378,-4.357,-4.3993,-4.4066,-4.3533,-4.3754,-4.3773,-4.3515,-4.3515,-4.3515,-4.3515,-4.3515,-4.3515,-4.3515,-4.3515,-4.3515,-4.3515,-4.3515,-4.3515,0.0,0.0,0.0,-5.3711,-5.457,-5.5858,-5.8295,-5.889,-5.9365,-6.0903,-6.1252,-6.1228,-6.1116,-6.1099,-6.1099,-6.1099,-6.1099,-6.108,-6.1012,-6.1002,-6.1001,-6.0997,-6.0944,-6.0911,-6.0911,-6.0546,-5.995,-5.9081,-5.8696,-5.7769,-5.6106,-5.5794,-5.5397,-5.481,-5.4806,-5.4976,-5.5377,-5.4995,-5.5023,-5.5492,-5.514,-5.5231,-5.5703,-5.5703,-5.5703,-5.5703,-5.5703,-5.5261,-5.453,-5.4511,-5.3991,-5.3241,-5.3241,-5.3212,-5.3206,-5.3463,-5.3522,-5.3513,-5.37,-5.3775,-5.3497,-5.1881,-5.1361,-5.1045,-4.941,-4.8909,-4.8909,-4.8909,-4.8909,-4.8909,-4.8909,-4.8909,-4.8839,-4.8569,-4.855,-4.8532,-4.8344,-4.8306,-4.8306,-4.8306,-4.8306,-4.8048,-4.7278,-4.7131,-4.6856,-4.6067,-4.5938,-4.5645,-4.4838,-4.4745,-4.4433,-4.3608,-4.4232,-4.4378,-4.357,-4.4929,-4.5149,-4.3606,-4.4232,-4.4305,-4.3533,-4.3515,-4.3515,-4.3515,-4.3515,-4.3515,-4.3515,-4.3515,-4.3515,-4.3515,-4.3515,-4.3515,-5.1465,0.0,0.0,0.0,0.0,0.0,-5.5076,-5.6364,-5.7698,-5.926,-6.0038,-6.0578,-6.1018,-6.1099,-6.1099,-6.1099,-6.1099,-6.1089,-6.108,-6.1032,-6.1002,-6.1001,-6.0938,-6.0911,-6.0911,-6.0546,-6.0113,-5.9627,-5.8913,-5.7919,-5.6577,-5.5437,-5.4862,-5.4937,-5.4855,-5.4836,-5.4962,-5.4626,-5.4682,-5.514,-5.4794,-5.5007,-5.5703,-5.5703,-5.5703,-5.5703,-5.5703,-5.5568,-5.5318,-5.4741,-5.4357,-5.4145,-5.4145,-5.3615,-5.2968,-5.4045,-5.3883,-5.3123,-5.2975,-5.294,-5.2661,-5.1008,-5.0469,-5.0265,-4.9224,-4.8909,-4.8909,-4.8909,-4.8909,-4.8909,-4.8909,-4.8856,-4.8768,-4.8605,-4.855,-4.8494,-4.8325,-4.8306,-4.8306,-4.8306,-4.8306,-4.8233,-4.8012,-4.7957,-4.7681,-4.6874,-4.6764,-4.647,-4.5681,-4.5571,-4.5259,-4.4452,-4.458,-4.4378,-4.357,-4.3919,-4.3956,-4.3533,-4.3699,-4.3718,-4.3515,-4.3515,-4.3515,-4.3515,-4.3515,-4.3515,-4.3515,-4.3515,-4.3515,-4.3515,-4.3515,-4.3515,-5.0996,-5.1133,-5.1406,-5.1406,0.0,0.0,-5.4648,-5.5879,-5.7123,-5.9007,-5.981,-6.0328,-6.0978,-6.0828,-6.0712,-6.106,-6.1099,-6.1099,-6.1099,-6.107,-6.1032,-6.1032,-6.098,-6.0944,-6.0944,-6.054,-6.0223,-6.0026,-5.9252,-5.8101,-5.6538,-5.4949,-5.4294,-5.4735,-5.4476,-5.4493,-5.4791,-5.4364,-5.4409,-5.4998,-5.4705,-5.4966,-5.5703,-5.5703,-5.5703,-5.5703,-5.5703,-5.5703,-5.5665,-5.5184,-5.4991,-5.4991,-5.4991,-5.4503,-5.3875,-5.4548,-5.4044,-5.299,-5.2697,-5.2382,-5.1881,-5.0543,-5.0098,-4.9949,-4.915,-4.8909,-4.8909,-4.8909,-4.8909,-4.8891,-4.8856,-4.8839,-4.8786,-4.8587,-4.855,-4.8495,-4.8325,-4.8306,-4.8306,-4.8306,-4.8306,-4.8306,-4.8306,-4.8306,-4.8141,-4.7663,-4.759,-4.7296,-4.6507,-4.6104,-4.559,-4.4783,-4.4691,-4.4378,-4.357,-4.4121,-4.4195,-4.3551,-4.3809,-4.3846,-4.3497,-4.3515,-4.3515,-4.3515,-4.3515,-4.3515,-4.3515,-4.3515,-4.3515,-4.3515,-4.3515,-4.3515,-5.0273,-5.0586,-5.1152,-5.123,-5.1191,0.0,-5.5273,-5.6015,-5.6675,-5.894,-5.9536,-5.9829,-6.0442,-5.9965,-5.9733,-6.0422,-6.0692,-6.0886,-6.1079,-6.1099,-6.1137,-6.1234,-6.1175,-6.1122,-6.1132,-6.0744,-6.045,-6.0313,-5.945,-5.8109,-5.622,-5.4467,-5.3776,-5.4345,-5.3943,-5.4033,-5.4666,-5.4193,-5.4276,-5.4943,-5.4745,-5.5015,-5.5703,-5.5703,-5.5703,-5.5703,-5.5703,-5.5703,-5.5703,-5.5703,-5.5703,-5.5703,-5.5682,-5.5485,-5.5191,-5.4866,-5.4091,-5.3125,-5.2734,-5.2067,-5.1268,-5.0395,-5.0042,-4.9837,-4.9132,-4.8909,-4.8909,-4.8909,-4.8909,-4.8891,-4.884,-4.8839,-4.8821,-4.8569,-4.855,-4.855,-4.8344,-4.8306,-4.8306,-4.8306,-4.8306,-4.8306,-4.8306,-4.8306,-4.8306,-4.8306,-4.8306,-4.8049,-4.7333,-4.6544,-4.5736,-4.4929,-4.4746,-4.4378,-4.357,-4.48,-4.5021,-4.3588,-4.4176,-4.425,-4.3533,-4.3515,-4.3515,-4.3515,-4.3515,-4.3515,-4.3515,-4.3515,-4.3515,-4.3515,-4.3515,-4.3551,-4.9394,-4.9277,-4.9551,-5.0254,-4.9902,0.0,-5.1953,-5.2402,-5.2928,-5.4743,-5.5686,-5.6386,-5.7023,-5.7026,-5.6951,-5.6996,-5.8178,-5.9551,-6.0905,-6.1099,-6.1369,-6.2066,-6.2044,-6.1981,-6.1962,-6.1836,-6.1352,-6.0379,-5.8408,-5.6968,-5.6302,-5.4604,-5.3775,-5.4069,-5.3925,-5.3889,-5.3925,-5.4174,-5.4409,-5.4597,-5.4862,-5.5237,-5.5703,-5.5703,-5.5703,-5.5703,-5.5703,-5.5703,-5.5703,-5.5703,-5.5703,-5.5692,-5.5461,-5.5178,-5.4851,-5.4528,-5.4083,-5.3554,-5.2847,-5.2067,-5.1268,-5.0395,-4.967,-4.9113,-4.8946,-4.8909,-4.8909,-4.8909,-4.8909,-4.8909,-4.8891,-4.8839,-4.8787,-4.8624,-4.855,-4.8494,-4.8325,-4.8306,-4.8306,-4.8306,-4.8306,-4.8306,-4.8306,-4.8306,-4.8306,-4.8306,-4.8306,-4.8251,-4.8104,-4.7351,-4.6544,-4.5755,-4.5094,-4.4378,-4.357,-4.379,-4.3828,-4.3533,-4.3662,-4.3644,-4.3515,-4.3515,-4.3515,-4.3515,-4.3515,-4.3515,-4.3515,-4.3515,-4.3515,-4.3515,-4.3515,-4.3846,-4.8613,-4.8574,-4.8906,-4.8906,-4.9238,0.0,0.0,-5.207,-5.2928,-5.3739,-5.4589,-5.5285,-5.5555,-5.56,-5.5701,-5.6051,-5.7521,-5.8776,-5.9154,-6.0306,-6.1427,-6.2298,-6.2306,-6.2245,-6.2204,-6.2174,-6.1644,-6.0379,-5.8437,-5.7081,-5.6575,-5.4858,-5.3926,-5.3997,-5.3738,-5.3662,-5.3795,-5.4069,-5.4326,-5.4563,-5.4998,-5.5382,-5.5703,-5.5703,-5.5472,-5.5107,-5.5107,-5.4857,-5.4453,-5.4453,-5.437,-5.4315,-5.5026,-5.4747,-5.3978,-5.4213,-5.3585,-5.2549,-5.2141,-5.1193,-5.0079,-4.9652,-4.9243,-4.8909,-4.8909,-4.8909,-4.8909,-4.8909,-4.8909,-4.8909,-4.8909,-4.8874,-4.8804,-4.8623,-4.8569,-4.8513,-4.8325,-4.8306,-4.8306,-4.8306,-4.8306,-4.8306,-4.8306,-4.8306,-4.8306,-4.8306,-4.8306,-4.8159,-4.7736,-4.6984,-4.6195,-4.5388,-4.458,-4.3938,-4.3533,-4.3515,-4.3515,-4.3515,-4.3515,-4.3515,-4.3515,-4.3515,-4.3515,-4.3515,-4.3515,-4.3515,-4.3515,-4.3515,-4.3515,-4.3515,-4.3515,-4.3718,-4.8281,-4.8242,-4.8555,-4.8183,-4.8906,-5.0,0.0,0.0,0.0,-5.3398,-5.3979,-5.4433,-5.4317,-5.4285,-5.4489,-5.5113,-5.6621,-5.7446,-5.6687,-5.8623,-6.0615,-6.1988,-6.223,-6.2276,-6.2204,-6.1888,-6.1291,-6.036,-5.876,-5.7515,-5.6845,-5.5277,-5.4236,-5.3907,-5.3543,-5.3482,-5.3776,-5.3979,-5.4274,-5.4606,-5.5126,-5.5485,-5.5684,-5.553,-5.5107,-5.4491,-5.4318,-5.3857,-5.3192,-5.3142,-5.2874,-5.2621,-5.4136,-5.3959,-5.2944,-5.3517,-5.2747,-5.1398,-5.1398,-5.0395,-4.9132,-4.9132,-4.9039,-4.8909,-4.8909,-4.8909,-4.8909,-4.8909,-4.8909,-4.8909,-4.8909,-4.8909,-4.8838,-4.8641,-4.8605,-4.8532,-4.8344,-4.8306,-4.8306,-4.8306,-4.8306,-4.8306,-4.8306,-4.8306,-4.8306,-4.8306,-4.8306,-4.8012,-4.7204,-4.6544,-4.5773,-4.4801,-4.4121,-4.3663,-4.3497,-4.3515,-4.3515,-4.3515,-4.3515,-4.3515,-4.3515,-4.3515,-4.3515,-4.3515,-4.3515,-4.3515,-4.3515,-4.3515,-4.3515,-4.3515,-4.3515,-4.3588,-4.9023,-4.8262,-4.8086,-4.9531,-4.8887,-4.8516,-5.0859,0.0,-5.082,-5.1542,0.0,-5.1813,-5.1724,0.0,0.0,-5.1683,-5.31,-5.4116,-5.3948,-5.547,-5.7753,-6.0886,-6.1863,-6.2276,-6.2204,-6.0745,-5.9936,-6.0283,-5.876,-5.7515,-5.6845,-5.5928,-5.4836,-5.3599,-5.3501,-5.344,-5.3361,-5.4085,-5.45,-5.4606,-5.5319,-5.5662,-5.5684,-5.4953,-5.4587,-5.4453,-5.3683,-5.3299,-5.3182,-5.2939,-5.2221,-5.1383,-5.2299,-5.2386,-5.2008,-5.1818,-5.1583,-5.1398,-5.1398,-5.0766,-4.9968,-4.9968,-4.9485,-4.8909,-4.8909,-4.8909,-4.8909,-4.8909,-4.8909,-4.8909,-4.8909,-4.8909,-4.8838,-4.8641,-4.8605,-4.8532,-4.8344,-4.8306,-4.8306,-4.8306,-4.8306,-4.8306,-4.8306,-4.8306,-4.8306,-4.8306,-4.8306,-4.8012,-4.7204,-4.7021,-4.6379,-4.4856,-4.4618,-4.4268,-4.3552,-4.3515,-4.3515,-4.3515,-4.3515,-4.3515,-4.3515,-4.3515,-4.3515,-4.3515,-4.3515,-4.3515,-4.3515,-4.3515,-4.3515,-4.3515,-4.3515,-4.3883,-4.9121,-4.8174,-4.7744,-4.91,-4.8865,-4.8725,-5.0332,-5.0801,-5.0859,-5.0723,0.0,0.0,0.0,0.0,0.0,0.0,-5.2525,-5.3404,-5.2825,-5.4619,-5.6728,-5.8653,-5.9195,-5.9563,-5.9966,-5.9271,-5.9081,-5.9779,-5.8762,-5.7889,-5.7411,-5.6396,-5.5222,-5.3889,-5.3698,-5.3578,-5.3538,-5.4206,-5.4594,-5.4724,-5.5387,-5.5703,-5.5665,-5.4876,-5.4222,-5.3703,-5.2818,-5.2183,-5.1731,-5.1419,-5.092,-5.0353,-5.0547,-5.0726,-5.0902,-5.1266,-5.1101,-5.0692,-5.0692,-5.0135,-4.941,-4.941,-4.9187,-4.8909,-4.8909,-4.8909,-4.8909,-4.8909,-4.8909,-4.8909,-4.8909,-4.8909,-4.8838,-4.8641,-4.8605,-4.8532,-4.8344,-4.8306,-4.8306,-4.8306,-4.8306,-4.8306,-4.8306,-4.8306,-4.8306,-4.8306,-4.8306,-4.8012,-4.7204,-4.6691,-4.5975,-4.4837,-4.4287,-4.3864,-4.3533,-4.3515,-4.3515,-4.3515,-4.3515,-4.3515,-4.3515,-4.3515,-4.3515,-4.3515,-4.3515,-4.3515,-4.3515,-4.3515,-4.3515,-4.3515,-4.3515,-4.3681,-4.9965,-4.8972,-4.8301,-4.9568,-4.9485,-4.9337,-5.026,-5.0928,-5.1181,-5.0596,-5.0947,0.0,0.0,0.0,-5.1258,-5.1178,0.0,-5.2667,-5.1935,-5.344,-5.5094,-5.6448,-5.7,-5.7573,-5.8335,-5.7914,-5.8138,-5.9396,-5.8531,-5.7908,-5.7798,-5.6982,-5.5753,-5.4138,-5.3907,-5.3813,-5.3813,-5.434,-5.472,-5.4938,-5.5473,-5.5568,-5.5338,-5.4511,-5.3664,-5.2799,-5.1952,-5.1192,-5.0544,-5.0225,-4.9917,-4.9651,-4.9362,-4.9465,-4.9856,-5.0488,-5.0358,-4.9837,-4.9837,-4.9429,-4.8909,-4.8909,-4.8909,-4.8909,-4.8909,-4.8909,-4.8909,-4.8909,-4.8909,-4.8909,-4.8909,-4.8909,-4.8838,-4.8641,-4.8605,-4.8532,-4.8344,-4.8306,-4.8306,-4.8306,-4.8306,-4.8306,-4.8306,-4.8306,-4.8306,-4.8306,-4.8306,-4.8012,-4.7204,-4.6581,-4.592,-4.5112,-4.4305,-4.3828,-4.3828,-4.3643,-4.3515,-4.3515,-4.3515,-4.3515,-4.3515,-4.3515,-4.3515,-4.3515,-4.3515,-4.3515,-4.3515,-4.3515,-4.3515,-4.3515,-4.3515,-4.3515,-5.2158,-5.1121,-5.0221,-5.1939,-5.1102,-5.0092,-5.0973,-5.1191,-5.1211,-5.1172,-5.1191,-5.1211,-5.1172,-5.1187,-5.1178,-5.1109,-5.1144,0.0,0.0,-5.1014,-5.2,-5.4581,-5.6258,-5.7516,-5.8316,-5.6877,-5.6883,-5.9319,-5.7973,-5.7255,-5.776,-5.7766,-5.662,-5.4174,-5.4102,-5.4085,-5.4085,-5.4417,-5.4838,-5.5288,-5.5573,-5.528,-5.4511,-5.3645,-5.2779,-5.1904,-5.1087,-5.0542,-5.0195,-4.9917,-4.9655,-4.9384,-4.9044,-4.8927,-4.8946,-4.8964,-4.8964,-4.8946,-4.8946,-4.8927,-4.8909,-4.8909,-4.8909,-4.8909,-4.8909,-4.8909,-4.8909,-4.8909,-4.8909,-4.8909,-4.8909,-4.8909,-4.8838,-4.8641,-4.8605,-4.8532,-4.8344,-4.8306,-4.8306,-4.8306,-4.8306,-4.8306,-4.8306,-4.8306,-4.8306,-4.8306,-4.8306,-4.8012,-4.7204,-4.7076,-4.6746,-4.5957,-4.5149,-4.4672,-4.4672,-4.3956,-4.3515,-4.3515,-4.3515,-4.3515,-4.3515,-4.3515,-4.3515,-4.3515,-4.3515,-4.3515,-4.3515,-4.3515,-4.3515,-4.3515,-4.3515,-4.3515,-5.1553,-5.0291,-4.9353,-5.117,-5.03,-4.9357,-5.086,-5.0755,-5.0677,-5.1822,-5.1145,-5.0696,-5.1842,-5.1556,-5.1131,-5.1111,-5.1024,-5.0947,0.0,-5.0898,-5.1439,-5.2898,-5.4036,-5.4562,-5.4265,-5.5181,-5.6132,-5.6926,-5.7003,-5.7085,-5.7263,-5.7054,-5.6221,-5.4607,-5.4554,-5.446,-5.4226,-5.4783,-5.5145,-5.5301,-5.5036,-5.4761,-5.4453,-5.301,-5.2173,-5.1865,-5.1048,-5.0643,-5.0493,-5.0,-4.9749,-4.9608,-4.9108,-4.8909,-4.8909,-4.8909,-4.8909,-4.8909,-4.8909,-4.8909,-4.8909,-4.8909,-4.8909,-4.8909,-4.8909,-4.8909,-4.8909,-4.8909,-4.8909,-4.8909,-4.8909,-4.8909,-4.8838,-4.8641,-4.8605,-4.8532,-4.8344,-4.8306,-4.8306,-4.8306,-4.8306,-4.8306,-4.8306,-4.8306,-4.8306,-4.8306,-4.8306,-4.8214,-4.792,-4.7424,-4.7003,-4.6709,-4.5975,-4.5498,-4.5498,-4.5241,-4.4617,-4.357,-4.3993,-4.4066,-4.3533,-4.3515,-4.3515,-4.3515,-4.3515,-4.3515,-4.3515,-4.3515,-4.3515,-4.3515,-4.3515,-4.3515,-5.1464,-5.0455,-4.9662,-5.1175,-5.0458,-4.9743,-5.1217,-5.1116,-5.1116,-5.2533,-5.1708,-5.1058,-5.2164,-5.1625,-5.103,-5.103,-5.0966,-5.0898,0.0,-5.0898,-5.1111,-5.166,-5.2467,-5.2986,-5.2992,-5.3909,-5.4939,-5.6079,-5.6137,-5.6252,-5.6522,-5.6633,-5.6021,-5.4548,-5.4814,-5.488,-5.467,-5.5078,-5.5351,-5.5418,-5.4811,-5.4337,-5.3991,-5.2538,-5.1731,-5.1433,-5.0933,-5.0624,-5.0493,-5.0099,-4.983,-4.9627,-4.9239,-4.8993,-4.8909,-4.8909,-4.8909,-4.8909,-4.8909,-4.8909,-4.8909,-4.8909,-4.8909,-4.8909,-4.8909,-4.8909,-4.8909,-4.8909,-4.8909,-4.8909,-4.8909,-4.8909,-4.8838,-4.8641,-4.8605,-4.8532,-4.8344,-4.8306,-4.8306,-4.8306,-4.8306,-4.8306,-4.8306,-4.8306,-4.8306,-4.8306,-4.8306,-4.8306,-4.8306,-4.7846,-4.7516,-4.7516,-4.6819,-4.6214,-4.592,-4.5902,-4.5461,-4.4433,-4.4837,-4.4764,-4.3956,-4.392,-4.3791,-4.3515,-4.3515,-4.3515,-4.3515,-4.3515,-4.3515,-4.3515,-4.3515,-4.3515]},{"header":{"parameterUnit":"m.s-1","parameterCategory":1,"la1":30.6,"la2":29.2853,"lo1":-89.7004,"lo2":-87.6739,"dy":0.0162,"dx":0.0183,"nx":112,"ny":82,"refTime":"2026-05-02T00:00:00:Z","depth":0,"parameterNumber":3,"parameterNumberName":"V-component_of_WINDS"},"data":[0.0,0.0,0.0,0.0,0.0,0.0,0.0,0.0,0.0,0.0,0.0,0.0,0.0,0.0,0.0,0.0,0.0,0.0,0.0,0.0,0.0,0.0,0.0,0.0,0.0,0.0,0.0,0.0,0.0,0.0,0.0,0.0,0.0,0.0,0.0,0.0,0.0,0.0,0.0,0.0,0.0,0.0,0.0,0.0,0.0,0.0,0.0,0.0,0.0,0.0,0.0,0.0,0.0,0.0,0.0,0.0,0.0,0.0,0.0,0.0,0.0,0.0,0.0,0.0,0.0,0.0,0.0,0.0,0.0,0.0,0.0,0.0,0.0,0.0,0.0,0.0,0.0,0.0,0.0,0.0,0.0,0.0,0.0,0.0,0.0,0.0,0.0,0.0,0.0,0.0,0.0,0.0,0.0,0.0,0.0,0.0,0.0,0.0,0.0,0.0,0.0,0.0,0.0,0.0,0.0,0.0,0.0,0.0,0.0,0.0,0.0,0.0,0.0,0.0,0.0,0.0,0.0,0.0,0.0,0.0,0.0,0.0,0.0,0.0,0.0,0.0,0.0,0.0,0.0,0.0,0.0,0.0,0.0,0.0,0.0,0.0,0.0,0.0,0.0,0.0,0.0,0.0,0.0,0.0,0.0,0.0,0.0,0.0,0.0,0.0,0.0,0.0,0.0,0.0,0.0,0.0,0.0,0.0,0.0,0.0,0.0,0.0,0.0,0.0,0.0,0.0,0.0,0.0,0.0,0.0,0.0,0.0,0.0,0.0,0.0,0.0,0.0,0.0,0.0,0.0,0.0,0.0,0.0,0.0,0.0,0.0,0.0,0.0,0.0,0.0,0.0,0.0,0.0,0.0,0.0,0.0,0.0,0.0,0.0,0.0,0.0,0.0,0.0,0.0,0.0,0.0,0.0,0.0,0.0,0.0,0.0,0.0,0.0,0.0,0.0,0.0,0.0,0.0,0.0,0.0,0.0,0.0,0.0,0.0,0.0,0.0,0.0,0.0,0.0,0.0,0.0,0.0,0.0,0.0,0.0,0.0,0.0,0.0,0.0,0.0,0.0,0.0,0.0,0.0,0.0,0.0,0.0,0.0,0.0,0.0,0.0,0.0,0.0,0.0,0.0,0.0,0.0,0.0,0.0,0.0,0.0,0.0,0.0,0.0,0.0,0.0,0.0,0.0,0.0,0.0,0.0,0.0,0.0,0.0,0.0,0.0,0.0,0.0,0.0,0.0,0.0,0.0,0.0,0.0,0.0,0.0,0.0,0.0,0.0,0.0,0.0,0.0,0.0,0.0,0.0,0.0,0.0,0.0,0.0,0.0,0.0,0.0,0.0,0.0,0.0,0.0,0.0,0.0,0.0,0.0,0.0,0.0,0.0,0.0,0.0,0.0,0.0,0.0,0.0,0.0,0.0,0.0,0.0,0.0,0.0,0.0,0.0,0.0,0.0,0.0,0.0,0.0,0.0,0.0,0.0,0.0,0.0,0.0,0.0,0.0,0.0,0.0,0.0,0.0,0.0,0.0,0.0,0.0,0.0,0.0,0.0,0.0,0.0,0.0,0.0,0.0,0.0,0.0,0.0,0.0,0.0,0.0,0.0,0.0,0.0,0.0,0.0,0.0,0.0,0.0,0.0,0.0,0.0,0.0,0.0,0.0,0.0,0.0,0.0,0.0,0.0,0.0,0.0,0.0,0.0,0.0,0.0,0.0,0.0,0.0,0.0,0.0,0.0,0.0,0.0,0.0,0.0,0.0,0.0,0.0,0.0,0.0,0.0,0.0,0.0,0.0,0.0,0.0,0.0,0.0,0.0,0.0,0.0,0.0,0.0,0.0,0.0,0.0,0.0,0.0,0.0,0.0,0.0,0.0,0.0,0.0,0.0,0.0,0.0,0.0,0.0,0.0,0.0,0.0,0.0,0.0,0.0,0.0,0.0,0.0,0.0,0.0,0.0,0.0,0.0,0.0,0.0,0.0,0.0,0.0,0.0,0.0,0.0,0.0,0.0,0.0,0.0,0.0,0.0,0.0,0.0,0.0,0.0,0.0,0.0,0.0,0.0,0.0,0.0,0.0,0.0,0.0,0.0,0.0,0.0,0.0,0.0,0.0,0.0,0.0,0.0,0.0,0.0,0.0,0.0,0.0,0.0,0.0,0.0,0.0,0.0,0.0,0.0,0.0,0.0,0.0,0.0,0.0,0.0,0.0,0.0,0.0,0.0,0.0,0.0,0.0,0.0,0.0,0.0,0.0,0.0,0.0,0.0,0.0,0.0,0.0,0.0,0.0,0.0,0.0,0.0,0.0,0.0,0.0,0.0,0.0,0.0,0.0,0.0,0.0,0.0,0.0,0.0,0.0,0.0,0.0,0.0,0.0,0.0,0.0,0.0,0.0,0.0,0.0,0.0,0.0,0.0,0.0,0.0,0.0,0.0,0.0,0.0,0.0,0.0,0.0,0.0,0.0,0.0,0.0,0.0,0.0,0.0,0.0,0.0,0.0,0.0,0.0,0.0,0.0,0.0,0.0,0.0,0.0,0.0,0.0,0.0,0.0,0.0,0.0,0.0,0.0,0.0,0.0,0.0,0.0,0.0,0.0,0.0,0.0,0.0,0.0,0.0,0.0,0.0,0.0,0.0,0.0,0.0,0.0,0.0,0.0,0.0,0.0,0.0,0.0,0.0,0.0,0.0,0.0,0.0,0.0,0.0,0.0,0.0,0.0,0.0,0.0,0.0,0.0,0.0,0.0,0.0,0.0,0.0,0.0,0.0,0.0,0.0,0.0,0.0,0.0,0.0,0.0,0.0,0.0,0.0,0.0,0.0,0.0,0.0,0.0,0.0,0.0,0.0,0.0,0.0,0.0,0.0,0.048,0.0,0.0,0.0,0.0,0.0,0.0,0.0,0.0,0.0,0.0,0.0,0.0,0.0,0.0,0.0,0.0,0.0,0.0,0.0,0.0,0.0,0.0,0.0,0.0,0.0,0.0,0.0,0.0,0.0,0.0,0.0,0.0,0.0,0.0,0.0,0.0,0.0,0.0,0.0,0.0,0.0,0.0,0.0,0.0,0.0,0.0,0.0,0.0,0.0,0.0,0.0,0.0,0.0,0.0,0.0,0.0,0.0,0.0,0.0,0.0,0.0,0.0,0.0,0.0,0.0,0.0,0.0,0.0,0.0,0.0,0.0,0.0,0.0,0.0,0.0,0.0,0.0,0.0,0.0,0.0,0.0,0.0,0.0,0.0,0.0,0.0,0.0,0.0,0.0,0.0,0.0,0.0,0.0,0.0,0.0,0.0,0.0,0.0,0.0,0.0,0.0,0.0,0.0,0.0,0.0,0.0,0.0,0.0,0.0,0.0,0.2389,0.1309,0.0608,0.062,0.0249,0.0,0.0,0.0,0.0,0.0,0.0,0.0,0.0,0.0,0.0,0.0,0.0,0.0,0.0,0.0,0.0,0.0,0.0,0.0,0.0,0.0,0.0,0.0,0.0,0.0,0.0,0.0,0.0,0.0,0.0,0.0,0.0,0.0,0.0,0.0,0.0,0.0,0.0,0.0,0.0,0.0,0.0,0.0,0.0,0.0,0.0,0.0,0.0,0.0,0.0,0.0,0.0,0.0,0.0,0.0,0.0,0.0,0.0,0.0,0.0,0.0,0.0,0.0,0.0,0.0,0.0,0.0,0.0,0.0,0.0,0.0,0.0,0.0,0.0,0.0,0.0,0.0,0.0,0.0,0.0,0.0,0.0,0.0,0.0,0.0,0.0,0.0,0.0,0.0,0.0,0.0,0.0,0.0,0.0,0.0,0.0,0.0,0.0,0.0,0.0,0.0,0.0,0.0,0.0,0.0,0.0,0.0,0.3614,0.2539,0.1828,0.2008,0.082,0.0,0.0,0.0,0.0,0.0,0.0,0.0,0.0,0.0,0.0,0.0,0.0,0.0,0.0,0.0,0.0,0.0,0.0,0.0,0.0,0.0,0.0,0.0,0.0,0.0,0.0,0.0,0.0,0.0,0.0,0.0,0.0,0.0,0.0,0.0,0.0,0.0,0.0,0.0,0.0,0.0,0.0,0.0,0.0,0.0,0.0,0.0,0.0,0.0,0.0,0.0,0.0,0.0,0.0,0.0,0.0,0.0,0.0,0.0,0.0,0.0,0.0,0.0,0.0,0.0,0.0,0.0,0.0,0.0,0.0,0.0,0.0,0.0,0.0,0.0,0.0,0.0,0.0,0.0,0.0,0.0,0.0,0.0,0.0,0.0,0.0,0.0,0.0,0.0,0.0,0.0,0.0,0.0,0.0,0.0,0.0,0.0,0.0,0.0,0.0,0.0,0.0,0.0,0.0,0.0,0.0,0.0,0.4948,0.318,0.1967,0.1984,0.0807,0.0,0.0,0.0,0.0,0.0,0.0,0.0,0.0,0.0,0.0,0.0,0.0,0.0,0.0,0.0,0.0,0.0,0.0,0.0,0.0,0.0,0.0,0.0,0.0,0.0,0.0,0.0,0.0,0.0,0.0,0.0,0.0,0.0,0.0,0.0,0.0,0.0,0.0,0.0,0.0,0.0,0.0,0.0,0.0,0.0,0.0,0.0,0.0,0.0,0.0,0.0,0.0,0.0,0.0,0.0,0.0,0.0,0.0,0.0,0.0,0.0,0.0,0.0,0.0,0.0,0.0,0.0,0.0,0.0,0.0,0.0,0.0,0.0,0.0,0.0,0.0,0.0,0.0,0.0,0.0,0.0,0.0,0.0,0.0,0.0,0.0,0.0,0.0,0.0,0.0,0.0,0.0,0.0,0.0,0.0,0.0,0.0,0.0,0.0,0.0,0.0,0.0,0.0,0.0,0.0,0.0,0.0,0.6207,0.4604,0.3494,0.3538,0.1928,0.0809,0.0809,0.0304,0.0,0.0,0.0,0.0,0.0,0.0,0.0,0.0,0.0,0.0,0.0,0.0,0.0,0.0,0.0,0.0,0.0,0.0,0.0,0.0,0.0,0.0,0.0,0.0,0.0,0.0,0.0,0.0,0.0,0.0,0.0,0.0,0.0,0.0,0.0,0.0,0.0,0.0,0.0,0.0,0.0,0.0,0.0,0.0,0.0,0.0,0.0,0.0,0.0,0.0,0.0,0.0,0.0,0.0,0.0,0.0,0.0,0.0,0.0,0.0,0.0,0.0,0.0,0.0,0.0,0.0,0.0,0.0,0.0,0.0,0.0,0.0,0.0,0.0,0.0,0.0,0.0,0.0,0.0,0.0,0.0,0.0,0.0,0.0,0.0,0.0,0.0,0.0,0.0,0.0,0.0,0.0,0.0,0.0,0.0,0.0,0.0,0.0,0.0,0.0,0.0,0.0,0.0,0.0,0.7266,0.6373,0.5786,0.5888,0.3642,0.2199,0.2199,0.1054,0.03,0.0169,0.0,0.0,0.0,0.0,0.0,0.0,0.0,0.0,0.0,0.0,0.0,0.0,0.0,0.0,0.0,0.0,0.0,0.0,0.0,0.0,0.0,0.0,0.0,0.0,0.0,0.0,0.0,0.0,0.0,0.0,0.0,0.0,0.0,0.0,0.0,0.0,0.0,0.0,0.0,0.0,0.0,0.0,0.0,0.0,0.0,0.0,0.0,0.0,0.0,0.0,0.0,0.0,0.0,0.0,0.0,0.0,0.0,0.0,0.0,0.0,0.1698,0.0701,0.0,0.0,0.0,0.0,0.0,0.0,0.0,0.0,0.0,0.0,0.0,0.0,0.0,0.0,0.0,0.0,0.0,0.0,0.0,0.0,0.0,0.0,0.0,0.0,0.0,0.0,0.0,0.0,0.0,0.0,0.0,0.0,0.0,0.0,0.0,0.0,0.0,0.0,0.0,0.0,0.7277,0.6437,0.5892,0.5869,0.445,0.3523,0.3523,0.3197,0.2584,0.1659,0.148,0.0,0.0,0.0,0.0,0.0,0.0,0.0,0.0,0.0,0.0,0.0,0.0,0.0,0.0,0.0,0.0,0.0,0.0,0.0,0.0,0.0,0.0,0.0,0.0,0.0,0.0,0.0,0.0,0.0,0.0,0.0,0.0,0.0,0.0,0.0,0.0,0.0,0.0,0.0,0.0,0.0,0.0,0.0,0.0,0.0,0.0,0.0,0.0,0.0,0.0,0.0,0.0,0.0,0.0,0.0,0.0,0.0,0.0,0.0,0.4084,0.2875,0.0,0.0,0.0,0.0,0.0,0.0,0.0,0.0,0.0,0.0,0.0,0.0,0.0,0.0,0.0,0.0,0.0,0.0,0.0,0.0,0.0,0.0,0.0,0.0,0.0,0.0,0.0,0.0,0.0,0.0,0.0,0.0,0.0,0.0,0.0,0.0,0.0,0.0,0.0,0.0,0.7263,0.7007,0.6775,0.6884,0.562,0.4745,0.4745,0.414,0.3462,0.2781,0.2646,0.0,0.0,0.0,0.0,0.0,0.0,0.0,0.0,0.0,0.0,0.0,0.0,0.0,0.0,0.0,0.0,0.0,0.0,0.0,0.0,0.0,0.0,0.0,0.0,0.0,0.0,0.0,0.0,0.0,0.0,0.0,0.0,0.0,0.0,0.0,0.0,0.0,0.0,0.0,0.0,0.0,0.0,0.0,0.0,0.0,0.0,0.0,0.0,0.0,0.0,0.0,0.0,0.0,0.7576,0.7564,0.7642,0.7576,0.7576,0.7631,0.7097,0.5865,0.4367,0.49,0.0,0.0,0.0,0.0,0.0,0.0,0.0,0.0,0.0,0.0,0.0,0.0,0.0,0.0,0.0,0.0,0.0,0.0,0.0,0.0,0.0,0.0,0.7758,0.7614,0.7823,0.8029,0.7649,0.0,0.0,0.0,0.0,0.0,0.0,0.0,0.0,0.0,0.0,0.0,0.7253,0.7532,0.7714,0.7828,0.6767,0.5986,0.5986,0.4957,0.4162,0.3935,0.381,0.3629,0.0,0.0,0.0,0.0,0.0,0.0,0.0,0.0,0.0,0.0,0.0,0.0,0.0,0.0,0.0,0.0,0.0,0.0,0.0,0.0,0.0,0.0,0.0,0.0,0.0,0.0,0.0,0.0,0.0,0.0,0.0,0.0,1.0402,1.0239,0.0,0.0,0.0,0.0,0.0,0.0,0.0,0.0,0.0,0.0,0.0,0.0,0.0,1.0752,1.0614,1.1011,1.1151,1.0957,0.9868,0.9385,0.9398,0.9324,0.9324,0.9464,1.0505,0.0,0.6126,0.6045,0.0,0.0,0.0,0.0,0.0,0.0,0.0,0.0,0.0,0.0,0.0,0.0,0.0,0.0,0.0,0.0,0.0,0.0,0.0,0.0,0.0,0.0,0.8108,0.788,0.8002,0.8073,0.7858,0.7747,0.7573,0.7278,0.721,0.7136,0.0,0.0,0.0,0.0,0.0,0.0,0.7274,0.7456,0.7589,0.7712,0.7436,0.7245,0.7245,0.701,0.6353,0.5309,0.5194,0.4653,0.3617,0.3453,0.0,0.0,0.0,0.0,0.0,0.0,0.0,0.0,0.0,0.0,0.0,0.0,0.0,0.0,0.0,0.0,0.0,0.0,0.0,0.0,0.0,0.0,0.0,0.0,0.0,0.0,0.0,0.0,0.0,1.0477,1.0504,1.0188,1.0504,1.0531,0.0,0.0,0.0,0.0,0.0,0.0,0.0,0.0,0.0,1.0748,1.104,1.1277,1.1372,1.1725,1.1911,1.1999,1.1443,1.1233,1.1301,1.1226,1.1195,1.1183,1.1636,1.0951,0.9422,0.8935,0.7657,0.6107,0.0,0.0,0.0,0.0,0.6953,0.6189,0.7127,0.7292,0.7217,0.789,0.0,0.0,0.0,0.0,0.0,0.0,0.0,0.7822,0.798,0.7997,0.8021,0.8045,0.8068,0.8122,0.8062,0.7996,0.7812,0.7519,0.735,0.7225,0.7119,0.7037,0.0,0.0,0.0,0.7163,0.7225,0.7339,0.7462,0.7587,0.7489,0.7415,0.7415,0.7304,0.7006,0.6495,0.6356,0.6056,0.5508,0.5285,0.5163,0.0,0.0,0.0,0.0,0.0,0.0,0.0,0.0,0.0,0.0,0.0,0.0,0.0,0.0,0.0,0.0,0.0,0.0,0.0,0.0,0.0,0.0,0.0,0.0,0.0,0.0,0.0,0.0,1.0599,1.068,1.0206,1.0651,1.0795,0.0,0.0,0.0,0.0,0.0,0.0,1.0663,1.088,1.1056,1.1103,1.1463,1.1725,1.1945,1.2098,1.2233,1.2345,1.2345,1.24,1.2498,1.2355,1.2291,1.2274,1.1965,1.183,1.1726,1.111,0.9553,0.7795,0.9358,0.9302,0.8412,0.9409,0.906,0.8224,0.9401,0.9139,0.8407,0.9267,0.9441,0.93,0.8989,0.0,0.0,0.0,0.0,0.8128,0.8425,0.8302,0.8181,0.8304,0.8289,0.8281,0.8222,0.811,0.7913,0.7736,0.7554,0.7399,0.7304,0.7171,0.0,0.6994,0.701,0.707,0.7187,0.7252,0.7336,0.7459,0.7364,0.729,0.729,0.7206,0.721,0.721,0.713,0.7029,0.7029,0.6825,0.6684,0.6622,0.0,0.0,0.0,0.0,0.0,0.0,0.0,0.0,0.0,0.0,0.0,0.0,0.0,0.0,0.0,0.0,0.0,0.0,0.0,0.0,0.0,0.0,0.0,0.0,0.0,0.0,0.0,0.0,0.0,1.0721,1.109,0.0,0.0,0.0,0.0,1.0687,1.0965,1.1128,1.1128,1.1538,1.1779,1.1786,1.2084,1.225,1.2267,1.241,1.2484,1.2491,1.2491,1.2494,1.2498,1.2355,1.2291,1.2274,1.1965,1.183,1.1809,1.1504,1.1305,1.1127,1.0913,1.0586,1.0271,1.0399,1.0036,0.9447,0.985,0.9915,0.9885,0.9817,0.9658,0.9525,0.956,0.915,0.0,0.0,0.8592,0.8631,0.8656,0.879,0.8954,0.8894,0.8656,0.8463,0.8404,0.8043,0.7717,0.7703,0.7693,0.7573,0.7278,0.0,0.7241,0.7018,0.713,0.719,0.7309,0.723,0.7211,0.7274,0.7236,0.7221,0.7221,0.7215,0.721,0.721,0.7204,0.7202,0.7202,0.7029,0.6858,0.6624,0.6704,0.0,0.0,0.0,0.0,0.0,0.0,0.0,0.0,0.0,0.0,0.0,0.0,0.0,0.0,0.0,0.0,0.0,0.0,0.0,0.0,0.0,0.0,0.0,0.0,0.0,0.0,0.0,0.0,1.0904,1.1433,0.0,1.0931,1.0989,1.1094,1.1148,1.1341,1.1538,1.1804,1.1891,1.2023,1.2125,1.2233,1.2335,1.2427,1.2478,1.2501,1.2501,1.2501,1.2454,1.2366,1.2315,1.2182,1.1989,1.1877,1.1779,1.1687,1.1582,1.1538,1.1528,1.1423,1.1187,1.0933,1.0962,1.0732,1.0455,1.0521,1.0585,1.0588,1.0394,1.0264,1.0113,0.989,0.9661,0.9369,0.9377,0.9155,0.8985,0.9233,0.9106,0.8916,0.8928,0.883,0.8725,0.8744,0.8575,0.8455,0.831,0.7872,0.7543,0.741,0.7423,0.7372,0.7185,0.7195,0.7258,0.7225,0.7351,0.7454,0.75,0.763,0.7712,0.7712,0.7712,0.7712,0.7712,0.7712,0.7712,0.7712,0.7644,0.7529,0.7434,0.7415,0.7229,0.0,0.0,0.0,0.0,0.0,0.0,0.0,0.0,0.0,0.0,0.0,0.0,0.0,0.0,0.0,0.0,0.0,0.0,0.0,0.0,0.0,0.0,0.0,0.0,0.0,1.1029,1.1375,1.1128,1.1667,1.1847,1.1231,1.1423,1.1562,1.1613,1.1759,1.1932,1.2128,1.2186,1.2257,1.2359,1.2362,1.2406,1.2501,1.2501,1.2478,1.243,1.243,1.2352,1.221,1.2159,1.2023,1.1826,1.1779,1.1704,1.1619,1.1619,1.1619,1.1613,1.1562,1.1389,1.1158,1.1107,1.0999,1.0803,1.0803,1.0803,1.0789,1.0755,1.0653,1.0514,1.0219,1.0056,0.9954,0.9852,0.957,0.9356,0.9617,0.941,0.9204,0.916,0.9064,0.9025,0.8975,0.8942,0.8815,0.8614,0.8222,0.7786,0.7644,0.7687,0.7617,0.724,0.739,0.7472,0.7335,0.7549,0.7715,0.7715,0.7881,0.7989,0.7989,0.7947,0.7941,0.7986,0.7947,0.792,0.792,0.7889,0.7797,0.7709,0.7638,0.7513,0.7337,0.0,0.0,0.0,0.0,0.0,0.0,0.0,0.0,0.0,0.0,0.0,0.0,0.0,0.0,0.0,0.0,0.0,0.0,0.0,0.0,0.0,0.0,0.0,1.0734,1.125,1.1572,1.143,1.1803,1.2016,1.186,1.1843,1.1908,1.2057,1.2206,1.2291,1.2298,1.2427,1.2501,1.2501,1.2501,1.2501,1.2501,1.2501,1.243,1.2291,1.2291,1.2206,1.205,1.1901,1.183,1.1816,1.1681,1.1619,1.1619,1.1619,1.1616,1.1599,1.145,1.1297,1.1214,1.1002,1.0853,1.0721,1.0721,1.0721,1.0721,1.0714,1.0717,1.0663,1.0365,1.0276,1.0215,0.9907,0.9822,0.9822,0.9822,0.9822,0.9785,0.9642,0.9476,0.9297,0.9152,0.8992,0.8869,0.8668,0.8637,0.8431,0.7886,0.8022,0.7983,0.734,0.7657,0.0,0.7662,0.7826,0.7989,0.7983,0.8039,0.8039,0.8039,0.7916,0.7898,0.8029,0.7913,0.784,0.784,0.784,0.7718,0.7461,0.7434,0.753,0.7818,0.0,0.0,0.0,0.0,0.0,0.0,0.0,0.0,0.0,0.0,0.0,0.0,0.0,0.0,0.0,0.0,0.0,0.0,0.0,0.0,0.0,1.1563,1.1583,1.1125,1.1463,1.1799,1.187,1.2176,1.2325,1.2179,1.2166,1.2182,1.2223,1.2267,1.2335,1.2437,1.2481,1.2501,1.2501,1.2501,1.2501,1.2501,1.2501,1.243,1.2291,1.2291,1.2152,1.1894,1.185,1.1775,1.1677,1.1636,1.1619,1.1619,1.1619,1.1555,1.145,1.1406,1.1297,1.1214,1.1002,1.0853,1.0721,1.0721,1.0721,1.0704,1.0592,1.0629,1.0643,1.0236,1.0192,1.0215,0.9907,0.9822,0.9822,0.9822,0.9822,0.9785,0.9642,0.9657,0.96,0.9516,0.946,0.9387,0.9235,0.9119,0.8848,0.8202,0.8217,0.8205,0.7856,0.7962,0.8102,0.7893,0.8156,0.8336,0.824,0.8391,0.8499,0.8499,0.8463,0.8456,0.8496,0.846,0.844,0.844,0.844,0.8401,0.8322,0.7985,0.7878,0.0,0.0,0.0,0.0,0.0,0.0,0.0,0.0,0.0,0.0,0.0,0.0,0.0,0.0,0.0,0.0,0.0,0.0,0.0,0.0,0.0,0.0,1.1836,1.1877,1.1691,1.186,1.2057,1.2145,1.2362,1.2471,1.2386,1.2379,1.2379,1.2379,1.2379,1.2416,1.2498,1.2501,1.2501,1.2501,1.2501,1.2474,1.2413,1.2413,1.2308,1.2098,1.2098,1.1972,1.1742,1.1742,1.1697,1.1619,1.1619,1.1619,1.1613,1.1552,1.147,1.1392,0.0,0.0,0.0,0.0,1.0795,1.0721,1.0721,1.0677,1.0609,1.0521,1.051,1.0477,1.0085,1.0048,1.0134,0.989,0.9822,0.9822,0.9822,0.9822,0.9785,0.9642,0.9717,0.9781,0.9639,0.9608,0.9564,0.9412,0.9316,0.0,0.857,0.8574,0.8458,0.8069,0.8283,0.8416,0.822,0.8488,0.8624,0.8545,0.8699,0.8804,0.8804,0.8747,0.0,0.0,0.0,0.8587,0.853,0.8462,0.0,0.0,0.0,0.0,0.0,0.0,0.0,0.0,0.7821,0.7801,0.0,0.0,0.0,0.0,0.0,0.0,0.0,0.0,0.0,0.0,0.0,0.0,0.0,0.0,0.0,0.0,1.2134,1.2199,1.2385,1.2305,1.2315,1.2315,1.2427,1.2501,1.2501,1.2501,1.2501,1.2501,1.2501,1.2501,1.2501,1.2501,0.0,0.0,0.0,1.2416,1.2291,1.2274,1.2118,1.183,1.183,1.1755,1.1619,1.1619,1.1619,1.1619,1.1619,1.1619,1.1606,1.1453,1.1372,1.1341,1.1341,1.1168,1.084,1.0772,1.0721,1.0721,1.0721,0.0,0.0,1.0473,1.0382,1.0249,1.0014,0.9974,0.9957,0.9866,0.9822,0.9822,0.9822,0.9822,0.9785,0.9642,0.9717,0.9781,0.9639,0.9595,0.9544,0.9408,0.9303,0.9089,0.8905,0.8885,0.8716,0.8156,0.8549,0.8826,0.8598,0.8768,0.8875,0.8858,0.8858,0.0,0.8858,0.8788,0.876,0.8824,0.8618,0.8401,0.8327,0.814,0.8015,0.8015,0.7998,0.7988,0.7988,0.7988,0.7988,0.7982,0.777,0.7726,0.0,0.0,0.0,0.0,0.0,0.0,0.0,0.0,0.0,0.0,0.0,0.0,0.0,0.0,0.0,1.285,1.2765,1.2781,1.2798,1.2612,1.2461,1.2461,1.2484,1.2501,1.2501,1.2501,1.2501,1.2501,1.2501,1.2501,1.2501,1.2501,1.2501,1.2501,1.2389,1.2318,1.2291,1.2169,1.2013,1.183,1.183,0.0,1.1619,1.1619,1.1619,1.1619,1.1619,1.1619,1.1606,1.1453,1.125,1.1033,1.1033,1.0857,1.0761,1.0731,1.0721,1.0721,1.0721,1.0619,1.0473,1.0358,1.0304,1.0229,0.9951,0.9889,0.0,0.9866,0.9822,0.9822,0.9822,0.9822,0.9785,0.9642,0.9717,0.9781,0.9639,0.9513,0.9415,0.9388,0.9164,0.8971,0.8888,0.8885,0.8881,0.8716,0.8826,0.8881,0.8826,0.8881,0.8838,0.8767,0.8754,0.8754,0.8754,0.8726,0.8669,0.8577,0.8408,0.835,0.8323,0.8241,0.8225,0.8225,0.8102,0.7988,0.7988,0.7988,0.7988,0.7988,0.7931,0.8038,0.0,0.0,0.0,0.0,0.0,0.0,0.0,0.0,0.0,0.0,0.0,1.2956,1.2934,0.0,1.3219,1.3256,1.3055,1.291,1.2991,1.2685,1.2501,1.2501,1.2501,1.2501,1.2501,1.2501,1.2501,1.2501,1.2501,1.2501,1.2501,1.2501,1.2501,1.2501,1.2366,1.2254,1.2176,1.2023,1.187,1.1725,1.1725,1.1687,1.1619,1.1619,1.1619,1.1619,1.1619,1.1575,1.1487,1.126,1.1036,1.0766,1.0766,1.0785,1.0721,1.0721,1.0721,1.0721,1.0721,1.0575,1.0375,1.0304,1.0175,1.0022,0.9866,0.9873,0.9859,0.9842,0.9822,0.9822,0.9822,0.9822,0.9802,0.9734,0.9771,0.9802,0.973,0.954,0.9381,0.9381,0.9144,0.8885,0.8885,0.8885,0.8885,0.8885,0.8885,0.8885,0.8885,0.8885,0.8854,0.8832,0.8825,0.8825,0.8825,0.8825,0.8726,0.8496,0.8414,0.8309,0.816,0.8153,0.8153,0.8153,0.8029,0.7988,0.7988,0.7988,0.7988,0.7988,0.7988,0.8123,0.0,0.0,0.0,0.0,0.0,0.0,0.0,1.2889,1.2962,1.3027,1.3181,1.3336,1.3381,1.3435,1.3467,1.3578,1.3213,1.2974,1.3102,1.2733,1.2501,1.2501,1.2501,1.2501,1.2501,1.2501,1.2501,1.2501,1.2501,1.2501,1.2501,1.2501,1.2488,1.2461,1.2322,1.2172,1.202,1.1867,1.1731,1.1619,1.1619,1.1619,1.1619,1.1619,1.1619,1.1616,1.1589,1.1487,1.1324,1.106,1.0793,1.0721,1.0721,1.0721,1.0721,1.0721,1.0721,1.0717,1.0687,1.05,1.0276,1.0246,1.0046,0.9822,0.9822,0.9822,0.9822,0.9822,0.9802,0.9781,0.9781,0.9758,0.9744,0.9774,0.9781,0.9788,0.9815,0.9588,0.9381,0.9381,0.9144,0.8885,0.8885,0.8885,0.8885,0.8885,0.8885,0.8885,0.8885,0.8885,0.8885,0.8885,0.8885,0.8885,0.8885,0.8854,0.8777,0.8499,0.8455,0.8319,0.8002,0.7988,0.7988,0.7988,0.7988,0.7988,0.7988,0.7988,0.7988,0.7988,0.7988,0.8123,1.5528,1.4811,1.3619,1.2361,1.23,1.2588,0.0,1.3084,1.3401,1.3717,1.3928,1.4115,1.4233,1.4117,1.403,1.4013,1.3465,1.3102,1.312,1.2733,1.2501,1.2501,1.2501,1.2501,1.2501,1.2501,1.2501,1.2501,1.2501,1.2501,1.2501,1.2501,1.2444,1.2318,1.2169,1.2013,1.1857,1.1714,1.1636,1.1619,1.1619,1.1619,1.1619,1.1619,1.1619,1.1613,1.1474,1.1331,1.1175,1.1016,1.0793,1.0721,1.0721,1.0721,1.0721,1.0721,1.0721,1.07,1.0565,1.0412,1.0256,1.012,0.9899,0.9822,0.9822,0.9822,0.9822,0.9822,0.973,0.9632,0.9632,0.9534,0.9462,0.9602,0.9632,0.9666,0.9795,0.9588,0.9381,0.9381,0.9144,0.8885,0.8885,0.8885,0.8885,0.8885,0.8885,0.8885,0.8885,0.8885,0.8885,0.8885,0.8885,0.8885,0.8885,0.8815,0.8662,0.8492,0.8364,0.8218,0.7995,0.7988,0.7988,0.7988,0.7988,0.7988,0.7988,0.7988,0.7988,0.7988,0.7988,0.8123,1.5102,1.3886,1.2717,1.2549,1.2613,1.2824,1.315,1.3421,1.3632,1.3989,1.4205,1.4305,1.4259,1.4286,1.4175,1.3946,1.3465,1.312,1.312,1.2733,1.2501,1.2501,1.2501,1.2501,1.2501,1.2501,1.2501,1.2501,1.2501,1.2501,1.2501,1.2501,1.2437,1.2294,1.2142,1.1986,1.1833,1.1691,1.1619,1.1619,1.1619,1.1619,1.1619,1.1619,1.1569,1.1477,1.1324,1.1175,1.1026,1.0877,1.0778,1.0721,1.0721,1.0721,1.0721,1.0721,1.0721,1.07,1.0544,1.0399,1.0256,1.01,0.9943,0.9876,0.9846,0.9883,0.9872,0.9846,0.972,0.9608,0.9608,0.9561,0.953,0.9595,0.9673,0.9747,0.9808,0.9588,0.9354,0.9323,0.9079,0.8854,0.8821,0.8824,0.8885,0.8885,0.8885,0.8885,0.8885,0.8885,0.8885,0.8885,0.8885,0.8885,0.8885,0.8798,0.8645,0.8492,0.8398,0.8201,0.7995,0.7988,0.7988,0.7988,0.7988,0.7988,0.7988,0.7988,0.7988,0.7988,0.7988,0.8123,1.4935,1.3621,1.2721,1.2792,1.2913,1.31,1.3473,1.3611,1.3748,1.4031,1.4203,1.4207,1.4055,1.4045,1.3898,1.3586,1.3197,1.2965,1.2965,1.2622,1.2444,1.2444,1.2406,1.2396,1.244,1.2478,1.2501,1.2501,1.2501,1.2501,1.2501,1.2501,1.2416,1.2233,1.2121,1.1969,1.1775,1.167,1.1619,1.1619,1.1619,1.1619,1.1616,1.1575,1.1497,1.1382,1.1185,1.1046,1.087,1.0782,1.0721,1.0721,1.0721,1.0721,1.0721,1.0721,1.0694,1.0636,1.0483,1.0337,1.0192,0.9974,0.9923,0.9903,0.9852,0.9897,0.9893,0.9805,0.9659,0.9537,0.9496,0.9483,0.9483,0.9483,0.9629,0.9764,0.9764,0.953,0.9344,0.9231,0.8967,0.8791,0.8723,0.8801,0.8834,0.8875,0.8885,0.8885,0.8885,0.8885,0.8885,0.8885,0.8885,0.8885,0.8885,0.8798,0.8645,0.8492,0.8398,0.8201,0.7995,0.7988,0.7988,0.7988,0.7988,0.7988,0.7988,0.7988,0.7988,0.7988,0.7988,0.8123,1.5878,1.4903,1.413,1.305,1.3096,1.3405,1.36,1.3774,1.3854,1.3847,1.3851,1.3806,1.375,1.3428,1.312,1.3123,1.2811,1.2501,1.2501,1.2383,1.2298,1.2298,1.2166,1.2135,1.2281,1.242,1.2501,1.2501,1.2501,1.2501,1.2501,1.2501,1.2369,1.2077,1.2064,1.1921,1.163,1.1619,1.1619,1.1619,1.1619,1.1619,1.1613,1.1463,1.1396,1.1375,1.108,1.0884,1.087,1.0782,1.0721,1.0721,1.0721,1.0721,1.0721,1.0721,1.0626,1.0477,1.0337,1.0185,0.997,0.9876,0.9829,0.9825,0.9822,0.9825,0.9798,0.9656,0.9507,0.9354,0.9262,0.9224,0.9224,0.9224,0.9398,0.9615,0.9615,0.9374,0.9214,0.921,0.8852,0.854,0.8686,0.8713,0.8767,0.8861,0.8885,0.8885,0.8885,0.8885,0.8885,0.8885,0.8885,0.8885,0.8885,0.8798,0.8645,0.8492,0.8398,0.8201,0.7995,0.7988,0.7988,0.7988,0.7988,0.7988,0.7988,0.7988,0.7988,0.7988,0.7988,0.8123,1.4201,1.3284,1.2495,1.2332,1.2444,1.2727,1.2831,1.3208,1.3467,1.3336,1.3586,1.3755,1.3432,1.3266,1.3151,1.2956,1.2671,1.2501,1.2501,1.2461,1.2396,1.2301,1.2244,1.2233,1.2284,1.2332,1.24,1.2494,1.2501,1.2501,1.2501,1.2413,1.2271,1.2145,1.1962,1.1816,1.1619,1.1619,1.1619,1.1619,1.1619,1.1619,1.1613,1.146,1.1335,1.1229,1.1033,1.0823,1.0792,1.0741,1.0721,1.0721,1.0721,1.0721,1.0707,1.0605,1.0477,1.0344,1.0297,1.0178,0.9963,0.9869,0.989,0.9889,0.9852,0.989,0.9879,0.9791,0.9571,0.9367,0.9317,0.9286,0.921,0.921,0.9388,0.9608,0.9608,0.9367,0.918,0.9028,0.8726,0.8499,0.855,0.8645,0.8764,0.8861,0.8885,0.8885,0.8885,0.8885,0.8885,0.8885,0.8885,0.8885,0.8885,0.8706,0.8537,0.8486,0.8252,0.8096,0.7992,0.7988,0.7988,0.7988,0.7988,0.7988,0.7988,0.7988,0.7988,0.7992,0.8143,0.8272,1.3264,1.2515,1.1694,1.2022,1.2186,1.2324,1.2548,1.2896,1.3089,1.2823,1.3157,1.3343,1.2967,1.2823,1.286,1.3003,1.2664,1.2459,1.2719,1.2534,1.2393,1.2301,1.2244,1.223,1.2284,1.224,1.2271,1.2416,1.2474,1.2457,1.2349,1.2311,1.2196,1.1986,1.1881,1.1762,1.1619,1.1619,1.1619,1.1619,1.1619,1.1592,1.1535,1.1379,1.1226,1.108,1.0931,1.0812,1.0721,1.0721,1.0721,1.0721,1.0721,1.0721,1.07,1.0548,1.0402,1.0273,1.0215,1.0097,0.9889,0.9852,0.9886,0.9886,0.9849,0.989,0.9862,0.972,0.9568,0.9425,0.9266,0.9228,0.9265,0.91,0.9351,0.9595,0.954,0.933,0.9166,0.8912,0.8652,0.8421,0.8472,0.8655,0.8825,0.8868,0.8885,0.8885,0.8885,0.8885,0.8885,0.8885,0.8885,0.8885,0.8885,0.8659,0.8482,0.8482,0.8204,0.7988,0.7988,0.7988,0.7988,0.7988,0.7988,0.7988,0.7988,0.7988,0.8019,0.8126,0.8225,0.8377,1.3094,1.2437,1.1799,1.2168,1.2253,1.2347,1.2656,1.2742,1.2726,1.2445,1.2558,1.2635,1.2445,1.2287,1.2366,1.3052,1.2596,1.2333,1.3003,1.2616,1.2298,1.2291,1.2162,1.2132,1.2277,1.2159,1.2135,1.2281,1.241,1.2362,1.2088,1.2196,1.2132,1.184,1.1823,1.1755,1.1619,1.1619,1.1619,1.1619,1.1609,1.1531,1.1385,1.1223,1.1077,1.0873,1.0785,1.0721,1.0721,1.0721,1.0721,1.0721,1.0721,1.0714,1.069,1.0538,1.0392,1.0246,1.0031,0.9879,0.9822,0.9822,0.9822,0.9822,0.9822,0.9822,0.9761,0.9476,0.9493,0.95,0.9006,0.9154,0.9286,0.8949,0.9276,0.9554,0.9401,0.9313,0.9166,0.8912,0.8587,0.8333,0.8462,0.8737,0.8885,0.8885,0.8885,0.8885,0.8885,0.8885,0.8885,0.8885,0.8885,0.8878,0.8871,0.8655,0.8479,0.8472,0.8197,0.7988,0.7988,0.7988,0.7988,0.7988,0.7988,0.7988,0.7988,0.7988,0.8119,0.8323,0.833,0.8435,1.1398,1.1266,1.1149,1.1111,1.1271,1.1528,1.1608,1.202,1.2348,1.2244,1.2522,1.2827,1.305,1.279,1.2659,1.3126,1.2777,1.2493,1.2646,1.2548,1.241,1.2301,1.2254,1.2247,1.2288,1.2254,1.2247,1.2288,1.222,1.2189,1.223,1.205,1.1911,1.1833,1.1728,1.1657,1.1619,1.1619,1.1619,1.1616,1.1504,1.143,1.1382,1.1121,1.0982,1.0873,1.0785,1.0721,1.0721,1.0721,1.0721,1.0721,1.0721,1.0649,1.0531,1.0388,1.0239,1.0024,0.993,0.9852,0.9822,0.9822,0.9822,0.9822,0.9822,0.9822,0.9785,0.9602,0.9496,0.9388,0.9157,0.9076,0.9032,0.8902,0.9195,0.9398,0.9303,0.9238,0.9166,0.8912,0.8754,0.8574,0.8496,0.8737,0.8885,0.8885,0.8885,0.8885,0.8885,0.8885,0.8885,0.8885,0.8885,0.8838,0.8777,0.8594,0.8435,0.8381,0.8147,0.7988,0.7988,0.7988,0.7988,0.7988,0.7988,0.7988,0.7988,0.7988,0.8119,0.8323,0.8377,0.853,1.0938,1.0931,1.086,1.0843,1.0945,1.1067,1.1067,1.1341,1.1657,1.1726,1.2046,1.2471,1.2874,1.2706,1.2678,1.3301,1.2756,1.2432,1.2716,1.2579,1.2471,1.2393,1.2383,1.2383,1.2383,1.2328,1.2318,1.2379,1.2247,1.2142,1.2091,1.1925,1.1803,1.1738,1.166,1.1619,1.1619,1.1619,1.1619,1.1616,1.1463,1.1355,1.1284,1.1053,1.088,1.0873,1.0785,1.0758,1.0749,1.0748,1.0721,1.0721,1.0721,1.0626,1.0473,1.0334,1.0181,0.9967,0.9873,0.9822,0.9822,0.9822,0.9822,0.9822,0.9822,0.9822,0.9778,0.9568,0.9496,0.9415,0.9133,0.9045,0.9018,0.8898,0.9113,0.9316,0.9228,0.921,0.9146,0.8879,0.8716,0.8604,0.8584,0.8669,0.8784,0.8861,0.8824,0.8807,0.8875,0.8885,0.8885,0.8885,0.8885,0.8821,0.8723,0.857,0.8421,0.833,0.8126,0.7988,0.7988,0.7988,0.7988,0.7988,0.7988,0.8022,0.814,0.8022,0.8187,0.8465,0.8476,0.8601,1.1241,1.1087,1.0934,1.0914,1.0911,1.0904,1.0884,1.088,1.0971,1.115,1.1497,1.1943,1.2427,1.2376,1.2572,1.339,1.2808,1.2415,1.2926,1.2733,1.2501,1.2501,1.2501,1.2501,1.2501,1.2389,1.2362,1.2467,1.2342,1.2145,1.1874,1.1823,1.1745,1.1623,1.1619,1.1619,1.1619,1.1619,1.1609,1.1589,1.1433,1.128,1.1128,1.0985,1.085,1.0843,1.0778,1.0795,1.084,1.0775,1.0721,1.0721,1.0721,1.0616,1.0449,1.0327,1.0171,0.9936,0.9866,0.9822,0.9822,0.9822,0.9822,0.9822,0.9822,0.9822,0.9758,0.9462,0.9476,0.9479,0.8993,0.9032,0.9093,0.8912,0.9062,0.9228,0.919,0.918,0.9042,0.8764,0.8604,0.8554,0.8686,0.8601,0.8608,0.8841,0.8825,0.8791,0.8865,0.8885,0.8885,0.8885,0.8865,0.8801,0.872,0.8554,0.8401,0.833,0.8126,0.7988,0.7988,0.7988,0.7988,0.7988,0.7988,0.8116,0.8323,0.8116,0.8221,0.8706,0.8554,0.8645,1.1229,1.1236,1.1284,1.1158,1.1124,1.1094,1.0907,1.088,1.0971,1.1217,1.1406,1.1833,1.2694,1.2731,1.2823,1.3184,1.2978,1.2692,1.2632,1.2579,1.2501,1.2501,1.2501,1.2501,1.2501,1.2478,1.2427,1.2335,1.2186,1.2077,1.2023,1.1789,1.1643,1.1619,1.1619,1.1619,1.1619,1.1619,1.1555,1.1426,1.1274,1.1128,1.0982,1.0829,1.0761,1.0758,1.0731,1.0734,1.0758,1.0731,1.0721,1.0721,1.0721,1.0555,1.0314,1.029,1.01,0.9856,0.9829,0.9822,0.9822,0.9822,0.9822,0.9822,0.9822,0.9822,0.9758,0.9462,0.9401,0.9347,0.8966,0.8902,0.8967,0.8888,0.9144,0.9273,0.9028,0.8977,0.8923,0.8747,0.8689,0.8679,0.8706,0.8686,0.873,0.8858,0.8861,0.8854,0.8878,0.8885,0.8885,0.8885,0.8825,0.8737,0.8713,0.8462,0.8347,0.8323,0.8126,0.7988,0.7988,0.7988,0.7988,0.7988,0.7988,0.8116,0.8323,0.8116,0.8221,0.8706,0.8554,0.8645,1.1345,1.1335,1.1355,1.1202,1.1231,1.1084,1.0782,1.0711,1.0712,1.087,1.0948,1.1272,1.2075,1.2086,1.2103,1.2375,1.2232,1.2149,1.2306,1.2274,1.2328,1.2484,1.2501,1.2501,1.2501,1.2501,1.2444,1.2301,1.2149,1.2026,1.1945,1.1735,1.1619,1.1619,1.1619,1.1619,1.1619,1.1541,1.1463,1.1389,1.1158,1.1016,1.0877,1.0792,1.0765,1.0766,1.0755,1.0765,1.0833,1.0755,1.0721,1.0711,1.0633,1.047,1.0273,1.0188,1.0015,0.9822,0.9822,0.9822,0.9822,0.9822,0.9822,0.9822,0.9822,0.9822,0.9758,0.9462,0.9381,0.9313,0.8959,0.8885,0.8885,0.8885,0.9045,0.9113,0.8912,0.8885,0.8861,0.8845,0.8699,0.8642,0.8801,0.8635,0.856,0.8784,0.8754,0.873,0.8811,0.8818,0.8797,0.8875,0.8817,0.8798,0.8716,0.8509,0.835,0.8327,0.8126,0.7988,0.7988,0.7988,0.8025,0.816,0.816,0.8272,0.8499,0.8347,0.8772,0.9736,0.8933,0.904,1.1463,1.144,1.1409,1.129,1.1236,1.1094,1.0643,1.0514,1.0473,1.0423,1.0484,1.0767,1.1403,1.1374,1.1378,1.1657,1.1542,1.1582,1.2067,1.2135,1.2172,1.2467,1.2501,1.2501,1.2501,1.2501,1.243,1.2254,1.2071,1.1915,1.1792,1.1681,1.1619,1.1619,1.1619,1.1619,1.1619,1.1467,1.1375,1.1338,1.1073,1.0863,1.083,1.0775,1.0785,1.0826,1.0772,1.0789,1.0823,1.0768,1.07,1.066,1.0538,1.0385,1.0215,1.0031,0.9889,0.9822,0.9822,0.9822,0.9822,0.9822,0.9822,0.9822,0.9822,0.9822,0.9758,0.9462,0.9381,0.9313,0.8959,0.8885,0.8892,0.8977,0.8905,0.8892,0.8977,0.8905,0.8885,0.8885,0.8693,0.8567,0.8842,0.8543,0.836,0.8621,0.856,0.8526,0.8645,0.8689,0.8757,0.8821,0.8834,0.8801,0.8767,0.8587,0.8448,0.837,0.8191,0.8052,0.8083,0.8106,0.816,0.8364,0.8368,0.8445,0.871,0.8557,0.9268,1.0668,0.9316,0.954,1.1565,1.1599,1.1596,1.1582,1.1474,1.1253,1.0802,1.0592,1.0405,1.011,1.0298,1.0639,1.1084,1.1347,1.1578,1.1707,1.1655,1.1741,1.2053,1.2135,1.2172,1.2467,1.2501,1.2501,1.2501,1.2501,1.2386,1.2104,1.182,1.1653,1.164,1.1626,1.1619,1.1619,1.1619,1.1619,1.1619,1.1467,1.1321,1.1251,1.1023,1.0809,1.0741,1.0727,1.0727,1.0741,1.0724,1.0727,1.0741,1.0724,1.0636,1.051,1.0497,1.0317,1.0007,0.9994,0.9889,0.9822,0.9822,0.9822,0.9822,0.9822,0.9822,0.9822,0.9822,0.9822,0.9758,0.9462,0.9381,0.9313,0.8959,0.8885,0.8971,0.9103,0.9032,0.8974,0.9159,0.9032,0.8885,0.8885,0.8693,0.8533,0.8703,0.8476,0.8374,0.8479,0.8489,0.8486,0.8503,0.8625,0.8716,0.873,0.873,0.8781,0.8851,0.8652,0.8537,0.8662,0.8404,0.8306,0.8435,0.8319,0.8316,0.8459,0.8462,0.8547,0.871,0.8557,0.9268,1.0668,0.9316,0.9969,1.1552,1.1619,1.1619,1.1619,1.1572,1.1385,1.0843,1.0673,1.0521,1.0065,1.0111,1.0301,1.0583,1.0749,1.0841,1.0979,1.0958,1.1172,1.1644,1.1657,1.1837,1.2318,1.2376,1.241,1.2491,1.2423,1.225,1.1945,1.1735,1.1619,1.1619,1.1619,1.1619,1.1619,1.1619,1.1575,1.1484,1.1331,1.1179,1.1033,1.0884,1.0778,1.0721,1.0721,1.0772,1.0853,1.0761,1.0772,1.0782,1.0758,1.0629,1.0483,1.0399,1.0236,0.9977,0.9883,0.9873,0.9822,0.9822,0.9822,0.9822,0.9822,0.9822,0.9822,0.9822,0.9761,0.9649,0.9442,0.9313,0.9195,0.8991,0.8885,0.8898,0.9011,0.8981,0.8898,0.9011,0.8906,0.8801,0.8801,0.856,0.8401,0.8547,0.8404,0.834,0.8347,0.8357,0.8357,0.8357,0.8482,0.8608,0.8699,0.8794,0.8817,0.8878,0.8743,0.8645,0.8706,0.8513,0.8425,0.8479,0.8428,0.8469,0.8618,0.8618,0.8696,0.8849,0.9479,1.048,1.1705,1.1196,1.1851,1.1525,1.1619,1.163,1.1674,1.1582,1.1362,1.0894,1.0683,1.0487,1.0061,1.0024,1.0151,1.0259,1.028,1.0314,1.0412,1.0463,1.0673,1.1189,1.1335,1.1565,1.2037,1.2128,1.2193,1.2294,1.2213,1.2064,1.1847,1.1697,1.1619,1.1619,1.1619,1.1619,1.1619,1.1575,1.1501,1.1392,1.1196,1.105,1.088,1.0729,1.0721,1.0721,1.0768,1.0779,1.0877,1.0766,1.0756,1.0803,1.0714,1.0538,1.0351,1.0253,1.0117,0.9906,0.9863,0.9822,0.9822,0.9822,0.9822,0.9822,0.9822,0.9822,0.9815,0.9771,0.969,0.9578,0.9425,0.9239,0.9066,0.8908,0.8885,0.8885,0.8885,0.8885,0.8885,0.8885,0.8818,0.871,0.871,0.8472,0.8354,0.8404,0.8299,0.8204,0.8204,0.8204,0.8204,0.8204,0.833,0.8462,0.857,0.8713,0.8842,0.8875,0.8842,0.8777,0.8777,0.8635,0.857,0.8615,0.8574,0.8621,0.8774,0.8777,0.8992,0.9427,1.0296,1.1487,1.2906,1.258,1.3073,1.1497,1.1619,1.1653,1.1792,1.1494,1.1128,1.0914,1.0605,1.0239,1.0017,1.0171,1.028,1.028,1.028,1.028,1.0283,1.0399,1.0599,1.0843,1.1206,1.145,1.1606,1.1748,1.1837,1.1837,1.1837,1.1833,1.183,1.1697,1.1619,1.1619,1.1619,1.1619,1.1619,1.147,1.1392,1.1392,1.1097,1.0884,1.088,1.0729,1.0721,1.0724,1.0809,1.088,1.088,1.088,1.0793,1.0711,1.0558,1.0321,0.9994,0.999,0.9896,0.9822,0.9822,0.9822,0.9822,0.9822,0.9822,0.9822,0.9822,0.9822,0.9795,0.9652,0.9612,0.9578,0.9425,0.9167,0.8885,0.8885,0.8885,0.8885,0.8885,0.8885,0.8885,0.8885,0.8818,0.871,0.871,0.8472,0.8323,0.8323,0.8143,0.7992,0.7992,0.7992,0.7992,0.7992,0.8177,0.8327,0.8327,0.8404,0.8611,0.8858,0.8881,0.8881,0.8881,0.8794,0.8774,0.8871,0.8788,0.8781,0.8878,0.8881,0.9478,1.0672,1.0672,1.1873,1.4164,1.2965,1.3073,1.087,1.108,1.1076,1.1087,1.0965,1.0795,1.0548,1.0382,1.0205,0.9947,1.01,1.028,1.028,1.0446,1.0616,1.0721,1.0775,1.087,1.1067,1.1267,1.1447,1.1603,1.184,1.1945,1.184,1.183,1.1789,1.1694,1.1643,1.1619,1.1619,1.1619,1.1619,1.1619,1.147,1.1341,1.1236,1.1043,1.083,1.0729,1.0782,1.0809,1.0813,1.1026,1.1094,1.1084,1.088,1.0765,1.07,1.0453,1.0229,0.9987,0.9987,0.9896,0.9832,0.9876,0.9916,0.9916,0.9916,0.9916,0.9899,0.9852,0.9822,0.9795,0.9652,0.9537,0.9401,0.915,0.8956,0.8885,0.8885,0.8885,0.8885,0.8885,0.9015,0.9059,0.8905,0.8818,0.8679,0.8574,0.8316,0.8113,0.8113,0.8022,0.7988,0.7988,0.7988,0.7988,0.7988,0.8174,0.8323,0.8323,0.8397,0.8564,0.8764,0.8781,0.8828,0.8875,0.8838,0.8834,0.8881,0.8838,0.8834,0.8881,0.8885,0.9482,1.0726,1.1492,1.3068,1.5351,1.497,1.5024,1.0518,1.0792,1.0786,1.0749,1.068,1.0521,1.0388,1.0273,1.0137,0.9944,1.0148,1.0344,1.029,1.0473,1.0629,1.0547,1.0685,1.0853,1.0833,1.1056,1.128,1.143,1.1609,1.1731,1.1748,1.1752,1.1714,1.1626,1.1619,1.1619,1.1619,1.1619,1.1619,1.1619,1.147,1.1345,1.125,1.1104,1.0982,1.0887,1.0982,1.1029,1.1033,1.1121,1.1131,1.1067,1.0826,1.0656,0.0,1.0293,1.0103,0.9903,0.9903,0.9879,0.9859,0.9953,1.0024,1.0137,1.0137,1.0038,0.997,0.9876,0.9791,0.9629,0.9483,0.9371,0.9245,0.9005,0.8885,0.8885,0.8885,0.8885,0.8885,0.8885,0.9049,0.9169,0.8967,0.8818,0.8665,0.8513,0.8241,0.7988,0.7988,0.7988,0.7988,0.7988,0.7988,0.7988,0.7988,0.8123,0.8184,0.8184,0.8262,0.8377,0.853,0.8648,0.875,0.8794,0.8851,0.8885,0.8885,0.8885,0.9099,0.9588,0.9588,1.0406,1.2037,1.3171,1.4476,1.5891,1.5891,1.5891,0.0,1.0673,1.0704,1.0769,1.0565,1.0297,1.0429,1.0256,0.0,1.0004,1.0283,1.0436,1.0304,1.0388,1.0388,1.0061,1.0443,1.0619,1.0334,1.0673,1.1009,1.1175,1.1265,1.1307,1.1592,1.1619,1.1619,1.1619,1.1619,1.1619,1.1619,1.1619,1.1619,1.1619,1.148,1.1402,1.1392,1.124,1.1231,1.1231,1.1241,1.1168,1.1148,1.1158,1.1073,1.084,1.0755,1.0527,1.0253,1.0097,0.9886,0.9822,0.9832,0.9862,0.9987,1.0011,1.0171,1.0293,1.0283,1.0185,0.9997,0.9967,0.9724,0.934,0.9255,0.9204,0.9166,0.8977,0.8885,0.8885,0.8885,0.8885,0.8885,0.8885,0.9055,0.918,0.8957,0.8818,0.8676,0.8503,0.8235,0.7988,0.7988,0.7988,0.7988,0.7988,0.7988,0.7988,0.7988,0.7988,0.7988,0.7988,0.7988,0.8099,0.8241,0.8516,0.8686,0.871,0.8845,0.8927,0.9047,0.9047,0.9588,1.0781,1.0891,1.2037,1.4223,1.5351,1.5891,1.5891,1.5891,1.5891,0.9711,0.0,1.0125,1.0107,1.0034,1.0051,0.0,1.0192,1.0226,1.0226,1.0283,1.0321,1.0287,1.0307,1.0341,1.0382,1.0575,1.0656,1.047,1.0734,1.1018,1.1467,1.1511,1.1541,1.1613,1.1619,1.1619,1.1619,1.1619,1.1619,1.1619,1.1619,1.1619,1.1619,1.1586,1.1508,1.1392,1.124,1.1231,1.1234,1.128,1.1219,1.1002,1.1114,1.0955,1.0592,1.0446,1.0276,1.0031,0.9937,0.9852,0.9832,0.9886,0.9957,1.0014,1.0304,1.0409,1.0426,1.0317,1.0256,1.0168,0.9825,0.9483,0.9258,0.9221,0.9076,0.8981,0.8892,0.8885,0.8885,0.8885,0.8885,0.8885,0.8885,0.9137,0.9225,0.8845,0.8828,0.8774,0.8394,0.817,0.7988,0.7988,0.7988,0.7988,0.7988,0.7988,0.7988,0.7988,0.7988,0.7988,0.7988,0.7988,0.8005,0.8092,0.8265,0.8469,0.8696,0.8743,0.9193,1.0233,1.0296,1.0836,1.1978,1.2911,1.3673,1.4223,1.5351,1.5891,1.5891,1.5891,1.5891,0.9224,0.9679,0.9984,1.0036,1.0093,1.0137,1.0004,1.0168,1.0259,1.0188,1.0232,1.0259,1.0188,1.0232,1.0259,1.0195,1.0371,1.0538,1.0588,1.0799,1.1022,1.147,1.1514,1.1541,1.1613,1.1619,1.1619,1.1619,1.1619,1.1619,1.1619,1.1619,1.1619,1.1619,1.1619,1.1579,1.1497,1.1413,1.1372,1.1372,1.1314,1.1202,1.1043,1.0914,1.0687,1.0385,1.0239,1.0086,0.9883,0.9869,0.9866,0.9879,1.0097,1.0195,1.0273,1.0432,1.0534,1.0575,1.0429,1.0243,0.9995,0.9547,0.9347,0.9197,0.9076,0.9001,0.8885,0.8885,0.8885,0.8885,0.8885,0.8885,0.8885,0.8885,0.9062,0.9113,0.8866,0.8771,0.8659,0.8414,0.8191,0.7988,0.7988,0.7988,0.7988,0.7988,0.8099,0.8119,0.7998,0.8102,0.8116,0.7995,0.7988,0.8187,0.8676,0.8811,0.8798,0.8641,0.9205,0.9904,1.0664,1.1214,1.2037,1.3181,1.4374,1.4976,1.4976,1.5618,1.5891,1.5891,1.5891,1.5891,0.8983,0.9494,0.9949,1.0226,1.0263,1.0239,1.0024,1.0168,1.0243,1.0048,1.0171,1.0205,1.0011,1.0137,1.0141,0.9924,1.0148,1.046,1.0778,1.0914,1.109,1.1392,1.1426,1.1477,1.1606,1.1619,1.1619,1.1619,1.1619,1.1619,1.1619,1.1619,1.1619,1.1619,1.1596,1.1572,1.1548,1.1548,1.1538,1.1514,1.1229,1.107,1.1084,1.0633,1.0368,1.0205,1.0097,0.9913,0.9869,0.996,1.0024,1.0038,1.0253,1.0385,1.0493,1.0517,1.0595,1.0656,1.046,1.011,0.9686,0.9344,0.9193,0.9096,0.8977,0.9047,0.9154,0.8937,0.8885,0.8937,0.9103,0.9047,0.8999,0.9459,0.9407,0.9289,0.9485,0.9302,0.9028,0.8797,0.8663,0.8525,0.8349,0.8435,0.8514,0.8318,0.8416,0.839,0.8055,0.8305,0.8437,0.8251,0.8432,0.892,0.985,0.9948,0.9696,0.9098,1.0039,1.0798,1.1163,1.229,1.3398,1.4439,1.5405,1.5891,1.5891,1.5891,1.5891,1.5891,1.5891,1.5891,0.8884,0.9201,0.9601,0.9952,1.0181,1.0239,1.0024,1.0168,1.0273,1.0249,1.0158,1.0014,0.999,0.9903,0.9961,1.0175,1.046,1.0802,1.1229,1.1196,1.1243,1.1548,1.1586,1.1592,1.1616,1.1619,1.1619,1.1619,1.1619,1.1619,1.1619,1.1619,1.1619,1.1619,1.1494,1.1365,1.1236,1.1233,1.1172,1.0981,1.087,1.0656,1.0412,1.0344,1.0158,0.9897,0.9943,0.9974,0.9963,1.0181,1.0246,1.0259,1.0402,1.0473,1.0507,1.0636,1.0619,1.047,1.0063,0.9717,0.9415,0.9275,0.9069,0.8967,0.8892,0.9588,1.0186,0.921,0.8885,0.9154,1.0186,0.9644,0.9518,1.203,1.1784,1.1236,1.2228,1.2107,1.1414,1.0168,1.0531,1.0786,0.9983,1.0539,1.0733,0.9827,0.953,0.905,0.8141,0.8798,0.9393,0.9365,1.0391,1.1121,1.1268,1.1463,1.156,1.1652,1.1406,1.1859,1.3245,1.4638,1.5458,1.5624,1.5838,1.5891,1.5891,1.5891,1.5891,1.5891,1.5891,1.5891,0.8439,0.8907,0.9206,0.9857,1.0148,1.0177,1.0058,1.0168,1.0232,1.0066,0.9975,0.9866,0.9866,1.0005,1.0168,1.047,1.07,1.0941,1.1226,1.1277,1.1369,1.1592,1.1619,1.1619,1.1619,1.1619,1.1619,1.1619,1.1619,1.1582,1.1501,1.1497,1.1457,1.1375,1.1229,1.1077,1.0924,1.0843,1.0809,1.0822,1.0592,1.0412,1.0276,1.0107,0.9954,0.9829,0.992,0.9987,1.0004,1.03,1.0395,1.0402,1.0466,1.049,1.049,1.0483,1.0334,1.009,0.9805,0.951,0.9289,0.9086,0.8991,0.8885,0.8885,0.9754,1.0562,1.0025,0.986,1.0021,1.0562,1.0292,1.0449,1.2733,1.2655,1.2195,1.3043,1.2768,1.2158,1.1243,1.1462,1.1647,1.1068,1.1291,1.1427,1.0924,1.0702,1.036,0.9817,1.0235,1.0604,1.0694,1.1219,1.1858,1.2587,1.2732,1.2878,1.311,1.2949,1.3429,1.4682,1.5477,1.5897,1.5897,1.6031,1.6111,1.6111,1.6111,1.6051,1.5891,1.5891,1.5891,0.8081,0.8606,0.8831,0.9638,0.9944,1.0153,1.0143,1.0243,1.0222,1.0019,0.9924,0.9873,0.9873,1.0154,1.046,1.0683,1.087,1.1145,1.1253,1.1369,1.1487,1.1606,1.1619,1.1619,1.1619,1.1619,1.1606,1.1569,1.1565,1.1501,1.1345,1.1338,1.1267,1.1118,1.1006,1.0789,1.067,1.0551,1.0534,1.0616,1.0351,1.0226,1.0219,0.9981,0.9873,0.9883,1.0011,1.0092,1.0112,1.0436,1.0544,1.0541,1.0507,1.047,1.0426,1.028,1.0053,0.9795,0.9618,0.9381,0.9187,0.8984,0.8885,0.8944,0.931,1.0221,1.1118,1.116,1.1362,1.1546,1.1546,1.1328,1.1658,1.3795,1.3772,1.3493,1.423,1.3932,1.331,1.2588,1.271,1.276,1.2222,1.2294,1.2294,1.1988,1.1789,1.1602,1.1243,1.1559,1.1845,1.1922,1.229,1.292,1.3944,1.4046,1.4129,1.4325,1.4445,1.4829,1.5544,1.5772,1.5921,1.5973,1.6187,1.6293,1.6278,1.634,1.6271,1.5998,1.5998,1.5945,0.7869,0.8228,0.8428,0.9136,0.9592,0.998,1.0547,1.047,1.0314,1.0422,1.0226,0.997,0.997,1.0392,1.0697,1.0717,1.1199,1.1575,1.1586,1.1596,1.1606,1.1616,1.1619,1.1619,1.1619,1.1619,1.1558,1.1416,1.1406,1.1341,1.1189,1.1179,1.1111,1.09,1.0887,1.0806,1.051,1.0497,1.0432,1.031,1.0144,1.0004,1.0004,0.998,0.997,0.9987,1.0337,1.046,1.0473,1.0636,1.0704,1.069,1.0548,1.0412,1.0276,1.0058,0.9899,0.9781,0.9496,0.9347,0.9187,0.8984,0.8885,0.9127,1.0551,1.1585,1.2346,1.2589,1.3282,1.3948,1.3948,1.3127,1.3118,1.6476,1.6202,1.5635,1.7302,1.7252,1.635,1.4708,1.5078,1.5211,1.3892,1.4293,1.4426,1.3164,1.2746,1.2262,1.1321,1.2257,1.299,1.298,1.4328,1.5343,1.5588,1.5635,1.5648,1.5662,1.5753,1.5802,1.5859,1.5875,1.6025,1.6271,1.6287,1.6299,1.6297,1.6556,1.6524,1.6271,1.6271,1.6164,0.743,0.8008,0.8187,0.8934,0.9123,0.9429,1.0335,1.0639,1.0656,1.0521,1.0402,1.0324,1.0324,1.0463,1.0639,1.0829,1.1128,1.1335,1.1335,1.1335,1.1335,1.1335,1.1335,1.1335,1.1335,1.1335,1.1311,1.1253,1.125,1.1185,1.1036,1.1029,1.0962,1.0812,1.0714,1.0609,1.0493,1.049,1.0466,1.0412,1.0263,1.0195,1.0195,1.0195,1.0195,1.0205,1.0405,1.049,1.0497,1.0555,1.0578,1.0555,1.031,1.0127,0.9978,0.9829,0.968,0.9517,0.9367,0.9144,0.9011,0.8902,0.9427,1.0143,1.0702,1.2101,1.3527,1.3668,1.4445,1.5083,1.4385,1.4,1.4345,1.6765,1.7055,1.6968,1.7635,1.7584,1.7103,1.5887,1.5916,1.5913,1.5222,1.5086,1.491,1.44,1.425,1.4039,1.369,1.4382,1.4942,1.5084,1.5622,1.6009,1.6106,1.5939,1.5905,1.6092,1.5945,1.5849,1.5884,1.5916,1.61,1.6588,1.655,1.6632,1.6852,1.6738,1.663,1.6524,1.6377,1.6318,0.6641,0.7564,0.8063,0.8739,0.8875,0.9098,1.0009,1.0462,1.0695,1.0604,1.0558,1.0477,1.0432,1.05,1.0633,1.0843,1.104,1.1231,1.1231,1.1231,1.1231,1.1231,1.1231,1.1231,1.1231,1.1231,1.1141,1.1097,1.1094,1.1029,1.0884,1.0809,1.0806,1.0653,1.0595,1.0541,1.049,1.0538,1.0565,1.0561,1.0466,1.0395,1.0348,1.0348,1.0348,1.0354,1.05,1.0565,1.0561,1.051,1.0436,1.0331,1.0065,0.9896,0.9802,0.9663,0.9513,0.9361,0.9262,0.9059,0.9002,0.9436,1.0122,1.0857,1.1797,1.3068,1.4288,1.4743,1.542,1.5851,1.509,1.4997,1.5536,1.6955,1.7491,1.7629,1.7734,1.7704,1.7497,1.6721,1.6551,1.6466,1.6113,1.5712,1.547,1.5388,1.5376,1.5376,1.5376,1.5795,1.6168,1.6419,1.6434,1.6373,1.6328,1.6086,1.6052,1.6308,1.6079,1.6042,1.6279,1.6153,1.6297,1.6897,1.6859,1.6962,1.72,1.7061,1.6948,1.6842,1.6696,1.6636,0.5536,0.6888,0.8022,0.8457,0.8808,0.9101,0.9564,0.993,1.0302,1.0782,1.0704,1.0449,1.031,1.0521,1.0717,1.0717,1.0965,1.1227,1.1227,1.1227,1.1227,1.1227,1.1227,1.1227,1.1227,1.1227,1.1101,1.089,1.088,1.0813,1.0727,1.0721,1.0649,1.05,1.0639,1.0649,1.0493,1.0643,1.0721,1.0721,1.0721,1.0639,1.0493,1.0493,1.0493,1.0504,1.0656,1.0721,1.0707,1.0555,1.0314,0.9984,0.9984,0.9893,0.9802,0.9659,0.951,0.9357,0.9262,0.9055,0.9182,1.0615,1.0937,1.1287,1.4153,1.4652,1.4494,1.5939,1.6284,1.6284,1.629,1.629,1.6533,1.7408,1.7602,1.7683,1.7962,1.7972,1.7827,1.7198,1.7089,1.695,1.6411,1.6292,1.6221,1.6005,1.6017,1.6023,1.6023,1.6181,1.6426,1.6663,1.6714,1.6593,1.6355,1.6328,1.6328,1.6328,1.6279,1.6583,1.7179,1.6621,1.6608,1.7199,1.7187,1.7193,1.7206,1.7494,1.7483,1.7179,1.7179,1.7008,0.5291,0.6213,0.6808,0.8001,0.8361,0.8598,0.9137,0.9734,1.0197,1.0477,1.0502,1.048,1.0436,1.05,1.0561,1.0561,1.0724,1.085,1.085,1.085,1.085,1.085,1.085,1.085,1.085,1.085,1.0833,1.0792,1.0789,1.0768,1.0721,1.0721,1.07,1.0653,1.0697,1.07,1.0653,1.0697,1.0721,1.0721,1.0721,1.0697,1.0653,1.0653,1.0653,1.0656,1.07,1.0721,1.07,1.0446,1.0164,0.989,0.989,0.9863,0.9791,0.954,0.9418,0.9344,0.9089,0.9521,1.0272,1.0895,1.2135,1.3633,1.4655,1.5451,1.6034,1.6444,1.6573,1.6616,1.6803,1.6851,1.6944,1.7165,1.7584,1.7811,1.7469,1.7713,1.7772,1.6962,1.6833,1.6728,1.635,1.6151,1.5998,1.5914,1.6307,1.6697,1.7094,1.7172,1.7218,1.7321,1.7141,1.7032,1.6951,1.67,1.6667,1.6924,1.6549,1.6583,1.7179,1.6818,1.6852,1.7448,1.7285,1.7292,1.7507,1.7391,1.7378,1.7483,1.7279,1.7279,0.4595,0.5549,0.6352,0.7814,0.8272,0.8421,0.8809,0.9578,1.0147,1.0332,1.0442,1.0582,1.0582,1.0582,1.0582,1.0582,1.066,1.0721,1.0721,1.0721,1.0721,1.0721,1.0721,1.0721,1.0721,1.0721,1.0721,1.0721,1.0721,1.0721,1.0721,1.0721,1.0721,1.0721,1.0721,1.0721,1.0721,1.0721,1.0756,1.0826,1.0695,1.0664,1.0743,1.0732,1.0721,1.0717,1.0656,1.0565,1.0436,1.0198,0.992,0.9646,0.9646,0.9646,0.9618,0.9378,0.9347,0.9266,0.9086,0.985,1.0993,1.1755,1.3262,1.487,1.5626,1.6259,1.67,1.67,1.6779,1.6893,1.705,1.7092,1.7117,1.7219,1.7466,1.7524,1.7186,1.7313,1.7316,1.6817,1.6702,1.6639,1.6514,1.6322,1.6242,1.6242,1.6645,1.7066,1.7388,1.7508,1.7582,1.7582,1.7373,1.7152,1.7032,1.6707,1.6613,1.6844,1.6522,1.6536,1.7005,1.6821,1.685,1.7235,1.7311,1.7318,1.7235,1.7318,1.7371,1.7467,1.7377,1.743,0.3525,0.4896,0.6236,0.7668,0.8213,0.8459,0.8562,0.9389,1.0123,1.0127,1.0389,1.0654,1.0721,1.0721,1.0721,1.0721,1.0721,1.0721,1.0721,1.0721,1.0721,1.0721,1.0721,1.0721,1.0721,1.0721,1.0721,1.0721,1.0721,1.0721,1.0721,1.0721,1.0721,1.0721,1.0721,1.0714,1.07,1.07,1.0754,1.0987,1.0667,1.0598,1.0795,1.0689,1.068,1.0673,1.0548,1.0314,0.9957,0.988,0.9646,0.9381,0.9381,0.9381,0.9361,0.9265,0.921,0.9207,0.9306,1.0152,1.1508,1.2996,1.4271,1.5417,1.6693,1.6887,1.6706,1.673,1.6911,1.7092,1.7092,1.7092,1.7147,1.7358,1.7231,1.705,1.7026,1.6851,1.6688,1.669,1.6658,1.6723,1.6698,1.6742,1.6754,1.678,1.6974,1.7172,1.7199,1.7407,1.7502,1.7502,1.732,1.7052,1.6727,1.6466,1.6362,1.6362,1.6286,1.6393,1.6653,1.6693,1.6707,1.6707,1.7235,1.7241,1.6707,1.7241,1.7368,1.7166,1.7382,1.7515,0.2079,0.3499,0.4902,0.6326,0.7668,0.8557,0.8581,0.8987,0.9452,0.9728,1.006,1.0389,1.0654,1.0721,1.0721,1.0721,1.0721,1.0721,1.0721,1.0721,1.0721,1.0721,1.0721,1.0721,1.0721,1.0721,1.0721,1.0721,1.0721,1.0721,1.0721,1.0721,1.0721,1.0721,1.0721,1.0663,1.0541,1.0541,1.0661,1.0834,1.0519,1.0502,1.0788,1.0536,1.0375,1.0378,1.046,1.0256,0.9869,0.9836,0.9646,0.9381,0.9381,0.9381,0.9361,0.9265,0.921,0.9303,1.012,1.1262,1.2627,1.3958,1.5266,1.6369,1.671,1.6748,1.6742,1.6948,1.705,1.7092,1.7092,1.7092,1.705,1.6905,1.6827,1.673,1.6519,1.6598,1.6635,1.6422,1.6558,1.6713,1.6717,1.6935,1.7186,1.7361,1.7054,1.6887,1.7172,1.7001,1.6894,1.6894,1.684,1.6774,1.6707,1.6647,1.6613,1.6613,1.64,1.6348,1.6359,1.6587,1.6707,1.6707,1.6827,1.6834,1.6707,1.6834,1.686,1.68,1.6867,1.7014,0.1697,0.2559,0.3653,0.582,0.7472,0.8587,0.8587,0.872,0.8987,0.9322,0.9857,1.0256,1.0455,1.0588,1.0721,1.0721,1.0721,1.0721,1.0721,1.0721,1.0982,1.1637,1.1111,1.0982,1.1637,1.1115,1.0721,1.0721,1.0721,1.0721,1.0721,1.0721,1.0687,1.0612,1.0743,1.0802,1.0649,1.0774,1.0951,1.111,1.0608,1.0381,1.0312,1.0338,1.028,1.028,1.028,1.0103,0.9812,0.9669,0.9476,0.9323,0.9195,0.9167,0.9161,0.9079,0.9052,0.9217,1.0366,1.1693,1.3017,1.4253,1.5619,1.67,1.67,1.67,1.673,1.6869,1.6905,1.6905,1.6905,1.6803,1.667,1.6531,1.6501,1.6459,1.6326,1.6417,1.641,1.6159,1.6441,1.6658,1.6541,1.6676,1.6831,1.6985,1.6693,1.6553,1.6764,1.6714,1.6707,1.6707,1.6587,1.65,1.65,1.6366,1.6286,1.6286,1.6146,1.6059,1.6059,1.6206,1.6286,1.6286,1.656,1.6567,1.6286,1.6567,1.6633,1.65,1.664,1.6787,0.1438,0.1927,0.2772,0.5684,0.7314,0.8318,0.852,0.8587,0.8653,0.8984,0.9519,1.0057,1.0127,1.0389,1.0588,1.0588,1.0654,1.0721,1.0721,1.0721,1.1244,1.2618,1.1574,1.1244,1.2684,1.1505,1.0721,1.0721,1.0721,1.0707,1.068,1.068,1.0612,1.0524,1.0841,1.0899,1.0812,1.1058,1.1287,1.1491,1.0812,1.0309,0.9829,1.0083,1.0202,1.0195,1.0031,0.9886,0.9764,0.9493,0.935,0.9197,0.9022,0.8977,0.8977,0.8977,0.9085,0.9429,1.0691,1.2029,1.3305,1.4585,1.5742,1.6622,1.6573,1.6561,1.6573,1.6616,1.6628,1.6628,1.6628,1.6453,1.6266,1.6223,1.6266,1.6326,1.6326,1.6317,1.6262,1.6143,1.6471,1.6722,1.6487,1.6358,1.6342,1.6339,1.6259,1.6213,1.6315,1.644,1.6553,1.6553,1.6339,1.6192,1.6192,1.5972,1.5784,1.5784,1.5784,1.5784,1.5784,1.5784,1.5784,1.5784,1.6306,1.6313,1.5784,1.6319,1.6433,1.6206,1.6446,1.658,0.0247,0.1148,0.2772,0.5684,0.6577,0.7045,0.832,0.8587,0.8587,0.8653,0.8984,0.9319,0.9728,1.006,1.0259,1.0259,1.0522,1.0721,1.0721,1.0721,1.1244,1.2618,1.1574,1.1244,1.2684,1.1505,1.0721,1.0721,1.0721,1.0663,1.0527,1.0521,1.0586,1.0757,1.0817,1.0865,1.0952,1.101,1.111,1.1308,1.0944,1.0447,0.9822,0.9863,0.9883,0.9886,0.994,0.9832,0.9625,0.9452,0.935,0.9207,0.9187,0.918,0.918,0.918,0.9792,1.0779,1.1854,1.3128,1.4482,1.546,1.6042,1.6296,1.6066,1.6,1.6048,1.6272,1.6338,1.6338,1.6338,1.6308,1.6223,1.6,1.6106,1.6326,1.6326,1.6295,1.6424,1.6916,1.7068,1.7134,1.7101,1.664,1.6359,1.6607,1.6213,1.5979,1.6239,1.6086,1.5898,1.5898,1.5912,1.5885,1.5885,1.5852,1.5784,1.5784,1.5784,1.5784,1.5784,1.5784,1.5784,1.5784,1.5858,1.5858,1.5784,1.5864,1.5878,1.5885,1.5878,1.6086,0.0,0.1026,0.2377,0.3681,0.5235,0.6577,0.7247,0.7984,0.8587,0.8587,0.872,0.892,0.9322,0.9658,0.9994,1.0193,1.0326,1.0522,1.0654,1.0721,1.1244,1.2618,1.1574,1.1244,1.2684,1.1505,1.0683,1.0599,1.0592,1.0527,1.0382,1.0375,1.0367,1.0343,1.0712,1.0882,1.0901,1.1271,1.1415,1.1273,1.097,1.0547,1.0065,0.9879,0.9822,0.9822,0.9808,0.973,0.9591,0.9351,0.9272,0.9204,0.9062,0.9032,0.9042,0.918,0.9995,1.116,1.2183,1.3427,1.4751,1.5594,1.597,1.6036,1.5928,1.5891,1.591,1.603,1.606,1.606,1.606,1.606,1.6036,1.5916,1.6105,1.6324,1.6477,1.6696,1.6908,1.7325,1.7296,1.7199,1.7199,1.6794,1.6506,1.6466,1.6099,1.5831,1.6005,1.5912,1.5784,1.5784,1.5784,1.5784,1.5784,1.5784,1.5784,1.5784,1.5784,1.5784,1.5784,1.5784,1.5784,1.5784,1.5784,1.5784,1.5784,1.5784,1.5784,1.5784,1.5784,1.5899,0.0,0.0761,0.1625,0.2043,0.372,0.5473,0.6207,0.7227,0.8117,0.852,0.8587,0.8653,0.8917,0.9256,0.9658,0.9854,0.999,1.019,1.0522,1.0588,1.1111,1.2618,1.1574,1.1244,1.2684,1.1505,1.0656,1.0504,1.049,1.0412,1.0229,1.0285,1.0339,1.018,1.079,1.1099,1.1035,1.1526,1.1587,1.1152,1.091,1.0607,1.0183,0.9943,0.9822,0.9815,0.971,0.9642,0.9588,0.932,0.9245,0.92,0.9035,0.8991,0.9064,0.9546,1.0507,1.1746,1.281,1.4044,1.5237,1.5802,1.5994,1.5982,1.591,1.5891,1.5891,1.5891,1.5891,1.5891,1.5891,1.5891,1.5891,1.5891,1.6158,1.6477,1.6789,1.706,1.7384,1.7582,1.74,1.7179,1.7099,1.6794,1.6493,1.6206,1.5972,1.5784,1.5784,1.5784,1.5784,1.5784,1.5784,1.5784,1.5784,1.5784,1.5784,1.5784,1.5784,1.5784,1.5784,1.5784,1.5784,1.5784,1.5784,1.5784,1.5784,1.5784,1.5784,1.5784,1.5784,1.5784,0.0,0.0061,0.0435,0.1764,0.2194,0.3028,0.5788,0.6446,0.6911,0.832,0.8587,0.8587,0.8653,0.8917,0.9117,0.9183,0.9455,0.9861,1.019,1.0256,1.085,1.2618,1.1574,1.1244,1.2684,1.1505,1.0656,1.0504,1.049,1.0365,1.0014,1.0308,1.0544,1.0747,1.1103,1.1409,1.1716,1.1776,1.1466,1.0849,1.0789,1.0486,0.9819,0.9822,0.9822,0.9822,0.9815,0.9734,0.9598,0.9435,0.9344,0.921,0.92,0.92,0.9327,1.0673,1.1937,1.3079,1.4447,1.5648,1.6578,1.635,1.6272,1.6241,1.597,1.5891,1.5891,1.5891,1.5891,1.5891,1.5891,1.5891,1.5891,1.5891,1.6311,1.6789,1.712,1.7378,1.7582,1.7582,1.74,1.7112,1.6774,1.6486,1.6192,1.5899,1.5791,1.5784,1.5784,1.5784,1.5784,1.5784,1.5784,1.5784,1.5784,1.5784,1.5784,1.5784,1.5784,1.5784,1.5784,1.5784,1.5784,1.5784,1.5784,1.5784,1.5784,1.5784,1.5784,1.5784,1.5784,1.5784,0.0,0.0,0.0122,0.062,0.1451,0.2373,0.343,0.4391,0.544,0.6898,0.7181,0.7448,0.8454,0.872,0.8851,0.905,0.9253,0.9455,0.9794,1.006,1.0455,1.1045,1.085,1.0916,1.1376,1.1835,1.1961,1.185,1.1799,1.1637,1.1352,1.075,1.0426,1.0486,1.1031,1.1462,1.1776,1.2603,1.2354,1.1152,1.1744,1.1322,1.0122,0.9883,0.9822,0.9822,0.9822,0.9741,0.9591,0.934,0.9258,0.921,0.921,0.9096,0.9223,1.0832,1.217,1.3336,1.4635,1.5909,1.6875,1.6429,1.6284,1.6241,1.597,1.5891,1.5891,1.5891,1.5891,1.5891,1.5891,1.5891,1.5998,1.6311,1.6571,1.6842,1.7371,1.7529,1.7582,1.7582,1.7502,1.7387,1.7092,1.6951,1.6723,1.6186,1.6112,1.6046,1.5804,1.5999,1.6039,1.5804,1.5999,1.6039,1.5798,1.5784,1.5784,1.5784,1.5784,1.5784,1.5784,1.5784,1.5784,1.5784,1.5784,1.5784,1.5784,1.5784,1.5784,1.5784,1.5784,1.5784,0.0,0.0,0.0,0.0,0.0676,0.15,0.1985,0.2852,0.4132,0.6015,0.6376,0.6844,0.8318,0.8587,0.8653,0.8917,0.8917,0.9053,0.9455,0.9721,0.9854,0.9994,1.0323,1.0522,1.0522,1.1901,1.2739,1.2624,1.294,1.3072,1.2763,1.2199,1.174,1.1446,1.1868,1.1997,1.1776,1.3075,1.2826,1.1152,1.2221,1.18,1.0126,0.9883,0.9822,0.9822,0.9822,0.9741,0.9595,0.9391,0.9333,0.9286,0.9286,0.9171,0.9296,1.1384,1.2615,1.3509,1.531,1.6518,1.7135,1.6598,1.6423,1.6356,1.6,1.5891,1.5891,1.5891,1.5891,1.5891,1.5891,1.5891,1.6045,1.6683,1.6783,1.6889,1.7477,1.7582,1.7582,1.7582,1.7582,1.7488,1.7253,1.7199,1.7038,1.6493,1.642,1.6313,1.6019,1.6152,1.6159,1.5865,1.6092,1.6152,1.5804,1.6012,1.6039,1.5791,1.5925,1.5932,1.5784,1.5784,1.5784,1.5784,1.5784,1.5784,1.5784,1.5784,1.5784,1.5784,1.5784,1.5784,0.0,0.0,0.0,0.0,0.0,0.0366,0.1717,0.2056,0.2852,0.573,0.637,0.6773,0.8318,0.8587,0.8587,0.8587,0.8587,0.872,0.905,0.9117,0.9253,0.9661,0.9994,1.0193,1.0193,1.1769,1.2743,1.2693,1.3956,1.4537,1.4184,1.4689,1.4585,1.3729,1.3665,1.3135,1.1897,1.314,1.2766,1.0849,1.2161,1.174,0.9822,0.9822,0.9822,0.9822,0.9822,0.9744,0.9615,0.9612,0.952,0.9388,0.9388,0.9442,0.9801,1.2404,1.3407,1.3839,1.6546,1.7473,1.7382,1.6857,1.6688,1.6585,1.6054,1.5891,1.5891,1.5891,1.5891,1.5891,1.5891,1.5891,1.6105,1.6961,1.6955,1.6889,1.7477,1.7582,1.7582,1.7582,1.7582,1.7548,1.7266,1.7213,1.7112,1.6767,1.672,1.6613,1.6375,1.6286,1.6172,1.5872,1.6099,1.6152,1.5804,1.6353,1.6433,1.5818,1.6099,1.6126,1.5791,1.5784,1.5784,1.5784,1.5784,1.5784,1.5784,1.5784,1.5784,1.5784,1.5784,1.5784,0.0,0.0,0.0,0.0,0.0,0.0,0.0481,0.0553,0.1385,0.4274,0.4857,0.5633,0.8169,0.8587,0.8587,0.8587,0.8587,0.8653,0.872,0.8917,0.9117,0.9253,0.9788,1.0193,1.0193,1.1769,1.3189,1.4178,1.4552,1.4979,1.5757,1.5114,1.4316,1.338,1.355,1.3545,1.3195,1.4446,1.4078,1.2161,1.3471,1.2573,0.9822,0.9822,0.9822,0.9822,0.9822,0.9798,0.9754,0.9652,0.9585,0.9547,0.9547,1.0058,1.1017,1.2913,1.4123,1.4982,1.664,1.7201,1.7111,1.6573,1.6398,1.6332,1.5994,1.5891,1.5891,1.5891,1.5891,1.5891,1.5891,1.6051,1.6318,1.6736,1.6955,1.7173,1.7529,1.7582,1.7582,1.7582,1.7582,1.7555,1.7475,1.7514,1.7414,1.7119,1.7079,1.6971,1.6627,1.6587,1.6473,1.6179,1.6226,1.6152,1.5804,1.5931,1.5999,1.5791,1.5905,1.5912,1.5784,1.5784,1.5784,1.5784,1.5784,1.5784,1.5784,1.5784,1.5784,1.5784,1.5784,1.5784,0.0,0.0,0.0,0.0,0.0,0.0,0.0,0.0,0.081,0.3674,0.4248,0.5145,0.8028,0.8549,0.8532,0.8581,0.8587,0.8587,0.8587,0.8787,0.8917,0.8917,0.9522,0.9994,0.9994,1.1699,1.3144,1.3927,1.5048,1.6181,1.7285,1.6603,1.5505,1.4028,1.4852,1.4793,1.3725,1.5332,1.5025,1.2697,1.383,1.2753,0.9822,0.9822,0.9822,0.9822,0.9822,0.9822,0.9815,0.973,0.9696,0.9696,0.9696,1.0409,1.1636,1.3159,1.4355,1.5445,1.6678,1.702,1.6857,1.6423,1.6278,1.6229,1.597,1.5891,1.5891,1.5891,1.5891,1.5945,1.6051,1.6105,1.6264,1.6789,1.6955,1.7113,1.7529,1.7582,1.7582,1.7582,1.7582,1.7582,1.7582,1.7582,1.7522,1.7407,1.738,1.7273,1.6927,1.678,1.6593,1.6355,1.6321,1.6152,1.5804,1.6004,1.6086,1.5798,1.5945,1.5959,1.5832,1.5784,1.5784,1.5784,1.5784,1.5784,1.5784,1.5784,1.5784,1.5784,1.5784,1.5784,0.0,0.0,0.0,0.0,0.0,0.0,0.0,0.0,0.0742,0.3476,0.3967,0.4774,0.7756,0.8228,0.8196,0.8492,0.853,0.8557,0.8584,0.8587,0.8592,0.8606,0.9279,0.9749,0.9682,1.1464,1.2642,1.282,1.5375,1.742,1.8606,1.8489,1.7408,1.5327,1.6685,1.6391,1.4138,1.5924,1.5499,1.2937,1.3586,1.2449,0.9822,0.9822,0.9822,0.9822,0.9822,0.9822,0.9822,0.9822,0.9822,0.9822,0.9943,1.0785,1.2109,1.3426,1.4557,1.561,1.669,1.6917,1.6658,1.6374,1.626,1.6193,1.5964,1.5891,1.5891,1.5891,1.5891,1.5945,1.6164,1.6105,1.6158,1.6961,1.6955,1.6895,1.7477,1.7582,1.7582,1.7582,1.7582,1.7582,1.7582,1.7582,1.7582,1.7582,1.7582,1.7488,1.7286,1.6941,1.6647,1.6353,1.6342,1.6152,1.5804,1.6306,1.6386,1.5811,1.6079,1.6106,1.5791,1.5784,1.5784,1.5784,1.5784,1.5784,1.5784,1.5784,1.5784,1.5784,1.5784,1.5798,0.0,0.0,0.0,0.0,0.0,0.0,0.0,0.0,0.0462,0.2151,0.2492,0.3325,0.6056,0.656,0.6867,0.7884,0.8176,0.8369,0.856,0.8587,0.8625,0.8723,0.9411,0.9817,0.9814,1.0695,1.1717,1.2696,1.5037,1.6942,1.8294,1.8204,1.7537,1.6273,1.6809,1.6991,1.6744,1.5919,1.5025,1.4247,1.3108,1.1615,0.9822,0.9822,0.9822,0.9822,0.9822,0.9822,0.9822,0.9822,0.9822,0.9883,1.0906,1.2169,1.3485,1.4738,1.602,1.7078,1.7107,1.6917,1.6658,1.6374,1.6139,1.5958,1.5903,1.5891,1.5891,1.5891,1.5891,1.5891,1.5945,1.6105,1.6324,1.6683,1.6955,1.7173,1.7529,1.7582,1.7582,1.7582,1.7582,1.7582,1.7582,1.7582,1.7582,1.7582,1.7582,1.7562,1.7508,1.7293,1.6998,1.6653,1.6413,1.6152,1.5804,1.5884,1.5952,1.5791,1.5838,1.5885,1.5784,1.5784,1.5784,1.5784,1.5784,1.5784,1.5784,1.5784,1.5784,1.5784,1.5784,1.5959,0.0,0.0,0.0,0.0,0.0,0.0,0.0,0.0,0.0404,0.1818,0.2085,0.2716,0.4799,0.517,0.5547,0.682,0.719,0.7542,0.8248,0.8475,0.8633,0.8755,0.9242,0.965,0.9783,1.0335,1.1216,1.2696,1.3693,1.5095,1.7162,1.7099,1.6873,1.6509,1.7461,1.7695,1.7285,1.6273,1.5322,1.4302,1.2697,1.1205,0.9822,0.9822,0.9781,0.9717,0.9717,0.9673,0.9602,0.9602,0.9954,1.0558,1.1383,1.2828,1.4526,1.529,1.6255,1.7074,1.6942,1.6634,1.6272,1.6133,1.6,1.5891,1.5891,1.5891,1.5891,1.5891,1.5891,1.5891,1.5891,1.5998,1.6211,1.6624,1.6842,1.706,1.7529,1.7582,1.7582,1.7582,1.7582,1.7582,1.7582,1.7582,1.7582,1.7582,1.7582,1.7528,1.7434,1.7159,1.6814,1.652,1.6226,1.5992,1.5791,1.5784,1.5784,1.5784,1.5784,1.5784,1.5784,1.5784,1.5784,1.5784,1.5784,1.5784,1.5784,1.5784,1.5784,1.5784,1.5784,1.5912,0.0,0.0,0.0,0.0,0.0,0.0,0.0,0.0,0.0,0.1457,0.1649,0.2079,0.356,0.3737,0.4169,0.5732,0.6139,0.6672,0.7841,0.8239,0.8519,0.8712,0.9092,0.9446,0.9783,1.0148,1.1083,1.2692,1.2423,1.3344,1.6032,1.6046,1.6259,1.6868,1.811,1.835,1.7408,1.6568,1.5435,1.4059,1.2221,1.0785,0.9819,0.9791,0.9717,0.9608,0.9578,0.9496,0.9439,0.961,1.0397,1.1425,1.1816,1.3266,1.5182,1.5662,1.6189,1.67,1.67,1.6374,1.5964,1.5964,1.5934,1.5891,1.5891,1.5891,1.5891,1.5891,1.5891,1.5891,1.5891,1.5891,1.6045,1.6571,1.6677,1.6889,1.7477,1.7582,1.7582,1.7582,1.7582,1.7582,1.7582,1.7582,1.7582,1.7582,1.7582,1.7475,1.7239,1.6941,1.666,1.6362,1.6059,1.5892,1.5832,1.5784,1.5784,1.5784,1.5784,1.5784,1.5784,1.5784,1.5784,1.5784,1.5784,1.5784,1.5784,1.5784,1.5784,1.5784,1.5784,1.5811,0.0,0.0,0.0,0.0,0.0,0.0,0.0,0.0,0.0055,0.0225,0.0,0.0622,0.1863,0.0,0.0,0.509,0.564,0.6226,0.7402,0.7796,0.8117,0.8557,0.9039,0.9446,0.9783,1.0233,1.1109,1.2676,1.2423,1.3344,1.6032,1.5971,1.6569,1.8129,1.8357,1.8532,1.87,1.6085,1.454,1.4059,1.1318,0.994,0.9819,0.969,0.9625,0.9602,0.9466,0.9398,0.9497,1.047,1.1517,1.2455,1.2737,1.367,1.4975,1.6152,1.6636,1.67,1.67,1.6495,1.6235,1.6235,1.6079,1.5891,1.5891,1.5891,1.5891,1.5891,1.5891,1.5891,1.5891,1.5891,1.6045,1.6571,1.6677,1.6889,1.7477,1.7582,1.7582,1.7582,1.7582,1.7582,1.7582,1.7582,1.7582,1.7582,1.7582,1.7475,1.7239,1.7172,1.6938,1.6382,1.6295,1.6112,1.5852,1.5784,1.5784,1.5784,1.5784,1.5784,1.5784,1.5784,1.5784,1.5784,1.5784,1.5784,1.5784,1.5784,1.5784,1.5784,1.5784,1.5972,0.0214,0.0946,0.1667,0.0321,0.048,0.0744,0.0165,0.0,0.0,0.0,0.0,0.0,0.0,0.0,0.0,0.0,0.5115,0.6085,0.7248,0.7676,0.7973,0.8308,0.8517,0.8835,0.9431,1.0052,1.0684,1.1417,1.1223,1.1909,1.3783,1.4388,1.5379,1.6991,1.7772,1.8252,1.8369,1.5671,1.4183,1.3834,1.108,0.9822,0.9815,0.9676,0.9561,0.9469,0.9313,0.9201,0.918,1.0403,1.1522,1.2554,1.3367,1.4486,1.5745,1.6472,1.6604,1.6471,1.6471,1.629,1.6054,1.6054,1.5982,1.5891,1.5891,1.5891,1.5891,1.5891,1.5891,1.5891,1.5891,1.5891,1.6045,1.6571,1.6677,1.6889,1.7477,1.7582,1.7582,1.7582,1.7582,1.7582,1.7582,1.7582,1.7582,1.7582,1.7582,1.7475,1.7239,1.7052,1.6734,1.6319,1.6119,1.5965,1.5791,1.5784,1.5784,1.5784,1.5784,1.5784,1.5784,1.5784,1.5784,1.5784,1.5784,1.5784,1.5784,1.5784,1.5784,1.5784,1.5784,1.5899,0.1254,0.2245,0.306,0.146,0.162,0.1938,0.1152,0.1,0.1005,0.0994,0.1,0.0,0.0,0.0,0.2686,0.3916,0.0,0.6001,0.7126,0.751,0.7804,0.7996,0.8138,0.854,0.9239,0.9756,1.0186,1.0473,1.0321,1.0798,1.2154,1.2959,1.4224,1.5972,1.6932,1.742,1.742,1.5198,1.377,1.3126,1.0846,0.9798,0.9758,0.9612,0.9462,0.931,0.9161,0.9199,0.9482,1.0676,1.1869,1.3014,1.4213,1.53,1.6199,1.6404,1.6362,1.6193,1.6193,1.606,1.5891,1.5891,1.5891,1.5891,1.5891,1.5891,1.5891,1.5891,1.5891,1.5891,1.5891,1.5891,1.6045,1.6571,1.6677,1.6889,1.7477,1.7582,1.7582,1.7582,1.7582,1.7582,1.7582,1.7582,1.7582,1.7582,1.7582,1.7475,1.7239,1.7012,1.6714,1.642,1.6126,1.5952,1.5952,1.5831,1.5784,1.5784,1.5784,1.5784,1.5784,1.5784,1.5784,1.5784,1.5784,1.5784,1.5784,1.5784,1.5784,1.5784,1.5784,1.5784,0.3647,0.3631,0.3622,0.3689,0.3629,0.3503,0.3509,0.3467,0.3469,0.3466,0.3467,0.3469,0.3466,0.3523,0.3916,0.5146,0.5375,0.0,0.0,0.7226,0.7366,0.7671,0.822,0.8788,0.9236,0.9327,0.9647,1.046,1.0222,1.0676,1.2146,1.2213,1.3397,1.5919,1.6026,1.6085,1.6085,1.4772,1.3292,1.1752,1.0425,0.9747,0.9612,0.9459,0.9306,0.921,0.9008,0.9596,1.0726,1.1869,1.3073,1.4277,1.5405,1.5897,1.5903,1.591,1.591,1.5903,1.5903,1.5897,1.5891,1.5891,1.5891,1.5891,1.5891,1.5891,1.5891,1.5891,1.5891,1.5891,1.5891,1.5891,1.6045,1.6571,1.6677,1.6889,1.7477,1.7582,1.7582,1.7582,1.7582,1.7582,1.7582,1.7582,1.7582,1.7582,1.7582,1.7475,1.7239,1.7192,1.7072,1.6727,1.6433,1.6259,1.6259,1.5999,1.5784,1.5784,1.5784,1.5784,1.5784,1.5784,1.5784,1.5784,1.5784,1.5784,1.5784,1.5784,1.5784,1.5784,1.5784,1.5784,0.3888,0.4676,0.5405,0.4027,0.4124,0.4372,0.3724,0.3549,0.3544,0.3681,0.3576,0.3545,0.3682,0.4341,0.4923,0.5316,0.6096,0.6707,0.0,0.721,0.7287,0.7434,0.7895,0.8337,0.8595,0.9049,0.9519,0.9974,0.9987,1.0194,1.0742,1.1608,1.2786,1.4441,1.449,1.4911,1.5741,1.3596,1.2225,1.1692,1.0325,0.9656,0.9602,0.9347,0.9258,0.9204,0.9001,0.9158,0.9644,1.1601,1.2635,1.3176,1.5131,1.5891,1.5891,1.5891,1.5891,1.5891,1.5891,1.5891,1.5891,1.5891,1.5891,1.5891,1.5891,1.5891,1.5891,1.5891,1.5891,1.5891,1.5891,1.5891,1.6045,1.6571,1.6677,1.6889,1.7477,1.7582,1.7582,1.7582,1.7582,1.7582,1.7582,1.7582,1.7582,1.7582,1.7582,1.7549,1.7501,1.732,1.7166,1.7058,1.6734,1.656,1.656,1.6466,1.6239,1.5804,1.6012,1.6039,1.5791,1.5784,1.5784,1.5784,1.5784,1.5784,1.5784,1.5784,1.5784,1.5784,1.5784,1.5784,0.5125,0.5916,0.6593,0.5266,0.5359,0.5613,0.5044,0.4866,0.4866,0.5232,0.5036,0.486,0.5195,0.5654,0.604,0.604,0.671,0.721,0.0,0.721,0.724,0.726,0.7549,0.7919,0.8393,0.8719,0.9194,0.9825,0.9835,0.9856,0.9903,1.0816,1.178,1.2907,1.297,1.3366,1.4202,1.2526,1.145,1.1023,1.0035,0.9581,0.952,0.9323,0.918,0.9069,0.8981,0.9154,0.9644,1.1164,1.2309,1.3181,1.4702,1.5565,1.5891,1.5891,1.5891,1.5891,1.5891,1.5891,1.5891,1.5891,1.5891,1.5891,1.5891,1.5891,1.5891,1.5891,1.5891,1.5891,1.5891,1.5891,1.6045,1.6571,1.6677,1.6889,1.7477,1.7582,1.7582,1.7582,1.7582,1.7582,1.7582,1.7582,1.7582,1.7582,1.7582,1.7582,1.7582,1.7474,1.7353,1.7353,1.7041,1.682,1.6714,1.6707,1.6547,1.6117,1.6319,1.6293,1.5999,1.5985,1.5939,1.5784,1.5784,1.5784,1.5784,1.5784,1.5784,1.5784,1.5784,1.5784]}]]